[[{"header":{"parameterUnit":"m.s-1","parameterCategory":1,"la1":30.6,"la2":29.2853,"lo1":-89.7004,"lo2":-87.6739,"dy":0.0162,"dx":0.0183,"nx":112,"ny":82,"refTime":"2023-08-27T00:00:00:Z","depth":0,"parameterNumber":2,"parameterNumberName":"U-component_of_WINDS"},"data":[0.0,0.0,0.0,0.0,0.0,0.0,0.0,0.0,0.0,0.0,0.0,0.0,0.0,0.0,0.0,0.0,0.0,0.0,0.0,0.0,0.0,0.0,0.0,0.0,0.0,0.0,0.0,0.0,0.0,0.0,0.0,0.0,0.0,0.0,0.0,0.0,0.0,0.0,0.0,0.0,0.0,0.0,0.0,0.0,0.0,0.0,0.0,0.0,0.0,0.0,0.0,0.0,0.0,0.0,0.0,0.0,0.0,0.0,0.0,0.0,0.0,0.0,0.0,0.0,0.0,0.0,0.0,0.0,0.0,0.0,0.0,0.0,0.0,0.0,0.0,0.0,0.0,0.0,0.0,0.0,0.0,0.0,0.0,0.0,0.0,0.0,0.0,0.0,0.0,0.0,-1.0769,-0.777,-1.144,-1.3375,-1.1658,-1.035,-0.797,-0.4118,0.0,0.0,0.0,0.0,0.0,0.0,0.0,0.0,0.0,0.0,0.0,0.0,0.0,0.0,0.0,0.0,0.0,0.0,0.0,0.0,0.0,0.0,0.0,0.0,0.0,0.0,0.0,0.0,0.0,0.0,0.0,0.0,0.0,0.0,0.0,0.0,0.0,0.0,0.0,0.0,0.0,0.0,0.0,0.0,0.0,0.0,0.0,0.0,0.0,0.0,0.0,0.0,0.0,0.0,0.0,0.0,0.0,0.0,0.0,0.0,0.0,0.0,0.0,0.0,0.0,0.0,0.0,0.0,0.0,0.0,0.0,0.0,0.0,0.0,0.0,0.0,0.0,0.0,0.0,0.0,0.0,0.0,0.0,0.0,0.0,0.0,0.0,0.0,0.0,0.0,0.0,0.0,0.0,0.0,0.0,0.0,0.0,0.0,0.0,0.0,0.0,0.0,0.0,0.0,-1.2765,-1.1416,-1.3694,-1.48,-1.3513,-1.085,-0.8713,-0.7423,0.0,0.0,0.0,0.0,0.0,0.0,0.0,0.0,0.0,0.0,0.0,0.0,0.0,0.0,0.0,0.0,0.0,0.0,0.0,0.0,0.0,0.0,0.0,0.0,0.0,0.0,0.0,0.0,0.0,0.0,0.0,0.0,0.0,0.0,0.0,0.0,0.0,0.0,0.0,0.0,0.0,0.0,0.0,0.0,0.0,0.0,0.0,0.0,0.0,0.0,0.0,0.0,0.0,0.0,0.0,0.0,0.0,0.0,0.0,0.0,0.0,0.0,0.0,0.0,0.0,0.0,0.0,0.0,0.0,0.0,0.0,0.0,0.0,0.0,0.0,0.0,0.0,0.0,0.0,0.0,0.0,0.0,0.0,0.0,0.0,0.0,0.0,0.0,0.0,0.0,0.0,0.0,0.0,0.0,0.0,0.0,0.0,0.0,0.0,0.0,0.0,0.0,0.0,-1.0136,-1.2066,-1.3166,-1.3601,-1.3595,-1.3097,-1.0691,-0.8965,-0.8416,-0.6047,0.0,0.0,0.0,0.0,0.0,0.0,0.0,0.0,0.0,0.0,0.0,0.0,0.0,0.0,0.0,0.0,0.0,0.0,0.0,0.0,0.0,0.0,0.0,0.0,0.0,0.0,0.0,0.0,0.0,0.0,0.0,0.0,0.0,0.0,0.0,0.0,0.0,0.0,0.0,0.0,0.0,0.0,0.0,0.0,0.0,0.0,0.0,0.0,0.0,0.0,0.0,0.0,0.0,0.0,0.0,0.0,0.0,0.0,0.0,0.0,0.0,0.0,0.0,0.0,0.0,0.0,0.0,0.0,0.0,0.0,0.0,0.0,0.0,0.0,0.0,0.0,0.0,0.0,0.0,0.0,0.0,0.0,0.0,0.0,0.0,0.0,0.0,0.0,0.0,0.0,0.0,0.0,0.0,0.0,0.0,0.0,0.0,0.0,0.0,0.0,0.0,0.0,-1.0443,-1.1212,-1.3691,-1.2951,-1.2276,-1.2304,-1.0334,-0.896,-0.8628,-0.718,0.0,0.0,0.0,0.0,0.0,0.0,0.0,0.0,0.0,0.0,0.0,0.0,0.0,0.0,0.0,0.0,0.0,0.0,0.0,0.0,0.0,0.0,0.0,0.0,0.0,0.0,0.0,0.0,0.0,0.0,0.0,0.0,0.0,0.0,0.0,0.0,0.0,0.0,0.0,0.0,0.0,0.0,0.0,0.0,0.0,0.0,0.0,0.0,0.0,0.0,0.0,0.0,0.0,0.0,0.0,0.0,0.0,0.0,0.0,0.0,0.0,0.0,0.0,0.0,0.0,0.0,0.0,0.0,0.0,0.0,0.0,0.0,0.0,0.0,0.0,0.0,0.0,0.0,0.0,0.0,0.0,0.0,0.0,0.0,0.0,0.0,0.0,0.0,0.0,0.0,0.0,0.0,0.0,0.0,0.0,0.0,0.0,0.0,0.0,0.0,0.0,0.0,-1.2723,-1.1531,-1.2875,-1.2511,-1.2152,-1.203,-1.0054,-0.8784,-0.8689,-0.5531,0.0,0.0,0.0,0.0,0.0,0.0,0.0,0.0,0.0,0.0,0.0,0.0,0.0,0.0,0.0,0.0,0.0,0.0,0.0,0.0,0.0,0.0,0.0,0.0,0.0,0.0,0.0,0.0,0.0,0.0,0.0,0.0,0.0,0.0,0.0,0.0,0.0,0.0,0.0,0.0,0.0,0.0,0.0,0.0,0.0,0.0,0.0,0.0,0.0,0.0,0.0,0.0,0.0,0.0,0.0,0.0,0.0,0.0,0.0,0.0,0.0,0.0,0.0,0.0,0.0,0.0,0.0,0.0,0.0,0.0,0.0,0.0,0.0,0.0,0.0,0.0,0.0,0.0,0.0,0.0,0.0,0.0,0.0,0.0,0.0,0.0,0.0,0.0,0.0,0.0,0.0,0.0,0.0,0.0,0.0,0.0,0.0,0.0,0.0,0.0,0.0,0.0,-1.0068,-1.1838,0.0,-1.1145,-1.0743,-1.0238,-0.8849,-0.8054,-0.8192,0.0,0.0,0.0,0.0,0.0,0.0,0.0,0.0,0.0,0.0,0.0,0.0,0.0,0.0,0.0,0.0,0.0,0.0,0.0,0.0,0.0,0.0,0.0,0.0,0.0,0.0,0.0,0.0,0.0,0.0,0.0,0.0,0.0,0.0,0.0,0.0,0.0,0.0,0.0,0.0,0.0,0.0,0.0,0.0,0.0,0.0,0.0,0.0,0.0,0.0,0.0,0.0,0.0,0.0,0.0,0.0,0.0,0.0,0.0,0.0,0.0,0.0,0.0,0.0,0.0,0.0,0.0,0.0,0.0,0.0,0.0,0.0,0.0,0.0,0.0,0.0,0.0,0.0,0.0,0.0,0.0,0.0,0.0,0.0,0.0,0.0,0.0,0.0,0.0,0.0,0.0,0.0,0.0,0.0,0.0,0.0,0.0,0.0,0.0,0.0,0.0,0.0,-0.5459,-0.9465,-1.1632,0.0,-0.9979,-0.968,-0.9034,-0.7907,-0.7181,-0.7007,0.0,0.0,0.0,0.0,0.0,0.0,0.0,0.0,0.0,0.0,0.0,0.0,0.0,0.0,0.0,0.0,0.0,0.0,0.0,0.0,0.0,0.0,0.0,0.0,0.0,0.0,0.0,0.0,0.0,0.0,0.0,0.0,0.0,0.0,0.0,0.0,0.0,0.0,0.0,0.0,0.0,0.0,0.0,0.0,0.0,0.0,0.0,0.0,0.0,0.0,0.0,0.0,0.0,0.0,0.0,0.0,0.0,0.0,0.0,0.0,0.0,0.0,0.0,0.0,0.0,0.0,0.0,0.0,0.0,0.0,0.0,0.0,0.0,0.0,0.0,0.0,0.0,0.0,0.0,0.0,0.0,0.0,0.0,0.0,0.0,0.0,0.0,0.0,0.0,0.0,0.0,0.0,0.0,0.0,0.0,0.0,0.0,0.0,0.0,0.0,0.0,0.0,-1.1297,-1.1953,-1.0882,-0.9294,-0.927,-0.9195,-0.8732,-0.7461,-0.6256,0.0,0.0,0.0,0.0,0.0,0.0,0.0,0.0,0.0,0.0,0.0,0.0,0.0,0.0,0.0,0.0,0.0,0.0,0.0,0.0,0.0,0.0,0.0,0.0,0.0,0.0,0.0,0.0,0.0,0.0,0.0,0.0,0.0,0.0,0.0,0.0,0.0,0.0,0.0,0.0,0.0,0.0,0.0,0.0,0.0,0.0,0.0,0.0,0.0,0.0,0.0,0.0,0.0,0.0,0.0,0.0,0.0,0.0,0.0,0.0,0.0,0.0,0.0,0.0,0.0,0.0,0.0,0.0,0.0,0.0,0.0,0.0,0.0,0.0,0.0,0.0,0.0,0.0,0.0,0.0,0.0,0.0,0.0,0.0,0.0,0.0,0.0,0.0,0.0,0.0,0.0,0.0,0.0,0.0,0.0,0.0,0.0,0.0,0.0,0.0,0.0,0.0,0.0,-1.1004,-1.1905,-1.1512,-1.0112,-0.9368,-0.8893,-0.8634,-0.7443,-0.6609,-0.6394,0.0,0.0,0.0,0.0,0.0,0.0,0.0,0.0,0.0,0.0,0.0,0.0,0.0,0.0,0.0,0.0,0.0,0.0,0.0,0.0,0.0,0.0,0.0,0.0,0.0,0.0,0.0,0.0,0.0,0.0,0.0,0.0,0.0,0.0,0.0,0.0,0.0,0.0,0.0,0.0,0.0,0.0,0.0,0.0,0.0,0.0,0.0,0.0,0.0,0.0,0.0,0.0,0.0,0.0,0.0,0.0,0.0,0.0,0.0,0.0,0.0,0.0,0.0,0.0,0.0,0.0,0.0,0.0,0.0,0.0,0.0,0.0,0.0,0.0,0.0,0.0,0.0,0.0,0.0,0.0,0.0,0.0,0.0,0.0,0.0,0.0,0.0,0.0,0.0,0.0,0.0,0.0,0.0,0.0,0.0,0.0,0.0,0.0,0.0,0.0,0.0,0.0,-1.0817,-1.1978,-1.1869,-1.0399,-0.945,-0.882,-0.8585,-0.7429,-0.673,-0.6781,0.0,0.0,0.0,0.0,0.0,0.0,0.0,0.0,0.0,0.0,0.0,0.0,0.0,0.0,0.0,0.0,0.0,0.0,0.0,0.0,0.0,0.0,0.0,0.0,0.0,0.0,0.0,0.0,0.0,0.0,0.0,0.0,0.0,0.0,0.0,0.0,0.0,0.0,0.0,0.0,0.0,0.0,0.0,0.0,0.0,0.0,0.0,0.0,0.0,0.0,0.0,0.0,0.0,0.0,0.0,0.0,0.0,0.0,0.0,0.0,0.0,0.0,0.0,0.0,0.0,0.0,0.0,0.0,0.0,0.0,0.0,0.0,0.0,0.0,0.0,0.0,0.0,0.0,0.0,0.0,0.0,0.0,0.0,0.0,0.0,0.0,0.0,0.0,0.0,0.0,0.0,0.0,0.0,0.0,0.0,0.0,0.0,0.0,0.0,0.0,0.0,0.0,-1.0654,-1.2165,-1.2147,-1.0566,-0.9655,-0.8994,-0.8609,-0.7471,-0.6776,-0.6738,0.0,0.0,0.0,0.0,0.0,0.0,0.0,0.0,0.0,0.0,0.0,0.0,0.0,0.0,0.0,0.0,0.0,0.0,0.0,0.0,0.0,0.0,0.0,0.0,0.0,0.0,0.0,0.0,0.0,0.0,0.0,0.0,0.0,0.0,0.0,0.0,0.0,0.0,0.0,0.0,0.0,0.0,0.0,0.0,0.0,0.0,0.0,0.0,0.0,0.0,0.0,0.0,0.0,0.0,0.0,0.0,0.0,0.0,0.0,0.0,1.6732,1.8184,0.0,0.0,0.0,0.0,0.0,0.0,0.0,0.0,0.0,0.0,0.0,0.0,0.0,0.0,0.0,0.0,0.0,0.0,0.0,0.0,0.0,0.0,0.0,0.0,0.0,0.0,0.0,0.0,0.0,0.0,0.0,0.0,0.0,0.0,0.0,0.0,0.0,0.0,0.0,0.0,-1.0199,-1.2662,-1.3444,-1.1927,-1.0487,-0.9502,-0.9092,-0.7978,-0.7501,-0.7837,-0.6566,0.0,0.0,0.0,0.0,0.0,0.0,0.0,0.0,0.0,0.0,0.0,0.0,0.0,0.0,0.0,0.0,0.0,0.0,0.0,0.0,0.0,0.0,0.0,0.0,0.0,0.0,0.0,0.0,0.0,0.0,0.0,0.0,0.0,0.0,0.0,0.0,0.0,0.0,0.0,0.0,0.0,0.0,0.0,0.0,0.0,0.0,0.0,0.0,0.0,0.0,0.0,0.0,0.0,0.0,0.0,0.0,0.0,0.0,0.0,1.6843,1.7179,0.0,0.0,0.0,0.0,0.0,0.0,0.0,0.0,0.0,0.0,0.0,0.0,0.0,0.0,0.0,0.0,0.0,0.0,0.0,0.0,0.0,0.0,0.0,0.0,0.0,0.0,0.0,0.0,0.0,0.0,0.0,0.0,0.0,0.0,0.0,0.0,0.0,0.0,0.0,0.0,-0.9994,-1.3037,-1.4242,-1.3037,-1.1475,-0.998,-0.8685,-0.7849,-0.7181,-0.6686,-0.5597,0.0,0.0,0.0,0.0,0.0,0.0,0.0,0.0,0.0,0.0,0.0,0.0,0.0,0.0,0.0,0.0,0.0,0.0,0.0,0.0,0.0,0.0,0.0,0.0,0.0,0.0,0.0,0.0,0.0,0.0,0.0,0.0,0.0,0.0,0.0,0.0,0.0,0.0,0.0,0.0,0.0,0.0,0.0,0.0,0.0,0.0,0.0,0.0,0.0,0.0,0.0,0.0,0.0,1.9298,1.943,1.9792,1.9684,1.9509,1.9195,1.7293,1.6402,1.6303,1.6396,0.0,0.0,0.0,0.0,0.0,0.0,0.0,0.0,0.0,0.0,0.0,0.0,0.0,0.0,0.0,0.0,0.0,0.0,0.0,0.0,0.0,0.0,0.6752,0.6369,0.495,0.4641,0.8267,0.0,0.0,0.0,0.0,0.0,0.0,0.0,0.0,0.0,0.0,0.0,-0.9461,-1.3063,-1.4641,-1.3629,-1.1957,-1.0194,-0.8387,-0.7591,-0.6649,-0.5381,-0.4768,-0.4391,0.0,0.0,0.0,0.0,0.0,0.0,0.0,0.0,0.0,0.0,0.0,0.0,0.0,0.0,0.0,0.0,0.0,0.0,0.0,0.0,0.0,0.0,0.0,0.0,0.0,0.0,0.0,0.0,0.0,0.0,0.0,0.0,2.1856,2.124,0.0,0.0,0.0,0.0,0.0,0.0,0.0,0.0,0.0,0.0,0.0,0.0,0.0,2.1667,2.0969,2.0587,2.0254,1.9911,1.9268,1.898,1.9005,1.8377,1.8405,1.8914,1.798,0.0,1.6946,1.5487,0.0,0.0,0.0,0.0,0.0,0.0,0.0,0.0,0.0,0.0,0.0,0.0,0.0,0.0,0.0,0.0,0.0,0.0,0.0,0.0,0.0,0.0,0.5815,0.3908,0.3254,0.3263,0.3908,0.6355,0.8619,0.9111,1.0516,1.2937,0.0,0.0,0.0,0.0,0.0,0.0,-0.7709,-1.2298,-1.4502,-1.2976,-1.0825,-0.9457,-0.9473,-0.774,-0.6657,-0.6568,-0.5971,-0.5431,-0.512,-0.5074,0.0,0.0,0.0,0.0,0.0,0.0,0.0,0.0,0.0,0.0,0.0,0.0,0.0,0.0,0.0,0.0,0.0,0.0,0.0,0.0,0.0,0.0,0.0,0.0,0.0,0.0,0.0,0.0,0.0,2.2246,2.2754,2.0979,2.3064,2.4099,0.0,0.0,0.0,0.0,0.0,0.0,0.0,0.0,0.0,2.1069,2.1138,2.0899,2.0255,2.0238,2.0365,2.0679,2.0356,2.0416,2.081,2.0466,2.0577,2.1011,2.0111,1.9328,1.8569,1.6618,1.5781,1.5731,0.0,0.0,0.0,0.0,1.7582,1.7277,1.6891,1.6381,1.5703,1.4843,0.0,0.0,0.0,0.0,0.0,0.0,0.0,0.9123,0.6981,0.5819,0.4801,0.3362,0.3078,0.3149,0.3095,0.4211,0.5398,0.5838,0.6612,0.8408,1.207,1.2532,0.0,0.0,0.0,0.2506,-0.8402,-1.2904,-1.4194,-1.1812,-1.0489,-0.9139,-0.7576,-0.6611,-0.5821,-0.5209,-0.414,-0.3398,-0.3005,-0.2513,-0.1708,0.0,0.0,0.0,0.0,0.0,0.0,0.0,0.0,0.0,0.0,0.0,0.0,0.0,0.0,0.0,0.0,0.0,0.0,0.0,0.0,0.0,0.0,0.0,0.0,0.0,0.0,0.0,0.0,2.2035,2.2876,2.0705,2.2954,2.3996,0.0,0.0,0.0,0.0,0.0,0.0,2.2875,2.2772,2.221,2.1078,2.1161,2.0922,2.0228,2.0449,2.0827,2.1289,2.1429,2.1703,2.2119,2.2248,2.2423,2.2553,2.1687,2.0827,1.9882,1.7714,1.6513,1.6104,1.6355,1.6675,1.7049,1.776,1.778,1.7328,1.7016,1.6458,1.5591,1.4118,1.2733,1.1547,1.1113,0.0,0.0,0.0,0.0,0.7601,0.6135,0.4899,0.3902,0.3327,0.3273,0.3337,0.3256,0.3245,0.3344,0.3507,0.3697,0.4794,0.793,0.96,0.0,0.4654,0.7561,0.5741,-0.6737,-1.1,-1.2467,-1.1397,-1.0206,-0.8648,-0.6665,-0.6042,-0.5138,-0.3754,-0.2219,-0.0992,-0.0206,0.0521,0.1888,0.4049,0.0,0.0,0.0,0.0,0.0,0.0,0.0,0.0,0.0,0.0,0.0,0.0,0.0,0.0,0.0,0.0,0.0,0.0,0.0,0.0,0.0,0.0,0.0,0.0,0.0,0.0,0.0,0.0,0.0,2.017,2.1976,0.0,0.0,0.0,0.0,2.3119,2.3172,2.3204,2.3363,2.4012,2.3715,2.2248,2.2892,2.2909,2.2153,2.2198,2.199,2.1591,2.2023,2.2023,2.1653,2.2102,2.231,2.231,2.1799,2.1161,2.0296,1.7893,1.6946,1.6933,1.6152,1.6585,1.7593,1.699,1.6779,1.6684,1.6298,1.5466,1.4571,1.4621,1.2943,1.0681,0.9727,0.9468,0.0,0.0,0.6119,0.6181,0.4016,0.3316,0.3204,0.3344,0.3506,0.3575,0.3561,0.3666,0.3687,0.3458,0.3375,0.4278,0.7339,0.0,0.9397,0.8024,0.6305,0.3783,-0.0075,-0.4237,-0.8395,-1.2474,-0.9657,-0.7854,-0.8584,-0.6878,-0.4956,-0.3086,-0.1154,0.0757,0.2622,0.2756,0.4551,0.8292,0.5765,0.0,0.0,0.0,0.0,0.0,0.0,0.0,0.0,0.0,0.0,0.0,0.0,0.0,0.0,0.0,0.0,0.0,0.0,0.0,0.0,0.0,0.0,0.0,0.0,0.0,0.0,0.0,0.0,2.3088,2.4983,0.0,2.3755,2.3431,2.3414,2.3639,2.3449,2.3566,2.4059,2.4372,2.4043,2.3026,2.2967,2.2587,2.1877,2.1591,2.1368,2.1211,2.1374,2.1374,2.1222,2.1384,2.1463,2.1463,2.1289,2.0893,2.0313,1.9421,1.8573,1.777,1.7228,1.7305,1.7707,1.7926,1.7782,1.7462,1.7398,1.6417,1.4951,1.331,1.1546,0.9987,0.9338,0.882,0.8129,0.6584,0.6346,0.6174,0.4608,0.3836,0.3262,0.2518,0.3013,0.3585,0.3581,0.3622,0.3649,0.3636,0.3636,0.3971,0.5144,0.5811,0.5651,0.3985,0.4919,0.4085,-0.0664,-0.1289,-0.2349,-0.503,-0.4506,-0.4036,-0.4104,-0.346,-0.1672,0.145,0.1207,0.2674,0.6478,0.5738,0.6634,0.9501,0.8735,0.8095,0.0,0.0,0.0,0.0,0.0,0.0,0.0,0.0,0.0,0.0,0.0,0.0,0.0,0.0,0.0,0.0,0.0,0.0,0.0,0.0,0.0,0.0,0.0,0.0,0.0,0.0,2.3805,2.4733,2.6195,2.6421,2.4585,2.3934,2.3735,2.3977,2.3795,2.4066,2.4979,2.5013,2.4613,2.3686,2.3489,2.2987,2.2075,2.1962,2.1737,2.1448,2.1371,2.1261,2.1111,2.1032,2.1,2.1,2.065,2.0365,2.0029,1.969,1.9,1.8173,1.8317,1.8346,1.8411,1.9,1.9,1.8608,1.8021,1.6823,1.5212,1.2896,1.1167,0.9842,0.9415,0.8653,0.7666,0.6668,0.6459,0.6164,0.4772,0.403,0.3376,0.2583,0.3028,0.3638,0.3681,0.3635,0.3665,0.3808,0.3829,0.3856,0.4063,0.4412,0.4543,0.4133,0.6154,0.6564,0.3405,0.3528,0.3504,0.2324,0.1592,0.1001,0.067,0.0731,0.2071,0.5132,0.3978,0.5152,0.9438,0.8871,0.9765,1.2517,1.0173,0.7944,0.5835,0.0,0.0,0.0,0.0,0.0,0.0,0.0,0.0,0.0,0.0,0.0,0.0,0.0,0.0,0.0,0.0,0.0,0.0,0.0,0.0,0.0,0.0,0.0,1.9527,2.1495,2.3214,2.4776,2.5269,2.4967,2.3582,2.3103,2.3248,2.42,2.4244,2.4763,2.59,2.6,2.5396,2.4196,2.455,2.4197,2.3056,2.3431,2.3179,2.2269,2.2092,2.1729,2.1281,2.1049,2.0937,2.087,1.9933,1.9528,1.9441,1.8448,1.8036,1.8129,1.9199,1.9624,1.963,2.0071,2.0212,1.9871,1.7839,1.6363,1.518,1.3606,1.1852,1.0317,0.9895,0.8892,0.7679,0.6415,0.6272,0.6119,0.4367,0.3773,0.3624,0.3618,0.3621,0.3677,0.387,0.3773,0.368,0.3789,0.3768,0.3849,0.4143,0.4988,0.6523,0.9167,0.9938,0.0,1.2617,1.0459,0.8776,0.8803,0.813,0.6966,0.5174,0.5208,0.6005,0.7632,0.6942,0.7926,1.1221,1.1765,1.3715,1.7437,1.0161,0.528,0.3122,0.0,0.0,0.0,0.0,0.0,0.0,0.0,0.0,0.0,0.0,0.0,0.0,0.0,0.0,0.0,0.0,0.0,0.0,0.0,0.0,0.0,0.0,1.7734,2.0394,2.2323,2.4283,2.6539,2.7286,2.7455,2.6983,2.6432,2.5963,2.5681,2.5638,2.5598,2.5414,2.54,2.5447,2.5478,2.439,2.3802,2.3862,2.2794,2.2114,2.1842,2.1813,2.1446,2.0839,2.0385,1.9933,1.9417,1.8332,1.7852,1.7786,1.7098,1.6576,1.6363,1.7936,1.8517,1.8511,1.867,1.819,1.7264,1.5853,1.4926,1.4129,1.3262,1.1926,1.0664,1.0525,0.9575,0.8326,0.7125,0.6702,0.6119,0.4182,0.3946,0.4267,0.423,0.4242,0.4179,0.4019,0.3926,0.3604,0.2598,0.2383,0.2749,0.398,0.5553,0.7126,0.8705,0.9917,1.0812,1.1319,1.0973,1.0621,1.0509,1.1099,1.0423,0.7744,0.6054,0.6721,1.0312,0.7369,0.642,0.8577,0.9092,1.1239,1.537,1.2832,0.9742,0.0,0.0,0.0,0.0,0.0,0.0,0.0,0.0,0.0,0.0,0.0,0.0,0.0,0.0,0.0,0.0,0.0,0.0,0.0,0.0,0.0,0.0,1.7836,1.9132,2.1415,2.2915,2.4588,2.6801,2.7686,2.7962,2.7611,2.7255,2.6719,2.5931,2.5846,2.5686,2.5314,2.5274,2.5453,2.5815,2.506,2.4536,2.4318,2.3594,2.2964,2.2395,2.1903,2.1449,2.1054,1.9921,1.9058,1.8461,1.7244,1.6638,1.6454,1.5875,1.545,1.5324,0.0,0.0,0.0,0.0,1.7018,1.6113,1.5017,1.4266,1.3723,1.3076,1.1923,1.0819,1.0805,0.9851,0.8586,0.7517,0.7391,0.6999,0.4619,0.5149,0.5991,0.4782,0.4527,0.4421,0.4264,0.4222,0.3934,0.3086,0.2336,0.0,0.3204,0.5483,0.782,0.9851,1.12,1.2341,1.3392,1.3529,1.3368,1.3049,1.3411,1.2832,1.0725,0.8921,0.0,0.0,0.0,0.7294,0.9661,1.1287,0.0,0.0,0.0,1.1446,0.5476,-0.3567,0.0,0.0,-1.1999,-1.1955,0.0,0.0,0.0,0.0,0.0,0.0,0.0,0.0,0.0,0.0,0.0,0.0,0.0,0.0,0.0,0.0,1.9401,2.0703,2.2402,2.3283,2.4431,2.6154,2.6982,2.7119,2.654,2.6494,2.612,2.5242,2.5349,2.5382,2.5229,2.5326,0.0,0.0,0.0,2.5587,2.4579,2.4867,2.4447,2.339,2.2198,2.1605,2.1407,1.953,1.8363,1.7798,1.6448,1.5646,1.5251,1.4618,1.4418,1.4602,1.5676,1.6051,1.5983,1.6473,1.6324,1.572,1.4818,0.0,0.0,1.2998,1.1865,1.0776,1.0712,0.9824,0.8652,0.777,0.8051,0.7913,0.523,0.6409,0.7665,0.5085,0.4515,0.4522,0.4477,0.4258,0.3987,0.3996,0.2697,0.1738,0.2122,0.5186,0.8605,1.1539,1.3011,1.4629,1.6914,1.6692,1.6257,1.5913,1.5437,0.0,1.4101,1.3093,1.1897,1.0467,0.9217,0.9831,1.2671,1.5522,1.8802,2.2551,1.7628,1.0797,0.2159,-0.5414,-1.3614,-2.2025,-1.4333,-1.1167,0.0,0.0,0.0,0.0,0.0,0.0,0.0,0.0,0.0,0.0,0.0,0.0,0.0,0.0,0.0,2.0573,2.1412,2.2115,2.2888,2.3663,2.4525,2.5481,2.5728,2.5781,2.5669,2.5701,2.52,2.4063,2.4934,2.5093,2.4083,2.5023,2.5747,2.6209,2.4932,2.4505,2.515,2.3811,2.3197,2.3389,2.2464,0.0,2.0673,1.9168,1.7938,1.6928,1.5042,1.4206,1.4011,1.2803,1.2677,1.3379,1.4568,1.499,1.4979,1.5107,1.477,1.4201,1.3997,1.3596,1.2949,1.2231,1.1483,1.0721,1.0167,0.9449,0.0,0.8599,0.78,0.6614,0.4923,0.4888,0.521,0.4645,0.4498,0.4522,0.4477,0.2563,0.0891,0.0894,0.056,0.0728,0.2014,0.6179,0.9703,1.0614,1.3086,1.5284,1.6428,1.6265,1.6618,1.8071,1.7885,1.779,1.8153,1.7412,1.6089,1.3988,1.3911,1.3656,1.2956,1.4132,1.6258,1.9597,1.438,0.7432,-0.1113,-1.0219,-1.7905,-2.3848,-1.4471,-1.1928,0.0,0.0,0.0,0.0,0.0,0.0,0.0,0.0,0.0,0.0,0.0,1.8377,0.0,0.0,2.0983,2.2126,2.2182,2.2201,2.247,2.247,2.3037,2.4667,2.5175,2.5398,2.5398,2.5157,2.4713,2.4115,2.4408,2.4462,2.4101,2.4673,2.5293,2.5879,2.5006,2.4612,2.481,2.3892,2.3163,2.265,2.1874,2.1033,2.0049,1.825,1.6933,1.5926,1.4086,1.3114,1.2711,1.1969,1.196,1.2346,1.2978,1.3694,1.4408,1.415,1.4059,1.3872,1.3468,1.3272,1.3125,1.255,1.1648,1.0718,1.0384,0.9595,0.8804,0.8804,0.8246,0.7214,0.5035,0.4497,0.4525,0.4488,0.4505,0.4522,0.4484,0.2713,0.0857,0.0115,-0.0,0.0235,0.0999,0.4007,0.7578,1.1271,1.3922,1.6014,1.7523,1.7828,1.818,1.8892,1.9403,1.983,1.9977,1.9136,1.7935,1.6424,1.6096,1.5818,1.5424,1.6407,1.8601,2.1943,1.7428,1.0398,0.0933,-0.7398,-1.5644,-2.3425,-1.3538,-1.0483,0.0,0.0,0.0,0.0,0.0,0.0,0.0,0.0,1.8784,1.9496,1.9999,2.0564,2.1481,2.2096,2.2648,2.3213,2.2627,2.2139,2.2044,2.1302,2.1411,2.3323,2.4084,2.4403,2.4323,2.3941,2.3566,2.3441,2.3261,2.3313,2.376,2.4163,2.4515,2.492,2.4798,2.4456,2.3863,2.356,2.2857,2.1765,2.1073,2.0253,1.926,1.7324,1.5936,1.4919,1.3442,1.2332,1.1643,1.1643,1.1721,1.1888,1.1873,1.2802,1.4021,1.3568,1.3691,1.3993,1.3381,1.3224,1.3272,1.2803,1.1772,1.0689,1.0543,0.9722,0.8871,0.8811,0.8678,0.8003,0.5521,0.4736,0.4615,0.4525,0.4511,0.4551,0.4485,0.354,0.2133,0.0356,-0.0,-0.0,-0.0,0.1487,0.5022,1.1775,1.4512,1.6656,1.8937,1.9569,1.9748,1.9547,2.0602,2.1313,2.13,2.0759,2.0017,1.9091,1.8621,1.8585,1.9114,2.0661,2.2851,2.5817,2.1729,1.4376,0.3816,-0.3606,-1.2684,-2.2824,-1.4352,-1.0456,1.1991,1.2164,0.0,1.461,1.5542,1.6897,0.0,0.0,2.0322,2.1649,2.1995,2.2071,2.2196,2.2673,2.3238,2.3803,2.349,2.3024,2.2638,2.1786,2.1068,2.1019,2.11,2.094,2.0568,2.0559,2.0363,1.9773,2.0803,2.1399,2.1304,2.3111,2.387,2.3272,2.272,2.2344,2.2182,2.0878,2.0591,2.1284,2.0455,1.9334,1.8095,1.7015,1.5644,1.4022,1.311,1.2241,1.1425,1.1425,1.187,1.2601,1.2602,1.3149,1.3847,1.3174,1.3462,1.4099,1.4014,1.3516,1.2813,1.1923,1.1049,1.0236,0.9577,0.9288,0.9109,0.8871,0.8354,0.7623,0.6599,0.5726,0.4918,0.4584,0.4619,0.4727,0.4546,0.4339,0.3385,0.0553,-0.0,-0.0,-0.0,0.1502,0.4656,1.0382,1.3883,1.689,1.97,1.9909,2.0213,2.1186,2.1904,2.2579,2.3326,2.4712,2.4995,2.3546,2.4329,2.4513,2.3857,2.5979,2.7526,2.8212,2.2938,1.4693,0.3532,-0.4957,-1.43,-2.412,-2.0626,-1.6306,1.1939,0.0,0.0,0.0,1.5954,1.7572,1.9672,2.0656,2.1354,2.2261,2.2686,2.3001,2.3329,2.3394,2.33,0.0,2.2616,2.2026,2.1539,2.046,1.9557,1.9125,1.9069,1.942,2.0224,1.9522,1.9094,1.9232,1.9386,1.9656,1.993,2.1549,2.2282,2.197,2.1958,2.1808,2.1472,2.1175,2.0497,1.9501,1.9414,1.8433,1.6737,1.5846,1.4656,1.3198,1.2022,1.1259,1.0943,1.0943,1.1025,1.1259,1.1964,1.2603,1.3241,1.3787,1.3931,1.3955,1.3832,1.3399,1.2733,1.1874,1.1106,1.0462,0.9963,0.9667,0.9492,0.9492,0.9082,0.8528,0.7877,0.6832,0.5868,0.5536,0.5049,0.4348,0.3395,0.3887,0.3603,0.0598,-0.0,-0.0,-0.0,0.1473,0.43,0.9002,1.2867,1.6178,1.9039,2.0225,2.1251,2.2494,2.288,2.3514,2.4629,2.6123,2.6917,2.6733,2.7697,2.8122,2.7736,2.9515,3.0751,3.1262,2.5693,1.9776,1.365,0.033,-0.845,-1.2877,-1.5587,-1.5727,1.1437,0.0,0.0,1.409,1.5725,1.7458,1.923,2.0499,2.162,2.2773,2.2977,2.3047,2.3512,2.3085,2.2685,2.2525,2.184,2.124,2.0843,1.9657,1.8635,1.8242,1.7986,1.8282,1.9389,1.839,1.773,1.7978,1.7526,1.7688,1.8638,1.9705,2.0517,2.1042,2.138,2.1364,2.1041,2.0722,1.9758,1.827,1.8308,1.7485,1.5746,1.4724,1.3578,1.2363,1.1336,1.0638,1.039,1.0395,1.0252,1.0133,1.1347,1.205,1.2563,1.4113,1.4365,1.3891,1.3738,1.3247,1.2682,1.2017,1.1361,1.0703,1.0442,1.0184,0.9938,1.0039,0.9697,0.9238,0.8705,0.7536,0.6506,0.6287,0.5461,0.4264,0.2584,0.2751,0.2636,0.0424,-0.0,-0.0,-0.0,0.2411,0.505,0.695,1.0751,1.4756,1.847,2.0735,2.2286,2.2916,2.3458,2.4282,2.5678,2.6769,2.7792,2.8716,2.9678,3.0332,3.0493,3.191,3.2912,3.3338,2.8789,2.4299,1.9989,0.6385,-0.1766,-0.4842,-1.2097,-1.4914,0.0,0.0,1.1951,1.3208,1.4371,1.6154,1.944,2.0178,2.1008,2.36,2.3033,2.2047,2.2058,2.1307,2.0983,2.1912,2.1543,2.1272,2.1335,2.0144,1.9123,1.8634,1.7901,1.7236,0.0,1.6237,1.5632,1.4697,1.4624,1.5402,1.7162,1.7673,1.8753,2.0555,2.0601,2.0633,2.0595,1.8285,1.7537,1.8279,1.7237,1.6285,1.5295,1.3853,1.262,1.1511,1.1511,1.0787,0.9768,0.9953,0.9875,0.9883,1.1212,1.1636,1.1797,1.3844,1.4301,1.3934,1.3917,1.3386,1.2656,1.2302,1.1621,1.0933,1.0647,1.0595,1.0491,1.0166,0.9693,0.919,0.8719,0.7663,0.6621,0.6452,0.586,0.4763,0.2632,0.1119,0.0145,-0.0,-0.0,-0.0,-0.0,0.4756,0.7406,0.3784,0.7187,1.2362,1.843,2.1584,2.2934,2.2108,2.3441,2.4925,2.6329,2.7041,2.7977,2.927,3.0328,3.114,3.1728,3.3166,3.3844,3.3689,3.1914,2.6584,1.7578,1.1609,0.3948,-0.5294,-1.4303,-1.5633,1.0327,0.0,1.2508,1.4219,1.528,1.6308,1.8379,1.9778,2.081,2.145,2.1125,2.0665,2.042,1.8818,1.7831,1.8562,1.8471,1.8715,1.9629,1.8647,1.7796,1.7645,1.696,0.0,0.0,0.0,0.0,1.4444,1.4912,1.5324,1.5435,1.6908,1.8109,1.901,1.9108,1.9118,1.9069,1.7798,1.6842,1.6183,1.5511,1.5155,1.505,1.3704,1.2856,1.2403,1.0778,0.9818,0.9442,0.9535,0.9414,0.932,1.0509,1.1365,1.1954,1.2668,1.326,1.371,1.3783,1.3367,1.267,1.1877,1.1633,1.148,1.1,1.0974,1.1083,1.0801,1.0701,1.0624,1.0268,0.8983,0.7889,0.7975,0.6689,0.5183,0.4448,0.2048,-0.0,-0.0,-0.0,-0.0,-0.0,0.277,0.5498,0.6958,1.0629,1.53,2.1062,2.2618,2.3059,2.2763,2.3195,2.4137,2.566,2.6342,2.7455,2.9291,3.114,3.2196,3.2273,3.4072,3.4849,3.4361,3.3099,3.0521,2.6566,1.7357,1.0651,0.6181,-0.2685,-0.6865,1.0969,1.1795,1.304,1.4885,1.5555,1.6199,1.7671,1.8726,1.9343,1.9222,1.8803,1.8291,1.7777,1.6281,1.534,1.5991,1.6319,1.6877,1.8083,1.7536,1.7058,1.7311,1.6581,1.5627,0.0,0.0,0.0,1.3975,1.4523,1.4904,1.4889,1.5584,1.6619,1.7912,1.7991,1.7961,1.7926,1.6966,1.5963,1.486,1.4122,1.4014,1.4216,1.2939,1.2054,1.1621,0.9985,0.9091,0.8706,0.871,0.8676,0.8513,0.9768,1.0534,1.1204,1.212,1.2839,1.3374,1.362,1.3348,1.2871,1.228,1.2138,1.2137,1.1636,1.1539,1.1491,1.1256,1.1256,1.1263,1.0728,0.9557,0.8477,0.8425,0.6368,0.4687,0.5529,0.2691,-0.0,-0.0,-0.0,-0.0,-0.0,0.1688,0.4299,0.7694,1.1071,1.5188,2.0564,2.2251,2.2994,2.3082,2.3269,2.388,2.4921,2.559,2.6857,2.8903,3.1065,3.2352,3.2666,3.4459,3.5243,3.4926,3.3844,3.2382,3.0492,2.1709,1.6251,1.3863,0.5387,0.0388,1.2037,1.2576,1.3641,1.5154,1.551,1.5763,1.723,1.7033,1.6695,1.7245,1.623,1.5101,0.0,0.0,1.3437,1.4284,1.4915,1.5657,1.6752,1.661,1.6718,0.0,0.0,0.0,0.0,0.0,0.0,1.35,0.0,1.4165,1.5212,1.3985,1.4479,1.7082,1.7113,1.7031,1.7022,1.5624,1.4695,1.4327,1.3078,1.2696,1.2914,1.1587,1.0439,0.9379,0.9275,0.8656,0.763,0.7733,0.7733,0.7733,0.8965,0.9383,0.9657,1.2021,1.2903,1.3063,1.348,1.3481,1.3264,1.3251,1.3047,1.2803,1.2486,1.2137,1.189,1.1556,1.147,1.123,1.0171,0.9278,0.8478,0.7861,0.5185,0.3385,0.5541,0.2822,-0.0,-0.0,-0.0,-0.0,-0.0,0.165,0.3682,0.5931,0.8481,1.1985,1.721,2.0654,2.2707,2.2994,2.3617,2.4073,2.4326,2.5005,2.6295,2.8301,3.0209,3.1782,3.2949,3.4298,3.511,3.523,3.4092,3.208,2.9168,2.4372,2.0371,1.7102,0.9353,0.5586,1.394,1.4327,1.4967,1.6699,1.6369,1.5772,1.5903,1.6001,1.5779,1.518,1.4343,1.3526,0.0,0.0,0.0,1.2755,1.2065,0.0,1.5861,1.43,0.0,1.6212,0.0,1.4073,1.4661,1.5402,0.0,0.0,1.5042,1.522,1.512,1.4609,1.4597,1.5104,1.4324,1.3791,1.351,1.247,1.205,1.2262,1.194,1.1945,1.2175,1.082,1.0134,0.9797,0.8759,0.8144,0.7939,0.7939,0.7939,0.7939,0.8247,0.8965,0.9892,1.0538,1.1798,1.3265,1.342,1.3736,1.4056,1.3613,1.3412,1.3366,1.3085,1.2896,1.2808,1.2546,1.2466,1.2131,1.0654,0.9775,0.899,0.7968,0.574,0.3437,0.1962,0.0723,-0.0,-0.0,-0.0,-0.0,-0.0,0.0401,0.2045,0.5759,0.6857,0.9569,1.5757,1.896,2.1219,2.2538,2.3435,2.4226,2.4833,2.5673,2.6762,2.8316,3.0649,3.2311,3.2968,3.3768,3.4265,3.4393,3.2076,2.9787,2.7577,2.3434,1.9336,1.5307,1.1919,0.8578,1.5589,1.6279,1.7034,1.8187,1.7834,1.6839,1.5889,1.5464,1.4833,1.3143,1.2284,0.0,1.0936,0.0,0.0,0.0,0.0,0.0,1.3123,1.2176,1.1962,0.0,1.3246,0.0,1.4085,1.4539,1.4659,0.0,1.5224,1.5246,1.4212,1.3931,1.356,1.2928,1.2026,1.1641,1.1759,1.1149,1.1155,1.1477,1.0861,1.0757,1.1051,0.9693,0.9072,0.9072,0.8347,0.8038,0.8038,0.8038,0.8038,0.8038,0.8038,0.8453,0.9176,0.9797,1.0829,1.2083,1.3256,1.3755,1.4166,1.4829,1.4467,1.3871,1.4287,1.3803,1.3171,1.3001,1.2878,1.2385,1.0574,0.9776,0.9111,0.7597,0.6122,0.4732,0.329,0.2246,0.1251,0.0167,-0.0,-0.0,-0.0,-0.0,0.0799,0.315,0.5112,0.7601,1.1304,1.6048,2.0413,2.3891,2.3945,2.3952,2.4535,2.5388,2.6436,2.783,3.0122,3.1864,3.2772,3.3416,3.3644,3.3331,3.1193,2.9003,2.6826,2.3186,1.9717,1.6385,1.3594,1.0599,1.7328,1.8258,1.9287,1.9595,1.9273,1.824,1.6428,1.5291,1.3926,1.1496,0.0,0.9833,0.923,0.8897,0.8711,0.8717,0.0,0.9283,1.0181,1.0382,1.0774,1.1773,1.175,1.2139,1.3488,1.3776,1.3872,1.3686,1.4634,1.4488,1.2946,1.2648,1.2124,1.1076,1.0187,1.0007,1.0726,1.0635,1.0739,1.1051,0.99,0.9502,0.9738,0.8567,0.8062,0.7995,0.8058,0.8055,0.8079,0.8072,0.8082,0.8099,0.8099,0.8092,0.8185,0.9326,0.9929,1.0384,1.2571,1.3452,1.3778,1.595,1.5511,1.443,1.5459,1.4663,1.3328,1.3328,1.3154,1.2417,1.0285,0.969,0.9063,0.709,0.6519,0.6413,0.6608,0.53,0.3433,0.1388,0.0427,-0.0,-0.0,-0.0,-0.0,-0.0,0.3114,0.5702,0.6228,1.2567,1.9226,2.4767,2.4242,2.3586,2.399,2.4715,2.5728,2.7189,2.9088,3.0795,3.2234,3.2841,3.2846,3.2189,3.0734,2.8958,2.6802,2.3392,2.0764,1.8834,1.4912,1.2145,1.9889,1.9979,1.9686,2.0738,1.9613,1.7961,1.6718,1.4961,0.0,0.0,1.0137,0.923,0.8945,0.8415,0.0,0.9215,0.0,0.0,0.0,0.0,0.9083,0.0,0.0,0.0,0.0,0.0,0.0,0.0,1.3454,1.3504,1.2123,1.2062,1.1609,1.0756,0.8882,0.8115,0.8553,0.835,0.835,0.8556,0.835,0.8334,0.86,0.822,0.8073,0.8284,0.8042,0.8133,0.8286,0.8248,0.8299,0.8404,0.8404,0.8464,0.8395,0.8713,0.9338,1.0207,1.0672,1.2124,1.4004,1.5278,1.5271,1.485,1.505,1.4754,1.4271,1.399,1.3741,1.2907,1.0466,0.9938,0.9488,0.7267,0.6774,0.6759,0.6619,0.6525,0.6384,0.5977,0.2714,-0.0,-0.0,-0.0,-0.0,-0.0,0.0663,0.233,0.5854,1.0405,1.478,1.8846,2.2317,2.4267,2.4186,2.488,2.5807,2.6884,2.8366,2.9619,3.0411,3.069,3.1039,3.1452,2.9581,2.8372,2.7891,2.3879,2.1404,2.0183,1.6813,1.4175,1.9265,1.9943,2.0576,2.1203,1.9678,1.7664,1.6008,0.0,0.0,0.0,0.8287,0.7924,0.818,0.0,0.0,0.0,0.0,0.0,0.0,0.0,0.0,0.0,0.0,0.0,0.0,0.0,0.0,1.1015,1.1613,1.1663,1.0979,1.0212,0.9644,0.9275,0.8247,0.7836,0.8038,0.7939,0.7939,0.8038,0.8038,0.8147,0.8336,0.808,0.8133,0.8357,0.8271,0.8199,0.8407,0.8387,0.8394,0.8458,0.8458,0.8503,0.8539,0.8485,0.881,0.9328,0.9932,1.0946,1.2129,1.4005,1.4926,1.5315,1.5965,1.5397,1.4467,1.4354,1.399,1.3104,1.0798,1.0151,0.9601,0.7253,0.6837,0.6899,0.6766,0.6929,0.7095,0.7101,0.328,-0.0,-0.0,-0.0,-0.0,-0.0,-0.0,0.0744,0.2798,0.6644,1.0806,1.4945,1.9614,2.2523,2.2588,2.3918,2.5153,2.6077,2.7059,2.8146,2.9444,2.905,2.9142,2.9821,2.8563,2.7996,2.8131,2.5059,2.3138,2.2123,1.8732,1.5912,1.8095,1.9439,2.0935,2.0935,1.9333,1.7194,1.5178,1.2916,0.0,0.0,0.6691,0.6804,0.7563,0.0,0.0,0.0,0.0,0.0,0.0,0.0,0.0,0.0,0.0,0.0,0.0,0.0,0.0,0.9807,0.9794,0.9835,0.9726,0.8711,0.8113,0.8029,0.8012,0.7999,0.7985,0.7955,0.8038,0.8038,0.8038,0.814,0.833,0.8135,0.818,0.8469,0.8343,0.8383,0.8568,0.8503,0.8535,0.8592,0.8592,0.8545,0.8608,0.8623,0.8484,0.8513,0.9517,0.99,1.038,1.2394,1.4005,1.5298,1.6476,1.5765,1.4551,1.4534,1.3926,1.2911,1.1202,1.0519,0.9725,0.7687,0.7051,0.7007,0.6939,0.7065,0.7111,0.7101,0.3223,-0.0,-0.0,-0.0,-0.0,-0.0,-0.0,-0.0,-0.0,0.2892,0.6659,1.1257,1.6236,1.9668,2.0892,2.2457,2.3956,2.5222,2.5744,2.6804,2.8569,2.8012,2.801,2.8673,2.8451,2.8365,2.8369,2.6539,2.5013,2.3764,2.0487,1.7603,1.837,1.9339,1.9679,1.9679,1.8346,1.6481,1.4639,0.0,0.0,0.7937,0.7047,0.6804,0.7563,0.7128,0.7005,0.0,0.0,0.7438,0.0,0.0,0.0,0.0,0.0,0.0,0.0,0.0,0.0,0.8758,0.8691,0.8674,0.8643,0.8567,0.835,0.8007,0.8037,0.7978,0.8037,0.8009,0.8038,0.8038,0.8038,0.8123,0.8286,0.8302,0.8355,0.8479,0.8455,0.8598,0.8722,0.8704,0.8773,0.891,0.891,0.8906,0.8899,0.8816,0.8712,0.8513,0.8568,0.9275,1.0004,1.0285,1.2037,1.4236,1.5292,1.5291,1.49,1.4592,1.3461,1.233,1.2155,1.1354,1.0284,0.8979,0.7967,0.7319,0.7119,0.7272,0.7275,0.7118,0.3258,-0.0,-0.0,-0.0,-0.0,-0.0,-0.0,-0.0,-0.0,0.0339,0.218,0.6489,1.1578,1.6288,2.0333,2.0671,2.1955,2.4838,2.5111,2.584,2.7385,2.8069,2.8677,2.9275,3.0104,3.0147,2.9265,2.8252,2.6574,2.4178,2.173,1.9208,1.5548,1.697,1.8411,1.8411,1.6695,1.4547,1.3153,0.0,0.8377,0.6197,0.5542,0.555,0.6249,0.6145,0.6361,0.7711,0.7373,0.0,0.0,0.0,0.0,0.0,0.0,0.0,0.0,0.0,0.906,0.8782,0.8873,0.9277,1.0105,0.9093,0.8418,0.8394,0.836,0.8275,0.8341,0.8072,0.8038,0.8038,0.8038,0.8163,0.8397,0.8334,0.8458,0.8757,0.8645,0.8716,0.9044,0.8917,0.8941,0.9054,0.894,0.894,0.894,0.894,0.8823,0.8626,0.8565,0.8759,0.9176,1.0635,1.1858,1.288,1.3885,1.4556,1.4951,1.4572,1.3468,1.2117,1.1489,0.9875,0.8418,0.8113,0.769,0.7424,0.7412,0.7366,0.741,0.7406,0.3353,-0.0,-0.0,-0.0,0.1002,0.3873,0.1873,-0.0,-0.0,-0.0,0.0604,0.2371,0.6961,1.1688,1.6277,1.832,2.0343,2.2505,2.3276,2.4606,2.6748,2.5914,2.6213,2.8126,2.8151,2.8362,2.8594,2.8238,2.7432,2.6184,2.3538,2.1361,1.2592,1.4185,1.5903,1.5905,1.4141,1.2184,0.0,0.0,0.6864,0.4927,0.4519,0.468,0.5378,0.5324,0.5655,0.7122,0.7025,0.6894,0.7306,0.0,0.0,0.0,0.0,0.0,0.0,0.0,0.8804,0.8838,0.914,0.9794,1.1194,1.0027,0.9282,0.9365,0.9312,0.9395,0.9498,0.9053,0.8733,0.8733,0.8285,0.8218,0.8421,0.8442,0.88,0.9483,0.9016,0.945,1.0459,0.9432,0.9396,0.9853,0.9168,0.894,0.894,0.894,0.8826,0.8639,0.856,0.8424,0.8556,1.0216,1.1258,1.1989,1.262,1.3812,1.4829,1.407,1.3322,1.2614,1.1428,0.9643,0.8205,0.838,0.793,0.7522,0.7546,0.7607,0.7567,0.76,0.4405,0.1515,0.1116,0.111,0.2201,0.5589,0.3773,0.1615,0.0179,-0.0,-0.0,-0.0,0.2961,0.6973,1.1781,1.5368,1.8249,2.032,2.1534,2.3501,2.6408,2.5215,2.5574,2.7945,2.7944,2.8101,2.8591,2.8875,2.8521,2.7424,2.5163,2.2872,1.0192,1.1128,1.1605,1.1744,1.0702,0.9436,0.0,0.0,0.5718,0.4712,0.4519,0.468,0.5378,0.4948,0.4956,0.6372,0.6885,0.7186,0.7439,0.0,0.0,0.0,0.0,0.0,0.0,0.0,0.9086,0.8947,0.9123,0.9807,1.1084,1.1063,1.1065,1.1155,1.1173,1.1406,1.1849,1.0992,1.052,1.052,0.9004,0.8272,0.8282,0.8574,0.9507,1.08,0.9708,1.086,1.3471,1.0451,1.0086,1.1355,0.9625,0.894,0.894,0.894,0.8826,0.8669,0.8584,0.8392,0.8247,0.8141,0.9763,1.1889,1.1594,1.3176,1.4616,1.2825,1.3194,1.3844,1.2569,1.1526,1.0755,1.076,0.9255,0.7726,0.763,0.7829,0.7957,0.7706,0.6382,0.4942,0.3767,0.3521,0.3567,0.3671,0.5568,0.5307,0.0626,-0.0,-0.0,-0.0,-0.0,0.2142,0.7265,1.1649,1.5484,1.8725,2.0339,2.2757,2.6479,2.7014,2.8053,2.9779,3.0683,3.067,2.9767,3.0731,2.9891,2.7502,2.6334,2.3557,0.8494,0.9601,1.0654,1.0654,0.9894,0.8775,0.7733,0.6724,0.5709,0.4712,0.4519,0.457,0.4787,0.4625,0.4827,0.5888,0.6643,0.7192,0.7355,0.0,0.0,0.0,0.0,0.0,0.0,0.0,0.9164,0.9253,0.9192,0.9798,1.119,1.2177,1.2724,1.2636,1.2764,1.2889,1.3036,1.1354,1.0627,1.0807,0.9114,0.8428,0.8525,0.8622,0.9529,1.1054,1.0716,1.1629,1.3406,1.1481,1.0944,1.1257,0.9648,0.9059,0.894,0.894,0.8826,0.8783,0.8587,0.9075,0.9853,1.0471,1.1884,1.3216,1.3077,1.3963,1.4586,1.2825,1.2088,1.1596,1.0256,0.932,0.8607,0.86,0.8203,0.7836,0.7836,0.7939,0.8021,0.7953,0.7505,0.7093,0.6713,0.6472,0.6286,0.6253,0.67,0.6204,0.3576,0.1341,-0.0,-0.0,-0.0,0.1341,0.4617,0.8956,1.288,1.6088,1.9153,2.1688,2.3596,2.4127,2.4911,2.5968,2.6551,2.6689,2.6426,2.743,2.7192,2.5625,2.5002,2.3187,0.0,0.8487,0.9353,0.9437,0.8871,0.0,0.0,0.6722,0.6021,0.5411,0.5281,0.5281,0.5281,0.5281,0.5368,0.5647,0.6685,0.737,0.7014,0.0,0.0,0.0,0.0,0.0,0.0,0.9226,0.9315,0.9322,0.9264,0.9857,1.1198,1.2082,1.2778,1.3311,1.4194,1.4595,1.4401,1.2185,1.11,1.1274,0.928,0.8494,0.8647,0.8697,0.9652,1.1113,1.1163,1.2112,0.0,1.1972,1.1373,1.1202,0.9648,0.9049,0.894,0.894,0.894,0.8903,0.8655,0.9031,0.9811,1.0915,1.2457,1.3915,1.4155,1.4166,1.3983,1.3367,1.2721,1.2048,1.1398,1.0125,0.9112,0.9028,0.8474,0.7935,0.7939,0.8038,0.8041,0.7959,0.7959,0.8011,0.7955,0.7744,0.765,0.7438,0.7217,0.6721,0.5801,0.395,0.269,0.2712,0.27,0.3309,0.4798,0.7482,1.0524,1.3932,1.6775,1.9239,2.1237,2.1787,2.2676,2.3953,2.3877,2.4106,2.453,2.5355,2.5114,2.3937,2.4293,2.3408,0.0,0.0,0.0,0.0,0.0,0.0,0.0,0.6914,0.0,0.6588,0.6588,0.6593,0.6608,0.6598,0.6381,0.5758,0.7099,0.7877,0.0,0.0,0.0,0.0,0.0,0.0,0.873,0.9259,0.9476,0.9191,0.9279,0.9792,1.0911,1.1,1.1742,1.3004,1.5324,1.6236,1.5573,1.3011,1.1745,1.1765,0.9536,0.8532,0.8501,0.8767,0.9739,1.1113,1.1281,1.2179,1.3511,1.1977,1.1418,1.1346,0.955,0.8947,0.894,0.894,0.894,0.8916,0.8764,0.8676,0.8796,1.0039,1.2092,1.4171,1.4787,1.4053,1.3185,1.4167,1.4414,1.4445,1.4821,1.3213,1.1526,1.1495,0.9858,0.8247,0.8247,0.824,0.8233,0.8237,0.8237,0.8273,0.8083,0.809,0.8023,0.7745,0.7513,0.7322,0.7315,0.7195,0.7075,0.7122,0.7101,0.7098,0.7088,0.7241,0.8769,1.2096,1.3709,1.5922,1.8947,1.9659,2.0834,2.2822,2.2192,2.2375,2.3381,2.3861,2.3359,2.2098,2.3745,2.3774,0.8294,0.0,0.6948,0.6998,0.6894,0.6827,0.0,0.0,0.6588,0.0,0.0,0.0,0.0,0.6759,0.6749,0.7126,0.81,0.8567,0.788,0.0,0.0,0.0,0.0,0.0,0.9055,0.9283,0.9405,0.9334,0.915,0.9119,0.9379,1.0457,1.1082,1.1103,1.3453,1.4286,1.3407,1.1434,1.0511,1.0578,0.9033,0.8481,0.8689,0.8673,0.9625,1.1117,1.1101,1.2001,1.3247,1.1842,1.1249,1.1071,0.9622,0.9035,0.894,0.894,0.894,0.8916,0.8764,0.9301,1.0309,1.2397,1.4058,1.5373,1.5305,1.4903,1.453,1.4495,1.397,1.3423,1.3568,1.2707,1.1772,1.1686,1.1279,1.0947,1.0947,1.0959,1.0984,1.1016,1.0998,1.0965,1.0933,1.0942,1.0849,1.0733,1.0083,0.9473,0.9359,0.8,0.7125,0.7116,0.7095,0.7098,0.7088,0.8434,0.9494,1.0037,1.2305,1.3806,1.4256,1.5619,1.6417,1.6653,1.6733,1.6913,1.7164,1.8198,1.8546,1.827,2.0721,2.1577,0.8699,0.8209,0.761,0.761,0.761,0.761,0.761,0.0,0.0,0.0,0.0,0.0,0.0,0.0,0.0,0.8039,0.8578,0.0,0.0,0.0,0.0,0.0,0.0,0.0,0.0,0.9395,0.9456,0.9388,0.9167,0.9008,0.8944,0.9699,0.9945,0.9774,1.0886,1.2019,1.2886,1.1516,1.0955,1.0965,0.9071,0.8304,0.8562,0.8742,0.9282,1.0082,1.0773,1.1206,1.1266,1.1224,1.0757,1.0033,0.9353,0.9008,0.894,0.894,0.894,0.8927,0.8845,0.99,1.1453,1.2662,1.4242,1.5798,1.5437,1.5279,1.5186,1.495,1.4443,1.3997,1.4345,1.3643,1.2811,1.2753,1.2299,1.1903,1.1865,1.187,1.193,1.1874,1.1884,1.1925,1.1908,1.182,1.1727,1.1673,1.1351,1.091,1.0686,1.0476,0.9466,0.7336,0.7728,0.7875,0.716,0.8565,0.9589,0.9916,1.1232,1.2201,1.2504,1.3169,1.3311,1.2726,1.3907,1.3926,1.2754,1.3405,1.4436,1.5879,1.8543,2.0048,0.8804,0.8838,0.8858,0.8917,0.8956,0.8956,0.9061,0.0,0.0,0.0,0.0,0.0,0.0,0.0,0.0,0.0,0.0,0.0,0.0,0.0,0.0,0.0,0.0,0.0,0.9303,0.9452,0.9486,0.9357,0.9205,0.9066,0.8947,0.894,0.8937,0.8823,0.8253,0.9253,1.1973,1.1128,1.0733,1.0693,0.8431,0.7614,0.7881,0.8534,0.892,0.8937,1.0218,1.0002,0.9047,1.0241,1.0025,0.894,0.894,0.894,0.894,0.894,0.9054,0.9282,0.9168,1.0687,1.2621,1.1843,1.3507,1.5724,1.5298,1.5298,1.5442,1.5438,1.5261,1.5194,1.5678,1.4981,1.4236,1.4236,1.3299,1.247,1.2485,1.2536,1.248,1.2506,1.2464,1.2475,1.2478,1.2288,1.2221,1.2252,1.2427,1.2436,1.2161,1.3345,1.267,0.8578,0.9072,0.9082,0.7749,0.8536,0.9666,1.0778,1.0697,1.0956,1.1724,1.137,1.0787,1.0046,1.1549,1.1329,0.9171,0.9718,1.1335,1.4076,1.7103,1.899,0.8956,0.8985,0.9214,0.9582,0.9666,0.9814,1.0364,0.0,0.0,0.0,0.0,0.0,0.0,0.0,0.0,0.0,0.0,0.0,0.0,0.0,0.0,0.0,0.0,0.9117,0.9018,0.9137,0.9211,0.9191,0.9052,0.896,0.894,0.894,0.8879,0.8754,0.6436,0.5556,0.6559,0.5646,0.525,0.5163,0.4765,0.5156,0.6158,0.7858,0.8722,0.894,0.9151,0.9151,0.894,0.9154,0.9154,0.894,0.894,0.894,0.894,0.894,0.9739,1.0773,1.0544,1.2128,1.3856,1.1114,1.278,1.5615,1.445,1.476,1.5494,1.5657,1.5568,1.5402,1.5685,1.5622,1.5514,1.5514,1.5305,1.521,1.5185,1.5172,1.5235,1.5197,1.521,1.5235,1.5159,1.5159,1.5045,1.4865,1.5028,1.5208,1.5147,1.4945,1.4369,1.3153,1.1449,1.0356,1.0091,1.0265,1.0869,1.1986,1.1123,1.0265,0.9492,0.8368,0.779,0.7674,0.5988,0.5354,0.5568,0.8245,1.0163,1.1359,1.6245,1.8498,0.8956,0.8905,0.9166,0.987,1.021,1.0454,1.059,0.0,0.0,0.0,0.0,0.0,0.0,0.0,0.0,0.0,0.0,0.0,0.0,0.0,0.0,0.0,0.0,0.9042,0.9052,0.9113,0.9154,0.9154,0.9018,0.894,0.894,0.894,0.8913,0.8855,0.7454,0.6027,0.4605,0.5611,0.4675,0.1886,0.3458,0.4589,0.5186,0.7636,0.8783,0.894,0.894,0.8893,0.8821,0.8906,0.8889,0.8821,0.8906,0.894,0.9051,0.9743,1.1004,1.2093,1.1065,1.2385,1.4057,1.0983,1.2203,1.4667,1.41,1.4236,1.4766,1.5615,1.5638,1.5491,1.5758,1.5832,1.5832,1.5832,1.5832,1.5832,1.5832,1.5832,1.5832,1.5832,1.5832,1.5732,1.5623,1.5451,1.5304,1.5156,1.5001,1.5001,1.5308,1.4879,1.4434,1.4153,1.2557,1.1295,1.0611,1.0611,1.0778,1.1381,1.1466,1.0788,0.9253,0.7826,0.6505,0.5196,0.4111,0.4372,0.6065,0.8345,0.9918,1.0697,1.4986,1.6857,0.9211,0.8957,0.9045,0.9789,0.0,1.071,1.1015,0.0,0.0,0.0,0.0,0.0,0.0,0.0,0.0,0.0,0.0,0.0,0.0,0.0,1.0673,0.9719,0.9222,0.8981,0.9093,0.9103,0.9103,0.9103,0.9001,0.894,0.894,0.894,0.8947,0.8853,0.8746,0.7723,0.5642,0.7669,0.6396,0.2018,0.3714,0.4866,0.559,0.7844,0.885,0.8937,0.8899,0.8818,0.872,0.8825,0.8801,0.871,0.8876,0.9165,0.9614,1.1034,1.2534,1.3509,1.2154,1.3172,1.4523,1.1471,1.2012,1.3876,1.3551,1.3588,1.4028,1.5082,1.5298,1.5399,1.5724,1.5832,1.5832,1.5832,1.5832,1.5832,1.5832,1.5832,1.5832,1.5832,1.5718,1.5681,1.5504,1.5258,1.5026,1.498,1.4535,1.4342,1.473,1.4369,1.4063,1.4128,1.3268,1.2248,1.1128,1.1305,1.1305,1.1052,1.1815,1.1649,1.0212,0.886,0.7173,0.4982,0.4628,0.5697,0.8208,0.9459,1.0487,1.1455,1.4434,1.5876,0.9909,0.9468,0.9145,0.8951,0.9418,0.0,1.2397,1.2663,0.0,0.0,0.0,0.0,0.0,0.0,0.0,0.0,0.0,0.0,0.0,0.0,1.276,1.2979,1.055,0.8944,0.8954,0.8954,0.8954,0.8954,0.8944,0.894,0.894,0.894,0.894,0.894,0.884,0.9406,1.0371,1.0556,0.9766,0.7899,0.5633,0.595,0.8631,0.8749,0.885,0.893,0.8788,0.872,0.871,0.8676,0.8655,0.8555,0.8749,0.9739,1.1088,1.2564,1.3879,1.4878,1.4539,1.5197,1.5729,1.271,1.2743,1.3712,1.2401,1.2667,1.3507,1.3921,1.4551,1.5184,1.5622,1.5832,1.5832,1.5832,1.5832,1.5832,1.5832,1.5832,1.5832,1.5832,1.5569,1.5531,1.5698,1.5383,1.5036,1.5021,1.481,1.4514,1.4226,1.4122,1.4115,1.4122,1.401,1.347,1.2242,1.3209,1.3398,1.2295,1.226,1.2242,1.2072,1.1729,1.0682,0.9113,0.7607,0.8333,1.1429,1.1609,1.241,1.382,1.5466,1.656,1.0115,0.994,0.9932,0.9255,0.0,0.0,0.0,0.0,0.0,0.0,0.0,0.0,0.0,0.0,0.0,0.0,0.0,0.0,0.0,1.4063,1.2851,1.2073,1.0131,0.894,0.894,0.894,0.894,0.894,0.8852,0.8798,0.8798,0.8798,0.8798,0.8798,0.9455,1.0106,1.0548,1.1406,1.1583,1.0984,0.9078,0.9055,1.0626,0.94,0.8896,0.8794,0.8733,0.8608,0.8448,0.8581,0.8458,0.8381,0.8699,1.0315,1.2592,1.3098,1.4645,1.6187,1.5169,1.5452,1.577,1.2835,1.2262,1.2538,1.2038,1.1589,1.1535,1.3129,1.3232,1.34,1.5298,1.5717,1.5615,1.573,1.5832,1.5832,1.5832,1.5832,1.5832,1.5832,1.569,1.5597,1.5308,1.5089,1.4897,1.4521,1.4375,1.4277,1.4088,1.4088,1.4088,1.4088,1.4088,1.3568,1.2363,1.3398,1.3574,1.2381,1.2966,1.3379,1.3379,1.2595,1.1821,1.123,0.9986,0.9822,1.1094,1.1936,1.2602,1.2996,1.5163,1.5481,1.0498,1.0248,1.0089,0.0,0.0,0.0,0.0,0.0,0.0,0.0,0.0,0.0,0.0,0.0,0.0,0.0,0.0,0.0,1.5368,1.446,1.3372,1.1969,1.0457,0.9372,0.8937,0.894,0.894,0.894,0.8798,0.871,0.871,0.8665,0.8638,0.8638,0.9785,1.0672,1.125,1.2319,1.3328,1.4043,1.2352,1.1854,1.2246,1.0363,0.9501,0.9341,0.8869,0.8496,0.8279,0.8401,0.837,0.8398,0.8534,1.02,1.2592,1.253,1.4079,1.6131,1.5039,1.5298,1.5832,1.3815,1.2881,1.2443,1.1998,1.1056,1.0529,1.1888,1.1827,1.2031,1.4543,1.5089,1.5082,1.5622,1.5832,1.5832,1.5832,1.5832,1.594,1.6367,1.6271,1.6324,1.6388,1.5979,1.5422,1.5005,1.4532,1.4195,1.4095,1.4088,1.4088,1.4088,1.4088,1.3743,1.2979,1.3659,1.3672,1.2745,1.3568,1.4088,1.4088,1.3613,1.3347,1.3379,1.2559,1.2366,1.2717,1.3004,1.3433,1.3917,1.4549,1.4195,1.119,1.0253,0.0,0.0,0.0,0.0,0.0,0.0,0.0,0.0,0.0,0.0,0.0,0.0,0.0,0.0,1.6132,1.67,1.6707,1.5933,1.4871,1.3475,1.1964,1.0558,0.9044,0.8933,0.8933,0.8933,0.8794,0.8706,0.8706,0.8564,0.8479,0.8479,0.9719,1.125,1.3016,1.3707,1.5132,1.7134,1.5126,1.3851,1.3259,1.1751,1.1,1.0809,0.9166,0.8401,0.8258,0.831,0.835,0.8514,0.8366,0.9386,1.0843,1.0728,1.2269,1.4503,1.4285,1.4975,1.5825,1.5825,1.4874,1.3588,1.2102,1.1468,1.1077,1.0048,1.026,1.1234,1.3363,1.3837,1.4236,1.5507,1.5832,1.5832,1.5832,1.5832,1.6157,1.7465,1.7416,1.7728,1.9248,1.799,1.6843,1.6755,1.5465,1.4409,1.4122,1.4088,1.4088,1.4088,1.4088,1.4088,1.4088,1.4088,1.3937,1.3618,1.3946,1.4088,1.4082,1.5137,1.5696,1.5696,1.5621,1.6188,1.7253,1.5072,1.5155,1.7172,1.3833,1.2905,1.1749,0.0,0.0,0.0,0.0,0.0,0.0,0.0,0.0,0.0,0.0,0.0,0.0,0.0,0.0,1.5418,1.5959,1.6473,1.6673,1.5611,1.4355,1.3003,1.1545,1.0083,0.8721,0.8618,0.8618,0.8618,0.8482,0.8401,0.8401,0.836,0.8333,0.8333,1.0556,1.189,1.2461,1.4547,1.596,1.6533,1.6149,1.5273,1.4149,1.2695,1.1435,1.0425,0.9863,0.9041,0.8106,0.8062,0.8244,0.8368,0.8343,0.9267,1.0716,1.07,1.2202,1.4211,1.3295,1.3613,1.445,1.445,1.2987,1.1267,1.1586,1.0355,0.8885,0.9322,0.9113,0.9224,1.1594,1.1731,1.1962,1.5082,1.5832,1.5832,1.5832,1.6483,1.7246,1.7582,1.8339,1.8778,1.8717,1.8304,1.751,1.6231,1.5661,1.5077,1.4179,1.4088,1.4088,1.4088,1.4088,1.4088,1.4088,1.4088,1.4021,1.3937,1.4079,1.3968,1.3776,1.4979,1.5696,1.5696,1.6413,1.6985,1.7342,1.6073,1.5738,1.6116,1.3709,1.2319,1.1599,0.0,0.0,0.0,0.0,0.0,0.0,0.0,0.0,0.0,0.0,0.0,0.0,0.0,0.0,1.5578,1.6066,1.6466,1.6526,1.6017,1.4867,1.2812,1.1775,1.0543,0.8689,0.8482,0.8482,0.8482,0.835,0.8272,0.8272,0.8211,0.8177,0.8177,1.0757,1.2183,1.2274,1.4863,1.6152,1.6273,1.6333,1.5855,1.4955,1.3234,1.1972,1.0965,0.9791,0.8811,0.8038,0.8038,0.8041,0.8144,0.8144,0.8862,0.9746,0.9638,1.0936,1.2589,1.1687,1.248,1.3876,1.3876,1.2811,1.1482,1.1626,1.0116,0.8484,0.8574,0.8254,0.8247,1.0319,1.0485,1.0817,1.4279,1.5082,1.519,1.5724,1.6809,1.7799,1.8303,1.9362,2.019,2.007,1.9635,1.886,1.7441,1.6762,1.5764,1.4323,1.4434,1.4552,1.4166,1.4088,1.4088,1.4088,1.4088,1.4082,1.3899,1.3997,1.3935,1.3581,1.5338,1.6355,1.6355,1.7819,1.8621,1.863,1.7704,1.6964,1.6273,1.4267,1.2549,0.0,0.0,0.0,0.0,0.0,0.0,0.0,0.0,0.0,0.0,0.0,0.0,0.0,1.5798,1.5531,1.5825,1.6299,1.654,1.6306,1.6714,1.5986,1.3067,1.2639,1.1513,0.8852,0.8546,0.8442,0.8442,0.8323,0.8248,0.8248,0.8116,0.8038,0.8038,1.0386,1.1948,1.2348,1.4491,1.587,1.6226,1.5959,1.5832,1.575,1.3657,1.2532,1.2039,0.9183,0.8038,0.8038,0.8038,0.8038,0.8038,0.8038,0.8141,0.8247,0.8041,0.8965,1.0173,0.9887,1.1414,1.3502,1.3568,1.3402,1.2942,1.1693,1.0368,0.9129,0.7889,0.7733,0.8144,0.9486,0.9797,1.0452,1.3036,1.3749,1.4236,1.5399,1.677,1.8149,1.9289,2.0544,2.1624,2.233,2.151,2.0504,1.9498,1.8113,1.6464,1.4524,1.5,1.5253,1.4321,1.4166,1.4088,1.4088,1.4088,1.399,1.3698,1.3899,1.3968,1.3694,1.5873,1.7172,1.7342,1.9353,2.0489,2.0566,1.952,1.847,1.7415,1.5148,1.3562,0.0,0.0,0.0,0.0,0.0,0.0,0.0,0.0,0.0,0.0,0.0,0.0,0.0,1.5825,1.5832,1.6126,1.6086,1.6079,1.6253,1.6179,1.5493,1.3854,1.2671,1.1396,0.9817,0.8729,0.8136,0.8136,0.8106,0.8089,0.8089,0.8058,0.8038,0.8038,0.9608,1.0895,1.2021,1.3522,1.4879,1.5925,1.5858,1.5832,1.5737,1.4286,1.2448,1.0448,0.8741,0.8038,0.8038,0.8038,0.8038,0.8038,0.8038,0.8041,0.8041,0.8041,0.8862,0.9892,0.8795,0.9533,1.0803,1.0844,1.0001,0.9194,0.9788,0.9129,0.8077,0.7697,0.7733,0.8041,0.835,0.835,0.895,1.1382,1.3017,1.3927,1.4135,1.6462,1.8768,1.9384,2.0983,2.2227,2.2043,2.1797,2.0795,1.8168,1.6812,1.5854,1.5403,1.4782,1.4713,1.5328,1.4636,1.4088,1.4088,1.4088,1.4082,1.399,1.4082,1.4055,1.3995,1.535,1.6437,1.7261,1.863,1.9766,2.0566,1.952,1.8877,1.855,1.6269,1.4698,0.0,0.0,0.0,0.0,0.0,0.0,0.0,0.0,0.0,0.0,0.0,0.0,0.0,1.5832,1.5879,1.6039,1.6052,1.6046,1.6059,1.6052,1.53,1.3216,1.2334,1.1165,0.9213,0.8432,0.8038,0.8038,0.8038,0.8038,0.8038,0.8038,0.8038,0.8038,0.9312,1.0583,1.1848,1.3199,1.4493,1.5625,1.5625,1.5165,1.4465,1.4052,1.2813,1.0872,0.9425,0.8852,0.8913,0.8227,0.7953,0.8038,0.8038,0.8038,0.8038,0.8038,0.845,0.8965,0.8247,0.8862,0.9875,0.9917,0.9259,0.8653,0.9251,0.8629,0.7733,0.763,0.7836,0.8141,0.8556,0.866,0.906,1.0777,1.2005,1.3168,1.4101,1.6312,1.8079,1.8221,2.011,2.1521,2.0881,2.0633,1.9972,1.8353,1.7658,1.7082,1.6519,1.644,1.648,1.6467,1.595,1.5437,1.4944,1.486,1.458,1.3911,1.3848,1.3874,1.3874,1.4434,1.5546,1.7253,1.8948,2.0001,2.0566,2.0518,2.0178,1.9612,1.8943,1.7792,0.0,0.0,0.0,0.0,0.0,0.0,0.0,0.0,0.0,0.0,0.0,0.0,1.5832,1.5832,1.5832,1.5832,1.6039,1.6112,1.5865,1.6039,1.5215,1.2549,1.2042,1.097,0.8528,0.8137,0.8038,0.8038,0.8038,0.8038,0.8038,0.8014,0.8001,0.8001,0.9045,1.029,1.1737,1.2885,1.402,1.5035,1.5035,1.4441,1.3399,1.3836,1.3267,1.1727,1.0519,1.0079,1.0125,0.8948,0.8523,0.8627,0.8627,0.8535,0.8347,0.8347,0.8244,0.8038,0.8038,0.8656,0.9466,0.9649,0.9506,0.9292,0.9457,0.8914,0.8167,0.822,0.8393,0.8744,0.9587,0.9807,0.9936,1.0646,1.1179,1.2134,1.3944,1.543,1.6425,1.6505,1.8642,2.0269,1.967,1.9038,1.855,1.8452,1.8567,1.8311,1.7407,1.8091,1.8417,1.7631,1.7243,1.6645,1.5673,1.5431,1.4835,1.3568,1.3527,1.3567,1.3567,1.3723,1.4793,1.6823,1.8955,2.0245,2.0566,2.1517,2.1552,2.0671,2.1686,2.1192,0.0,0.0,0.0,0.0,0.0,0.0,0.0,0.0,0.0,0.0,0.0,0.0,1.5832,1.5832,1.5832,1.5832,1.5865,1.5872,1.5838,1.5865,1.5287,1.3788,1.2624,1.1361,0.9899,0.8726,0.8038,0.8038,0.8038,0.8038,0.8038,0.7913,0.7841,0.7841,0.791,0.9055,1.1369,1.1554,1.2281,1.3447,1.3447,1.3894,1.4777,1.4856,1.3495,1.1179,1.1032,1.1041,1.1252,1.1115,1.1162,1.1361,1.1361,1.0721,0.9693,0.9693,0.8969,0.8038,0.8038,0.8041,0.8259,0.9246,0.9319,0.9302,1.0322,1.0465,1.043,1.0692,1.0765,1.0735,1.1145,1.0915,1.0702,1.0768,1.1009,1.1215,1.1572,1.2476,1.3668,1.5088,1.6993,1.8674,1.9434,1.8249,1.6954,1.6219,1.6733,1.72,1.7293,1.7408,1.787,1.8698,1.7048,1.5741,1.5405,1.4481,1.3673,1.326,1.326,1.3267,1.3267,1.418,1.4807,1.5164,1.6853,1.8709,2.0566,2.1517,2.1952,2.179,2.2829,2.2615,0.0,0.0,0.0,0.0,0.0,0.0,0.0,0.0,0.0,0.0,0.0,1.5638,1.5798,1.5832,1.5832,1.5832,1.5832,1.5832,1.5832,1.5832,1.5337,1.407,1.2721,1.1361,1.0096,0.8825,0.8038,0.8038,0.8038,0.8001,0.7916,0.7848,0.7773,0.7695,0.7631,0.8426,1.026,1.0246,1.112,1.2867,1.2768,1.3305,1.4476,1.4476,1.4014,1.32,1.2451,1.2155,1.2238,1.141,1.1226,1.1482,1.1607,1.1293,1.0844,1.0844,1.0435,0.9925,0.982,0.9641,0.9571,1.0085,1.0076,1.0029,1.058,1.0696,1.0828,1.0942,1.1042,1.125,1.1958,1.1456,1.0906,1.151,1.0737,0.9818,0.9753,1.086,1.2412,1.4462,1.5312,1.6354,1.8337,1.7351,1.6095,1.5756,1.654,1.7152,1.7317,1.8353,1.9301,1.9868,1.8347,1.6957,1.6293,1.4996,1.3906,1.3024,1.2953,1.2953,1.2953,1.3397,1.4,1.4794,1.6644,1.8243,1.9409,2.0903,2.2073,2.285,2.3891,2.4085,0.0,0.0,0.0,0.0,0.0,0.0,0.0,0.0,0.0,0.0,0.0,1.5264,1.5551,1.5732,1.5832,1.5832,1.5832,1.5832,1.5832,1.5832,1.5337,1.407,1.2721,1.1361,1.0096,0.8825,0.8038,0.8038,0.8004,0.7933,0.7818,0.7702,0.7594,0.7485,0.7411,0.7996,0.9234,0.9101,1.0178,1.241,1.1882,1.2512,1.3975,1.3975,1.4255,1.473,1.3605,1.3221,1.3273,1.2182,1.1923,1.22,1.2314,1.2208,1.1968,1.1911,1.1698,1.1323,1.1125,1.0977,1.0875,1.1167,1.1163,1.1095,1.1376,1.1602,1.1657,1.1717,1.177,1.1987,1.2493,1.1961,1.1226,1.1365,1.0106,0.8744,0.8308,0.9429,1.1194,1.3493,1.373,1.4391,1.6933,1.6125,1.5202,1.5282,1.6121,1.6912,1.7245,1.8982,2.0187,2.0186,1.9012,1.7735,1.648,1.5171,1.3887,1.2714,1.2632,1.2632,1.2632,1.2632,1.3106,1.4165,1.5897,1.7234,1.8122,2.0068,2.1639,2.2744,2.4253,2.5004,0.0,0.0,0.0,0.0,0.0,0.0,0.0,0.0,0.0,0.0,1.4168,1.4656,1.4957,1.5458,1.5832,1.5832,1.5832,1.5832,1.5832,1.5832,1.5337,1.407,1.2721,1.1361,1.0096,0.8825,0.8038,0.8038,0.7906,0.7821,0.7811,0.7407,0.7173,0.7166,0.6892,0.7318,0.8457,0.8448,0.9582,1.1703,1.0546,1.1322,1.3667,1.3667,1.3834,1.4128,1.403,1.4183,1.4455,1.4348,1.4672,1.516,1.4903,1.4214,1.3269,1.3032,1.2113,1.1099,1.1099,1.0995,1.098,1.2102,1.2386,1.2391,1.3607,1.3919,1.3953,1.4268,1.4174,1.3808,1.2963,1.2493,1.1673,0.9598,0.8927,0.8373,0.7268,0.7951,0.9466,1.1669,1.2302,1.3087,1.5379,1.466,1.3843,1.4126,1.4885,1.5836,1.7131,1.8364,1.9072,1.9047,1.8023,1.6717,1.5033,1.3881,1.2988,1.2351,1.2325,1.2325,1.2325,1.2325,1.2331,1.2419,1.3433,1.4918,1.7008,1.9052,2.0256,2.0661,2.3627,2.5004,0.0,0.0,0.0,0.0,0.0,0.0,0.0,0.0,0.0,0.0,1.326,1.3828,1.4315,1.4877,1.5277,1.5277,1.5277,1.5277,1.5277,1.5431,1.5358,1.4878,1.3109,1.1755,1.1268,0.9209,0.7892,0.7892,0.7756,0.759,0.739,0.7227,0.7054,0.6865,0.6756,0.6894,0.7189,0.7297,0.835,1.0385,1.0264,1.1447,1.3654,1.3841,1.3988,1.4088,1.4088,1.4142,1.4242,1.4242,1.4369,1.4563,1.4649,1.4464,1.4085,1.3989,1.3673,1.3288,1.3124,1.3003,1.2954,1.3424,1.355,1.3516,1.399,1.4088,1.4128,1.4243,1.415,1.403,1.3741,1.2395,1.0437,0.8054,0.7405,0.736,0.7523,0.7613,0.8183,1.0502,1.1679,1.2946,1.5267,1.5853,1.5822,1.5199,1.5934,1.654,1.6257,1.7268,1.7912,1.7934,1.7146,1.6124,1.4894,1.4028,1.3174,1.2378,1.2305,1.2305,1.2305,1.2305,1.2305,1.2305,1.2666,1.3652,1.5339,1.6817,1.8265,1.9748,2.1288,2.2988,0.0,0.0,0.0,0.0,0.0,0.0,0.0,0.0,0.0,0.0,1.2345,1.2939,1.3527,1.4041,1.4502,1.4897,1.4963,1.4963,1.4963,1.513,1.5251,1.5251,1.3526,1.2104,1.1723,0.9598,0.8115,0.774,0.7556,0.7356,0.7149,0.6997,0.678,0.6485,0.6424,0.6373,0.6322,0.6424,0.7315,0.9053,0.9727,1.1087,1.3007,1.353,1.3901,1.4088,1.4088,1.4088,1.4088,1.4088,1.4142,1.4242,1.4335,1.4436,1.4509,1.4409,1.4376,1.4349,1.4155,1.4088,1.4088,1.4088,1.4088,1.4088,1.4088,1.4088,1.4088,1.4088,1.3704,1.3334,1.3476,1.1954,0.9829,0.764,0.7343,0.7715,0.8282,0.7801,0.7947,1.0398,1.181,1.3329,1.5328,1.6601,1.6927,1.5861,1.6273,1.6519,1.5779,1.6254,1.6798,1.7245,1.676,1.6175,1.5576,1.4652,1.377,1.304,1.2573,1.2305,1.2305,1.2305,1.2305,1.2305,1.2305,1.2762,1.3703,1.4984,1.638,1.7815,1.9343,2.1314,0.0,0.0,0.0,0.0,0.0,0.0,0.0,0.0,0.0,0.0,1.1423,1.2083,1.2674,1.2959,1.3547,1.4696,1.4903,1.4917,1.4923,1.493,1.4943,1.495,1.3845,1.2558,1.1375,1.0071,0.878,0.7684,0.7302,0.7129,0.7129,0.6702,0.6325,0.6037,0.5884,0.5878,0.6027,0.6034,0.6633,0.7859,0.8851,1.0159,1.1742,1.273,1.354,1.4088,1.4088,1.4088,1.4088,1.4088,1.4255,1.4482,1.4195,1.4262,1.4476,1.4195,1.4088,1.4088,1.4088,1.4088,1.4088,1.4088,1.4088,1.4088,1.4088,1.4173,1.4173,1.4088,1.3043,1.1951,1.2237,1.1292,0.9897,0.8365,0.882,0.9544,0.9418,0.8758,0.8881,1.1272,1.2717,1.4042,1.5539,1.6675,1.7009,1.5944,1.5779,1.5779,1.5703,1.5508,1.5828,1.7139,1.7075,1.6929,1.6929,1.5669,1.4721,1.4478,1.3121,1.2372,1.2372,1.2298,1.2305,1.2305,1.2305,1.2305,1.2305,1.371,1.4471,1.4842,1.7852,2.0265,0.9559,0.0,0.0,0.0,0.0,0.0,0.0,0.0,0.0,0.9953,1.0514,1.1102,1.1683,1.2037,1.2418,1.2953,1.3407,1.3768,1.3975,1.4195,1.4409,1.4616,1.3638,1.2558,1.1375,0.9917,0.8563,0.7516,0.7054,0.682,0.682,0.6396,0.6115,0.603,0.5989,0.5986,0.603,0.6142,0.7126,0.8922,0.9381,1.0707,1.281,1.3266,1.3728,1.4088,1.4088,1.4088,1.4088,1.4088,1.4135,1.4202,1.4122,1.4135,1.4202,1.4115,1.4088,1.4088,1.4088,1.4088,1.4088,1.4088,1.4088,1.4088,1.4088,1.4846,1.5431,1.4426,1.4368,1.4099,1.2062,1.1192,1.0584,0.9269,0.9661,1.0524,1.1286,1.1742,1.2094,1.2356,1.4258,1.6158,1.7378,1.8758,1.9353,1.8221,1.806,1.7496,1.5944,1.6277,1.6579,1.6183,1.7234,1.764,1.6929,1.6665,1.6184,1.5487,1.4064,1.331,1.331,1.2666,1.2305,1.2305,1.2305,1.2305,1.2305,1.2893,1.3497,1.4088,1.6659,1.8299,0.0,0.0,0.0,0.0,0.0,0.0,0.9385,0.9269,0.923,0.0,0.9866,1.0334,1.0795,1.1223,1.1557,1.173,1.2158,1.2652,1.3193,1.3634,1.3921,1.3968,1.3525,1.2586,1.0907,0.989,0.8696,0.726,0.679,0.658,0.6519,0.6207,0.603,0.603,0.5911,0.5905,0.6027,0.6499,0.7401,0.8694,0.9653,1.0927,1.2393,1.308,1.3621,1.3901,1.3901,1.3901,1.3895,1.3774,1.3861,1.4153,1.4435,1.4386,1.4166,1.4573,1.4489,1.4088,1.4088,1.4088,1.4068,1.3941,1.3988,1.4126,1.4268,1.5027,1.5687,1.5109,1.5057,1.4508,1.1319,1.1188,1.1501,1.0229,1.0983,1.2078,1.2684,1.3886,1.4689,1.403,1.5522,1.713,1.8136,1.942,2.0034,1.9088,1.9036,1.839,1.6593,1.6661,1.685,1.6766,1.7424,1.7854,1.793,1.7458,1.6955,1.643,1.5073,1.4314,1.4314,1.3382,1.2879,1.2879,1.2519,1.2305,1.2305,1.2478,1.2987,1.3745,1.516,1.6375,0.0,0.0,0.0,0.0,0.0,0.0,0.9746,0.9526,0.9263,0.0,0.9452,0.9713,0.9973,1.0474,1.0848,1.0848,1.1116,1.165,1.264,1.316,1.342,1.3233,1.344,1.2575,1.0121,0.9918,0.9027,0.6864,0.6559,0.641,0.6345,0.6112,0.603,0.6176,0.5847,0.5827,0.6148,0.6981,0.7578,0.7977,0.9873,1.1023,1.148,1.2648,1.334,1.3559,1.3614,1.3594,1.3492,1.328,1.3487,1.4045,1.4844,1.4686,1.4119,1.5123,1.4873,1.4041,1.4041,1.4015,1.3948,1.3681,1.3774,1.4054,1.4439,1.5027,1.5597,1.5988,1.5425,1.3997,1.0757,1.1428,1.2536,1.126,1.2318,1.3745,1.381,1.5296,1.6456,1.5939,1.6703,1.757,1.8324,1.9108,1.9593,1.9219,1.9116,1.863,1.7585,1.6991,1.709,1.8225,1.7877,1.8026,1.9253,1.818,1.7424,1.7333,1.6128,1.5417,1.5376,1.4378,1.3818,1.3673,1.2879,1.2445,1.2445,1.2592,1.3025,1.3673,1.3845,1.4807,0.0,0.0,0.0,0.0,0.0,0.0,1.014,0.9987,0.9806,0.0,0.923,0.9289,0.9342,0.9699,0.994,0.994,1.0381,1.1116,1.2231,1.2492,1.2726,1.316,1.326,1.2363,1.0105,0.9787,0.8884,0.6854,0.6559,0.641,0.6345,0.6112,0.6396,0.72,0.6338,0.6273,0.7056,0.7459,0.8076,0.8881,1.0165,1.1505,1.2792,1.2848,1.3133,1.3627,1.34,1.3293,1.3273,1.2966,1.3053,1.34,1.3811,1.3838,1.3761,1.4239,1.4095,1.3728,1.3728,1.3581,1.3373,1.3313,1.3333,1.3513,1.4387,1.5304,1.6133,1.6767,1.6243,1.4933,1.3031,1.3049,1.3178,1.2011,1.2697,1.3882,1.4736,1.579,1.6802,1.7398,1.797,1.8504,1.9024,1.8845,1.896,2.01,1.952,1.8957,1.8718,1.9293,1.954,1.891,1.9493,1.9916,1.9814,1.9558,1.9072,1.8389,1.7394,1.6626,1.6367,1.5438,1.4522,1.3745,1.3528,1.3455,1.3455,1.4235,1.4307,1.3745,1.4514,1.5141,0.0,0.0,0.0,1.1356,0.0,0.0,0.0,1.0327,1.0033,0.974,0.9389,0.923,0.9432,0.9586,0.9686,0.9686,1.0053,1.0595,1.1329,1.1683,1.1977,1.2285,1.2318,1.1706,1.0034,0.9856,0.8985,0.7122,0.6908,0.659,0.6146,0.6954,0.7417,0.7495,0.7495,0.779,0.8299,0.8407,0.8976,0.9933,1.0502,1.1464,1.2759,1.2829,1.2913,1.3186,1.3046,1.2979,1.2959,1.2652,1.2619,1.2862,1.3691,1.3756,1.3528,1.4216,1.4019,1.3427,1.3427,1.3333,1.3186,1.3026,1.3086,1.3382,1.4562,1.592,1.7045,1.6971,1.6839,1.6316,1.438,1.4191,1.4086,1.2777,1.3506,1.445,1.445,1.5234,1.6009,1.6515,1.6747,1.7215,1.8349,1.8247,1.8195,1.8858,1.8373,1.7926,1.7926,1.8228,1.843,1.8448,1.884,1.9298,1.9545,1.96,1.9326,1.8601,1.8128,1.7727,1.7304,1.6428,1.5438,1.445,1.4942,1.495,1.445,1.5877,1.5877,1.445,1.4972,1.5446,0.0,0.0,0.0,0.0,0.0,1.1464,0.0,0.0,0.0,0.0,0.0,0.0,0.0,0.0,0.0,0.0,0.0,0.0,0.0,1.0762,0.0,1.1323,1.1343,1.0947,1.0014,0.9736,0.9043,0.7633,0.744,0.7068,0.6489,0.7865,0.8539,0.8075,0.8665,0.9191,0.9531,0.9464,0.99,1.0787,1.0989,1.1571,1.2392,1.2579,1.2768,1.2822,1.2761,1.2735,1.2721,1.2405,1.2305,1.2405,1.359,1.3655,1.3205,1.4173,1.3924,1.312,1.312,1.3086,1.2993,1.2746,1.3133,1.3774,1.484,1.654,1.79,1.7281,1.7619,1.76,1.5524,1.5216,1.5166,1.3654,1.4299,1.495,1.4171,1.4593,1.5234,1.5234,1.5005,1.5425,1.7081,1.7032,1.6818,1.6853,1.6508,1.6331,1.6493,1.6382,1.6716,1.7583,1.7881,1.8247,1.8922,1.9282,1.915,1.8555,1.8594,1.8447,1.8027,1.707,1.621,1.5517,1.621,1.6219,1.5438,1.7148,1.7148,1.5438,1.5643,1.5992,0.0,0.0,0.0,0.0,1.2931,1.3006,1.1978,0.0,1.1978,1.0397,0.0,0.0,0.0,0.0,0.0,0.0,0.0,0.0,0.9426,0.9673,1.0174,1.0949,1.1042,1.0728,0.999,0.9104,0.8483,0.8297,0.8277,0.8202,0.8155,0.8297,0.8953,1.003,0.9233,0.9322,1.046,1.0574,1.0574,1.0611,1.1659,1.2364,1.2761,1.2458,1.2498,1.2808,1.2472,1.2351,1.2351,1.2318,1.2305,1.2331,1.2777,1.2919,1.2909,1.3263,1.3189,1.2876,1.2876,1.2625,1.2398,1.2365,1.3528,1.4984,1.5117,1.6533,1.8151,1.8816,1.8799,1.8187,1.6874,1.668,1.6298,1.4413,1.4599,1.5163,1.5021,1.5092,1.5234,1.5234,1.4466,1.4274,1.5748,1.4554,1.3818,1.5019,1.4403,1.4228,1.5011,1.6105,1.6863,1.7019,1.8127,1.862,1.7922,1.9088,1.9336,1.8154,1.8428,1.8447,1.8027,1.707,1.6567,1.6428,1.6567,1.6567,1.6428,1.7501,1.7432,1.6498,1.7276,1.7137,0.0,0.0,0.0,0.0,0.0,1.3158,1.292,1.2699,1.2364,1.1819,0.0,0.0,0.0,0.0,0.0,0.0,0.9599,0.9579,0.0,0.0,0.9499,1.0381,1.0334,1.0217,1.0046,0.936,0.8788,0.8511,0.856,0.8422,0.8028,0.9042,0.9764,0.9961,1.0178,1.0685,1.1358,1.081,1.0882,1.1601,1.1489,1.1832,1.2485,1.2358,1.2371,1.2478,1.2358,1.2305,1.2305,1.2305,1.2305,1.2311,1.2438,1.2485,1.2505,1.2632,1.2599,1.2485,1.2485,1.2405,1.2305,1.2305,1.3237,1.4419,1.4698,1.6315,1.8051,1.8353,1.9302,1.9904,1.8112,1.8123,1.8027,1.5955,1.6145,1.6305,1.4657,1.447,1.4235,1.3021,1.255,1.233,1.2202,1.2117,1.2061,1.2141,1.1766,1.1508,1.1858,1.2875,1.3896,1.4687,1.5881,1.6743,1.7184,1.7649,1.7537,1.675,1.7147,1.7612,1.8018,1.7647,1.7432,1.7432,1.6853,1.6636,1.6636,1.6273,1.5883,1.5532,1.6437,1.6191,1.4957,1.5155,1.5113,1.446,1.378,1.3369,1.3706,1.34,1.3115,1.3271,1.2967,0.0,0.0,0.0,1.0261,0.9973,0.0,0.9793,0.0,0.9252,0.0,0.0,0.9953,0.9973,1.01,0.9743,0.9369,0.8908,0.9005,0.8874,0.8371,0.9668,1.0347,1.0043,1.0853,1.149,1.1864,1.1209,1.1275,1.2298,1.1545,1.162,1.2305,1.2305,1.2305,1.2305,1.2305,1.2305,1.2305,1.2305,1.2305,1.2305,1.2305,1.2305,1.2305,1.2305,1.2305,1.2305,1.2305,1.2305,1.2305,1.2305,1.2952,1.3822,1.4327,1.6105,1.7961,1.8094,1.9738,2.1006,1.9336,1.9512,1.9678,1.7871,1.7883,1.7629,1.5103,1.456,1.3916,1.1569,1.1072,1.0599,0.935,0.9866,1.0279,0.9632,0.9417,0.9293,0.9169,1.0135,1.1325,1.2583,1.374,1.4884,1.6081,1.6209,1.6055,1.564,1.6016,1.6498,1.7226,1.7226,1.717,1.7126,1.6405,1.592,1.5583,1.4697,1.4042,1.3735,1.4773,1.4545,1.431,1.4934,1.5219,1.4616,1.4307,1.4167,1.4085,1.4362,1.4554,1.4288,1.4472,1.4258,1.3073,1.1822,1.0868,1.0638,1.0598,0.0,0.0,0.0,0.0,0.9726,1.0194,1.0421,1.014,1.006,0.9947,0.9661,0.9699,0.9761,0.9992,1.0066,1.0394,1.091,1.1002,1.1283,1.1864,1.187,1.2011,1.2305,1.2305,1.2305,1.2305,1.2305,1.2305,1.2305,1.2305,1.2305,1.2305,1.2305,1.2305,1.2305,1.2305,1.2305,1.2305,1.2305,1.2305,1.2305,1.2305,1.2305,1.2305,1.2305,1.2952,1.3829,1.4343,1.6035,1.8009,1.8812,2.0041,2.1006,2.0566,2.0805,2.0964,2.0175,1.961,1.8782,1.7158,1.6144,1.4731,1.1979,1.0682,0.956,0.8289,0.8231,0.8205,0.7932,0.7943,0.799,0.7889,0.8951,1.0178,1.1123,1.2529,1.3632,1.423,1.5233,1.5618,1.5213,1.5242,1.5234,1.5305,1.5305,1.5138,1.484,1.4772,1.4226,1.315,1.3076,1.2358,1.1129,1.2504,1.2439,1.6335,1.6729,1.693,1.6086,1.567,1.5437,1.5329,1.5683,1.5925,1.526,1.5362,1.5245,1.4023,1.2679,1.1711,1.1582,1.0989,1.0416,0.0,0.9933,1.008,0.998,0.0,0.0,0.0,1.0007,0.9833,0.9152,0.9279,0.9519,0.9813,0.9833,1.01,1.0688,1.0895,1.1182,1.1577,1.1577,1.1824,1.2298,1.2104,1.2118,1.2305,1.2305,1.2305,1.2305,1.2305,1.2305,1.2305,1.2305,1.2305,1.2305,1.2305,1.2305,1.2305,1.2305,1.2305,1.2305,1.2305,1.2305,1.2305,1.2305,1.2519,1.2926,1.385,1.5263,1.6705,1.7434,1.93,2.122,2.1659,2.2288,2.2485,2.1124,2.0852,2.0147,1.7464,1.6377,1.5032,1.2304,1.1642,1.1047,0.9523,0.9299,0.8782,0.7064,0.7469,0.775,0.6891,0.8372,0.9386,0.9218,1.0092,1.077,1.1088,1.1168,1.1611,1.2782,1.2836,1.3096,1.3695,1.3763,1.3429,1.2743,1.2086,1.1635,1.118,1.0398,0.9734,0.9247,0.8863,0.892,1.7344,1.7578,1.761,1.6817,1.6328,1.6142,1.6143,1.6473,1.6734,1.6468,1.6352,1.6031,1.5245,1.3859,1.2687,1.2345,1.1652,1.0912,0.0,1.0154,1.0274,1.0274,0.0,0.0,0.0,1.0239,1.0072,0.9018,0.9494,0.9749,0.9731,0.978,1.006,1.0611,1.0742,1.1029,1.1423,1.1423,1.1724,1.2298,1.2111,1.2124,1.2305,1.2305,1.2305,1.2305,1.2305,1.2305,1.2305,1.2305,1.2305,1.2305,1.2305,1.2305,1.2305,1.2305,1.2305,1.2305,1.2305,1.2305,1.2305,1.2305,1.2305,1.2535,1.3573,1.4859,1.615,1.6927,1.908,2.1245,2.1972,2.2848,2.3284,2.2221,2.1626,2.0631,1.8061,1.6643,1.5101,1.2567,1.1986,1.1549,1.0108,0.9842,0.9104,0.7134,0.7725,0.7909,0.6504,0.7706,0.8588,0.8086,0.8449,0.8784,0.9204,0.8939,0.9308,1.0542,1.0604,1.0866,1.1445,1.1512,1.1242,1.0623,0.9941,0.9457,0.9029,0.8149,0.7489,0.7154,0.6274,0.6388]},{"header":{"parameterUnit":"m.s-1","parameterCategory":1,"la1":30.6,"la2":29.2853,"lo1":-89.7004,"lo2":-87.6739,"dy":0.0162,"dx":0.0183,"nx":112,"ny":82,"refTime":"2023-08-27T00:00:00:Z","depth":0,"parameterNumber":3,"parameterNumberName":"V-component_of_WINDS"},"data":[0.0,0.0,0.0,0.0,0.0,0.0,0.0,0.0,0.0,0.0,0.0,0.0,0.0,0.0,0.0,0.0,0.0,0.0,0.0,0.0,0.0,0.0,0.0,0.0,0.0,0.0,0.0,0.0,0.0,0.0,0.0,0.0,0.0,0.0,0.0,0.0,0.0,0.0,0.0,0.0,0.0,0.0,0.0,0.0,0.0,0.0,0.0,0.0,0.0,0.0,0.0,0.0,0.0,0.0,0.0,0.0,0.0,0.0,0.0,0.0,0.0,0.0,0.0,0.0,0.0,0.0,0.0,0.0,0.0,0.0,0.0,0.0,0.0,0.0,0.0,0.0,0.0,0.0,0.0,0.0,0.0,0.0,0.0,0.0,0.0,0.0,0.0,0.0,0.0,0.0,-0.8643,-1.1908,-1.1292,-1.0639,-1.0636,-1.1099,-1.1277,-1.1013,0.0,0.0,0.0,0.0,0.0,0.0,0.0,0.0,0.0,0.0,0.0,0.0,0.0,0.0,0.0,0.0,0.0,0.0,0.0,0.0,0.0,0.0,0.0,0.0,0.0,0.0,0.0,0.0,0.0,0.0,0.0,0.0,0.0,0.0,0.0,0.0,0.0,0.0,0.0,0.0,0.0,0.0,0.0,0.0,0.0,0.0,0.0,0.0,0.0,0.0,0.0,0.0,0.0,0.0,0.0,0.0,0.0,0.0,0.0,0.0,0.0,0.0,0.0,0.0,0.0,0.0,0.0,0.0,0.0,0.0,0.0,0.0,0.0,0.0,0.0,0.0,0.0,0.0,0.0,0.0,0.0,0.0,0.0,0.0,0.0,0.0,0.0,0.0,0.0,0.0,0.0,0.0,0.0,0.0,0.0,0.0,0.0,0.0,0.0,0.0,0.0,0.0,0.0,0.0,-0.9575,-1.0553,-0.9995,-0.9982,-1.1089,-0.9899,-1.0023,-1.2173,0.0,0.0,0.0,0.0,0.0,0.0,0.0,0.0,0.0,0.0,0.0,0.0,0.0,0.0,0.0,0.0,0.0,0.0,0.0,0.0,0.0,0.0,0.0,0.0,0.0,0.0,0.0,0.0,0.0,0.0,0.0,0.0,0.0,0.0,0.0,0.0,0.0,0.0,0.0,0.0,0.0,0.0,0.0,0.0,0.0,0.0,0.0,0.0,0.0,0.0,0.0,0.0,0.0,0.0,0.0,0.0,0.0,0.0,0.0,0.0,0.0,0.0,0.0,0.0,0.0,0.0,0.0,0.0,0.0,0.0,0.0,0.0,0.0,0.0,0.0,0.0,0.0,0.0,0.0,0.0,0.0,0.0,0.0,0.0,0.0,0.0,0.0,0.0,0.0,0.0,0.0,0.0,0.0,0.0,0.0,0.0,0.0,0.0,0.0,0.0,0.0,0.0,0.0,-1.111,-0.9555,-0.9391,-0.9348,-0.9832,-1.1039,-0.9668,-1.0088,-1.3211,-1.3192,0.0,0.0,0.0,0.0,0.0,0.0,0.0,0.0,0.0,0.0,0.0,0.0,0.0,0.0,0.0,0.0,0.0,0.0,0.0,0.0,0.0,0.0,0.0,0.0,0.0,0.0,0.0,0.0,0.0,0.0,0.0,0.0,0.0,0.0,0.0,0.0,0.0,0.0,0.0,0.0,0.0,0.0,0.0,0.0,0.0,0.0,0.0,0.0,0.0,0.0,0.0,0.0,0.0,0.0,0.0,0.0,0.0,0.0,0.0,0.0,0.0,0.0,0.0,0.0,0.0,0.0,0.0,0.0,0.0,0.0,0.0,0.0,0.0,0.0,0.0,0.0,0.0,0.0,0.0,0.0,0.0,0.0,0.0,0.0,0.0,0.0,0.0,0.0,0.0,0.0,0.0,0.0,0.0,0.0,0.0,0.0,0.0,0.0,0.0,0.0,0.0,0.0,-0.8763,-0.8839,-0.868,-0.8984,-0.9634,-1.0555,-0.9595,-1.0353,-1.3609,-1.2069,0.0,0.0,0.0,0.0,0.0,0.0,0.0,0.0,0.0,0.0,0.0,0.0,0.0,0.0,0.0,0.0,0.0,0.0,0.0,0.0,0.0,0.0,0.0,0.0,0.0,0.0,0.0,0.0,0.0,0.0,0.0,0.0,0.0,0.0,0.0,0.0,0.0,0.0,0.0,0.0,0.0,0.0,0.0,0.0,0.0,0.0,0.0,0.0,0.0,0.0,0.0,0.0,0.0,0.0,0.0,0.0,0.0,0.0,0.0,0.0,0.0,0.0,0.0,0.0,0.0,0.0,0.0,0.0,0.0,0.0,0.0,0.0,0.0,0.0,0.0,0.0,0.0,0.0,0.0,0.0,0.0,0.0,0.0,0.0,0.0,0.0,0.0,0.0,0.0,0.0,0.0,0.0,0.0,0.0,0.0,0.0,0.0,0.0,0.0,0.0,0.0,0.0,-0.6171,-0.7382,-0.8644,-0.876,-0.8992,-0.9569,-0.9294,-1.0195,-1.2821,-1.2951,0.0,0.0,0.0,0.0,0.0,0.0,0.0,0.0,0.0,0.0,0.0,0.0,0.0,0.0,0.0,0.0,0.0,0.0,0.0,0.0,0.0,0.0,0.0,0.0,0.0,0.0,0.0,0.0,0.0,0.0,0.0,0.0,0.0,0.0,0.0,0.0,0.0,0.0,0.0,0.0,0.0,0.0,0.0,0.0,0.0,0.0,0.0,0.0,0.0,0.0,0.0,0.0,0.0,0.0,0.0,0.0,0.0,0.0,0.0,0.0,0.0,0.0,0.0,0.0,0.0,0.0,0.0,0.0,0.0,0.0,0.0,0.0,0.0,0.0,0.0,0.0,0.0,0.0,0.0,0.0,0.0,0.0,0.0,0.0,0.0,0.0,0.0,0.0,0.0,0.0,0.0,0.0,0.0,0.0,0.0,0.0,0.0,0.0,0.0,0.0,0.0,0.0,-0.4017,-0.7184,0.0,-0.7986,-0.8393,-0.9178,-0.8966,-0.999,-1.2798,0.0,0.0,0.0,0.0,0.0,0.0,0.0,0.0,0.0,0.0,0.0,0.0,0.0,0.0,0.0,0.0,0.0,0.0,0.0,0.0,0.0,0.0,0.0,0.0,0.0,0.0,0.0,0.0,0.0,0.0,0.0,0.0,0.0,0.0,0.0,0.0,0.0,0.0,0.0,0.0,0.0,0.0,0.0,0.0,0.0,0.0,0.0,0.0,0.0,0.0,0.0,0.0,0.0,0.0,0.0,0.0,0.0,0.0,0.0,0.0,0.0,0.0,0.0,0.0,0.0,0.0,0.0,0.0,0.0,0.0,0.0,0.0,0.0,0.0,0.0,0.0,0.0,0.0,0.0,0.0,0.0,0.0,0.0,0.0,0.0,0.0,0.0,0.0,0.0,0.0,0.0,0.0,0.0,0.0,0.0,0.0,0.0,0.0,0.0,0.0,0.0,0.0,0.4114,-0.1969,-0.6649,0.0,-0.7657,-0.8304,-0.9113,-0.9016,-1.0255,-1.3461,0.0,0.0,0.0,0.0,0.0,0.0,0.0,0.0,0.0,0.0,0.0,0.0,0.0,0.0,0.0,0.0,0.0,0.0,0.0,0.0,0.0,0.0,0.0,0.0,0.0,0.0,0.0,0.0,0.0,0.0,0.0,0.0,0.0,0.0,0.0,0.0,0.0,0.0,0.0,0.0,0.0,0.0,0.0,0.0,0.0,0.0,0.0,0.0,0.0,0.0,0.0,0.0,0.0,0.0,0.0,0.0,0.0,0.0,0.0,0.0,0.0,0.0,0.0,0.0,0.0,0.0,0.0,0.0,0.0,0.0,0.0,0.0,0.0,0.0,0.0,0.0,0.0,0.0,0.0,0.0,0.0,0.0,0.0,0.0,0.0,0.0,0.0,0.0,0.0,0.0,0.0,0.0,0.0,0.0,0.0,0.0,0.0,0.0,0.0,0.0,0.0,0.0,0.7094,0.0,-0.5574,-0.6846,-0.7882,-0.8725,-0.9323,-0.9464,-1.1114,0.0,0.0,0.0,0.0,0.0,0.0,0.0,0.0,0.0,0.0,0.0,0.0,0.0,0.0,0.0,0.0,0.0,0.0,0.0,0.0,0.0,0.0,0.0,0.0,0.0,0.0,0.0,0.0,0.0,0.0,0.0,0.0,0.0,0.0,0.0,0.0,0.0,0.0,0.0,0.0,0.0,0.0,0.0,0.0,0.0,0.0,0.0,0.0,0.0,0.0,0.0,0.0,0.0,0.0,0.0,0.0,0.0,0.0,0.0,0.0,0.0,0.0,0.0,0.0,0.0,0.0,0.0,0.0,0.0,0.0,0.0,0.0,0.0,0.0,0.0,0.0,0.0,0.0,0.0,0.0,0.0,0.0,0.0,0.0,0.0,0.0,0.0,0.0,0.0,0.0,0.0,0.0,0.0,0.0,0.0,0.0,0.0,0.0,0.0,0.0,0.0,0.0,0.0,1.1957,0.2422,-0.4769,-0.6076,-0.6744,-0.7298,-0.7808,-0.97,-1.2235,-1.5532,0.0,0.0,0.0,0.0,0.0,0.0,0.0,0.0,0.0,0.0,0.0,0.0,0.0,0.0,0.0,0.0,0.0,0.0,0.0,0.0,0.0,0.0,0.0,0.0,0.0,0.0,0.0,0.0,0.0,0.0,0.0,0.0,0.0,0.0,0.0,0.0,0.0,0.0,0.0,0.0,0.0,0.0,0.0,0.0,0.0,0.0,0.0,0.0,0.0,0.0,0.0,0.0,0.0,0.0,0.0,0.0,0.0,0.0,0.0,0.0,0.0,0.0,0.0,0.0,0.0,0.0,0.0,0.0,0.0,0.0,0.0,0.0,0.0,0.0,0.0,0.0,0.0,0.0,0.0,0.0,0.0,0.0,0.0,0.0,0.0,0.0,0.0,0.0,0.0,0.0,0.0,0.0,0.0,0.0,0.0,0.0,0.0,0.0,0.0,0.0,0.0,0.0,1.2335,0.2546,-0.4615,-0.5529,-0.6525,-0.7567,-0.8623,-1.0319,-1.2525,-1.541,0.0,0.0,0.0,0.0,0.0,0.0,0.0,0.0,0.0,0.0,0.0,0.0,0.0,0.0,0.0,0.0,0.0,0.0,0.0,0.0,0.0,0.0,0.0,0.0,0.0,0.0,0.0,0.0,0.0,0.0,0.0,0.0,0.0,0.0,0.0,0.0,0.0,0.0,0.0,0.0,0.0,0.0,0.0,0.0,0.0,0.0,0.0,0.0,0.0,0.0,0.0,0.0,0.0,0.0,0.0,0.0,0.0,0.0,0.0,0.0,0.0,0.0,0.0,0.0,0.0,0.0,0.0,0.0,0.0,0.0,0.0,0.0,0.0,0.0,0.0,0.0,0.0,0.0,0.0,0.0,0.0,0.0,0.0,0.0,0.0,0.0,0.0,0.0,0.0,0.0,0.0,0.0,0.0,0.0,0.0,0.0,0.0,0.0,0.0,0.0,0.0,0.0,0.9593,0.1011,-0.5125,-0.5589,-0.7309,-0.9152,-1.0921,-1.145,-1.2678,-1.5045,0.0,0.0,0.0,0.0,0.0,0.0,0.0,0.0,0.0,0.0,0.0,0.0,0.0,0.0,0.0,0.0,0.0,0.0,0.0,0.0,0.0,0.0,0.0,0.0,0.0,0.0,0.0,0.0,0.0,0.0,0.0,0.0,0.0,0.0,0.0,0.0,0.0,0.0,0.0,0.0,0.0,0.0,0.0,0.0,0.0,0.0,0.0,0.0,0.0,0.0,0.0,0.0,0.0,0.0,0.0,0.0,0.0,0.0,0.0,0.0,-0.4017,-0.4408,0.0,0.0,0.0,0.0,0.0,0.0,0.0,0.0,0.0,0.0,0.0,0.0,0.0,0.0,0.0,0.0,0.0,0.0,0.0,0.0,0.0,0.0,0.0,0.0,0.0,0.0,0.0,0.0,0.0,0.0,0.0,0.0,0.0,0.0,0.0,0.0,0.0,0.0,0.0,0.0,0.7755,-0.0581,-0.674,-0.8705,-1.0171,-1.1174,-1.1585,-1.3887,-1.5638,-1.643,-1.7917,0.0,0.0,0.0,0.0,0.0,0.0,0.0,0.0,0.0,0.0,0.0,0.0,0.0,0.0,0.0,0.0,0.0,0.0,0.0,0.0,0.0,0.0,0.0,0.0,0.0,0.0,0.0,0.0,0.0,0.0,0.0,0.0,0.0,0.0,0.0,0.0,0.0,0.0,0.0,0.0,0.0,0.0,0.0,0.0,0.0,0.0,0.0,0.0,0.0,0.0,0.0,0.0,0.0,0.0,0.0,0.0,0.0,0.0,0.0,-0.523,-0.4926,0.0,0.0,0.0,0.0,0.0,0.0,0.0,0.0,0.0,0.0,0.0,0.0,0.0,0.0,0.0,0.0,0.0,0.0,0.0,0.0,0.0,0.0,0.0,0.0,0.0,0.0,0.0,0.0,0.0,0.0,0.0,0.0,0.0,0.0,0.0,0.0,0.0,0.0,0.0,0.0,0.8386,-0.0883,-0.7453,-0.8107,-1.0748,-1.2948,-1.4103,-1.5488,-1.6514,-1.6973,-1.7752,0.0,0.0,0.0,0.0,0.0,0.0,0.0,0.0,0.0,0.0,0.0,0.0,0.0,0.0,0.0,0.0,0.0,0.0,0.0,0.0,0.0,0.0,0.0,0.0,0.0,0.0,0.0,0.0,0.0,0.0,0.0,0.0,0.0,0.0,0.0,0.0,0.0,0.0,0.0,0.0,0.0,0.0,0.0,0.0,0.0,0.0,0.0,0.0,0.0,0.0,0.0,0.0,0.0,-1.0587,-1.0007,-0.8606,-0.861,-0.941,-1.0531,-0.6337,-0.4936,-0.5974,-1.0395,0.0,0.0,0.0,0.0,0.0,0.0,0.0,0.0,0.0,0.0,0.0,0.0,0.0,0.0,0.0,0.0,0.0,0.0,0.0,0.0,0.0,0.0,-1.6504,-1.5964,-1.6317,-1.6184,-1.4035,0.0,0.0,0.0,0.0,0.0,0.0,0.0,0.0,0.0,0.0,0.0,0.9097,-0.077,-0.7785,-0.74,-1.1004,-1.4559,-1.7292,-1.7251,-1.7322,-1.788,-1.8436,-1.8831,0.0,0.0,0.0,0.0,0.0,0.0,0.0,0.0,0.0,0.0,0.0,0.0,0.0,0.0,0.0,0.0,0.0,0.0,0.0,0.0,0.0,0.0,0.0,0.0,0.0,0.0,0.0,0.0,0.0,0.0,0.0,0.0,-1.1438,-1.1473,0.0,0.0,0.0,0.0,0.0,0.0,0.0,0.0,0.0,0.0,0.0,0.0,0.0,-1.2196,-1.0114,-1.0097,-1.0153,-1.031,-1.1807,-1.2444,-1.2225,-1.2222,-1.2356,-1.2401,-0.9409,0.0,-0.7412,-0.8148,0.0,0.0,0.0,0.0,0.0,0.0,0.0,0.0,0.0,0.0,0.0,0.0,0.0,0.0,0.0,0.0,0.0,0.0,0.0,0.0,0.0,0.0,-1.6651,-1.6436,-1.6936,-1.7392,-1.7098,-1.6556,-1.621,-1.6521,-1.6667,-1.6784,0.0,0.0,0.0,0.0,0.0,0.0,0.6672,-0.1265,-0.808,-1.1181,-1.3249,-1.6055,-2.0085,-2.0564,-2.0796,-2.1152,-2.1531,-2.119,-1.9979,-2.1339,0.0,0.0,0.0,0.0,0.0,0.0,0.0,0.0,0.0,0.0,0.0,0.0,0.0,0.0,0.0,0.0,0.0,0.0,0.0,0.0,0.0,0.0,0.0,0.0,0.0,0.0,0.0,0.0,0.0,-1.1953,-1.1657,-1.2296,-1.0939,-0.9432,0.0,0.0,0.0,0.0,0.0,0.0,0.0,0.0,0.0,-1.4413,-1.3531,-1.262,-1.1753,-1.1743,-1.1758,-1.1759,-1.2535,-1.2882,-1.2878,-1.2913,-1.292,-1.2813,-1.1611,-1.0935,-1.0452,-0.8513,-0.8303,-0.9313,0.0,0.0,0.0,0.0,-0.9696,-0.8898,-1.0709,-1.2914,-1.5032,-1.5641,0.0,0.0,0.0,0.0,0.0,0.0,0.0,-1.6715,-1.6854,-1.7392,-1.7761,-1.7293,-1.7683,-1.8087,-1.7779,-1.7709,-1.7936,-1.8659,-1.9619,-2.0173,-1.9794,-1.3736,0.0,0.0,0.0,-0.3418,-0.1125,-0.7375,-1.2724,-1.4587,-1.6151,-1.8533,-2.2159,-2.214,-2.1916,-2.1909,-2.2612,-2.2736,-2.2082,-2.2949,-2.3688,0.0,0.0,0.0,0.0,0.0,0.0,0.0,0.0,0.0,0.0,0.0,0.0,0.0,0.0,0.0,0.0,0.0,0.0,0.0,0.0,0.0,0.0,0.0,0.0,0.0,0.0,0.0,0.0,-1.285,-1.21,-1.2564,-1.1258,-1.0496,0.0,0.0,0.0,0.0,0.0,0.0,-1.2876,-1.1665,-1.1562,-1.2853,-1.2904,-1.2884,-1.2887,-1.2903,-1.2888,-1.2919,-1.2876,-1.2912,-1.2899,-1.291,-1.2881,-1.289,-1.2902,-1.2888,-1.2666,-0.9618,-0.8505,-0.9018,-1.2047,-1.3204,-1.3201,-1.3202,-1.2507,-1.1578,-1.1586,-1.3871,-1.6358,-1.3693,-1.6225,-1.99,-1.7444,0.0,0.0,0.0,0.0,-1.7907,-1.7945,-1.8443,-1.8759,-1.8174,-1.8561,-1.8927,-1.8465,-1.8883,-1.9461,-1.9888,-2.0966,-2.1623,-2.0931,-1.759,0.0,-0.9595,-1.0848,-1.1147,-0.8064,-1.2823,-1.6772,-1.7634,-1.9502,-2.1405,-2.3243,-2.2948,-2.2707,-2.2739,-2.3587,-2.3925,-2.3554,-2.3861,-2.3988,-2.3878,0.0,0.0,0.0,0.0,0.0,0.0,0.0,0.0,0.0,0.0,0.0,0.0,0.0,0.0,0.0,0.0,0.0,0.0,0.0,0.0,0.0,0.0,0.0,0.0,0.0,0.0,0.0,0.0,0.0,-1.1822,-1.256,0.0,0.0,0.0,0.0,-1.0354,-1.187,-1.2928,-1.2884,-1.2834,-1.2809,-1.291,-1.2886,-1.2895,-1.2919,-1.288,-1.2888,-1.2909,-1.2908,-1.2908,-1.2882,-1.289,-1.2881,-1.2881,-1.2905,-1.2904,-1.2744,-1.0911,-1.127,-1.2935,-1.3138,-1.3192,-1.3197,-1.3214,-1.4458,-1.6182,-1.6157,-1.7636,-1.9075,-1.6454,-1.8571,-2.1779,-1.9724,-1.9199,0.0,0.0,-1.8692,-1.7826,-1.8694,-1.9049,-1.9148,-1.8965,-1.9631,-2.0273,-2.0196,-2.0792,-2.0908,-1.9362,-1.9138,-1.9497,-2.0441,0.0,-1.2993,-1.1785,-1.1734,-1.1729,-1.1465,-1.4776,-1.8002,-2.0256,-2.3313,-2.4535,-2.2959,-2.3221,-2.3826,-2.4691,-2.5169,-2.4793,-2.3467,-2.3727,-2.3688,-2.3253,-2.3784,0.0,0.0,0.0,0.0,0.0,0.0,0.0,0.0,0.0,0.0,0.0,0.0,0.0,0.0,0.0,0.0,0.0,0.0,0.0,0.0,0.0,0.0,0.0,0.0,0.0,0.0,0.0,0.0,-1.4357,-1.4424,0.0,-1.3854,-1.3122,-1.3113,-1.4204,-1.444,-1.4512,-1.4528,-1.45,-1.4518,-1.4528,-1.3461,-1.2909,-1.2887,-1.2909,-1.2902,-1.2935,-1.4485,-1.4417,-1.2878,-1.2913,-1.2896,-1.2896,-1.2919,-1.3764,-1.5168,-1.4568,-1.4708,-1.5312,-1.5309,-1.531,-1.5325,-1.531,-1.5802,-1.6499,-1.651,-1.7,-1.7897,-1.9457,-2.16,-2.3386,-2.2684,-2.1967,-2.1315,-2.0881,-2.028,-1.9884,-2.0364,-2.0205,-2.0029,-2.051,-2.0463,-2.0331,-2.0312,-2.0542,-2.0696,-2.0619,-2.0619,-2.0915,-2.1844,-2.0603,-1.9388,-1.916,-1.9728,-1.9858,-1.9012,-2.1074,-2.2829,-2.3411,-2.461,-2.5127,-2.4522,-2.4621,-2.4689,-2.4586,-2.5127,-2.4915,-2.3762,-2.4132,-2.3719,-2.2383,-2.2756,-2.2701,0.0,0.0,0.0,0.0,0.0,0.0,0.0,0.0,0.0,0.0,0.0,0.0,0.0,0.0,0.0,0.0,0.0,0.0,0.0,0.0,0.0,0.0,0.0,0.0,0.0,0.0,-1.5981,-1.6526,-1.6608,-1.643,-1.6042,-1.4956,-1.4831,-1.6249,-1.575,-1.5405,-1.5382,-1.5403,-1.538,-1.5382,-1.3767,-1.3271,-1.4131,-1.4127,-1.4116,-1.4129,-1.5742,-1.5661,-1.4106,-1.412,-1.4098,-1.4098,-1.4126,-1.5,-1.6511,-1.6522,-1.6517,-1.6507,-1.6493,-1.6519,-1.6505,-1.6517,-1.6517,-1.6608,-1.7327,-1.7961,-1.887,-2.1463,-2.3151,-2.4208,-2.421,-2.3455,-2.2582,-2.251,-2.1981,-2.1497,-2.1748,-2.1481,-2.1316,-2.182,-2.1546,-2.1174,-2.1147,-2.1155,-2.1328,-2.1878,-2.1716,-2.187,-2.3043,-2.3237,-2.3371,-2.3744,-2.4231,-2.4285,-2.3485,-2.4335,-2.4931,-2.4696,-2.5125,-2.5488,-2.5597,-2.5771,-2.56,-2.4946,-2.5473,-2.5042,-2.3361,-2.4207,-2.2865,-1.9001,-1.9542,-1.827,-1.5103,0.0,0.0,0.0,0.0,0.0,0.0,0.0,0.0,0.0,0.0,0.0,0.0,0.0,0.0,0.0,0.0,0.0,0.0,0.0,0.0,0.0,0.0,0.0,-1.8209,-1.8439,-1.8631,-1.8167,-1.9042,-1.9245,-1.8259,-1.7728,-1.7046,-1.6093,-1.5669,-1.5399,-1.5409,-1.5469,-1.5563,-1.5564,-1.3961,-1.4182,-1.6446,-1.6559,-1.661,-1.6629,-1.6572,-1.6598,-1.6477,-1.652,-1.6505,-1.6526,-1.6504,-1.6532,-1.6604,-1.6611,-1.6599,-1.6613,-1.6616,-1.6539,-1.6471,-1.6398,-1.6441,-1.6822,-1.8963,-2.085,-2.2295,-2.2312,-2.3137,-2.4159,-2.4187,-2.347,-2.2949,-2.4365,-2.3615,-2.2443,-2.2729,-2.2855,-2.2879,-2.284,-2.286,-2.289,-2.2819,-2.2855,-2.2909,-2.2951,-2.2222,-2.2109,-2.3802,-2.3979,-2.4134,-2.4847,-2.4444,0.0,-2.4237,-2.4055,-2.395,-2.4024,-2.5021,-2.5774,-2.6014,-2.6485,-2.6536,-2.5972,-2.6367,-2.5332,-2.2384,-2.3989,-2.1322,-1.3562,-1.4511,-1.1071,-0.2924,0.0,0.0,0.0,0.0,0.0,0.0,0.0,0.0,0.0,0.0,0.0,0.0,0.0,0.0,0.0,0.0,0.0,0.0,0.0,0.0,0.0,0.0,-2.1323,-2.0042,-2.0188,-2.0376,-2.018,-2.0843,-2.0783,-1.9515,-2.0191,-1.9743,-1.7322,-1.6098,-1.5381,-1.5421,-1.7457,-1.8573,-1.8596,-1.813,-1.7214,-1.5719,-1.7808,-1.8887,-1.8904,-1.8878,-1.8075,-1.6502,-1.6507,-1.6504,-1.6511,-1.6506,-1.739,-1.8825,-1.8823,-1.8819,-1.8823,-1.8818,-1.7882,-1.6305,-1.4521,-1.4995,-1.6818,-1.8976,-2.0829,-2.2285,-2.2291,-2.2548,-2.3,-2.392,-2.4,-2.3842,-2.4248,-2.4166,-2.3877,-2.3419,-2.2964,-2.2748,-2.339,-2.317,-2.2824,-2.2793,-2.2849,-2.308,-2.3725,-2.3669,-2.3669,-2.4107,-2.3814,-2.3677,-2.408,-2.3649,-2.3319,-2.3337,-2.3803,-2.4283,-2.4756,-2.5075,-2.5638,-2.657,-2.6485,-2.6464,-2.669,-2.7264,-2.7001,-2.5634,-2.6036,-2.452,-2.0771,-2.1251,-1.7757,0.0,0.0,0.0,0.0,0.0,0.0,0.0,0.0,0.0,0.0,0.0,0.0,0.0,0.0,0.0,0.0,0.0,0.0,0.0,0.0,0.0,0.0,-2.2524,-2.27,-2.2273,-2.2129,-2.2139,-2.2389,-2.2419,-2.2043,-2.0996,-2.1583,-2.1253,-1.9364,-1.8014,-1.7244,-1.7236,-1.8873,-1.9797,-1.9808,-1.9316,-1.8489,-1.7266,-1.8937,-1.9787,-1.9814,-1.9808,-1.9144,-1.7903,-1.8987,-1.8893,-1.7828,-1.7857,-1.8972,-2.0778,-2.0783,-2.0785,-2.0709,0.0,0.0,0.0,0.0,-1.6651,-1.8133,-2.011,-2.1451,-2.2285,-2.231,-2.2306,-2.2429,-2.3171,-2.3783,-2.4247,-2.4396,-2.4556,-2.461,-2.4331,-2.3965,-2.3808,-2.4319,-2.413,-2.3852,-2.388,-2.3947,-2.4154,-2.4691,-2.4832,0.0,-2.4754,-2.4231,-2.3889,-2.4078,-2.3481,-2.2968,-2.2736,-2.3199,-2.3629,-2.3785,-2.47,-2.5596,-2.638,-2.6858,0.0,0.0,0.0,-2.7951,-2.7472,-2.4067,0.0,0.0,0.0,-1.5681,-0.8157,-0.4525,0.0,0.0,1.6365,1.6009,0.0,0.0,0.0,0.0,0.0,0.0,0.0,0.0,0.0,0.0,0.0,0.0,0.0,0.0,0.0,0.0,-2.3746,-2.4133,-2.4771,-2.4216,-2.3904,-2.4389,-2.3767,-2.3162,-2.2667,-2.2329,-2.2015,-2.175,-2.0619,-1.992,-1.9799,-2.0055,0.0,0.0,0.0,-1.9107,-2.0172,-2.0499,-2.0696,-2.0694,-2.07,-2.0503,-2.0314,-2.2566,-2.2475,-2.0474,-2.0131,-2.0858,-2.2294,-2.2295,-2.2309,-2.2166,-2.0615,-2.0,-2.0004,-1.9984,-1.998,-2.0212,-2.1763,0.0,0.0,-2.2288,-2.2315,-2.2341,-2.2459,-2.3286,-2.4265,-2.4644,-2.4779,-2.4906,-2.5145,-2.5234,-2.5269,-2.5275,-2.5284,-2.5322,-2.539,-2.5447,-2.553,-2.5588,-2.5659,-2.5664,-2.5537,-2.4935,-2.4469,-2.4466,-2.3716,-2.2963,-2.2446,-2.2661,-2.2687,-2.2309,-2.4115,0.0,-2.5702,-2.7144,-2.7859,-2.7447,-2.8159,-2.855,-2.8459,-2.1266,-1.6059,-1.355,-1.2985,-0.9222,-0.2122,-0.1451,0.2739,1.0212,1.6344,1.4102,0.0,0.0,0.0,0.0,0.0,0.0,0.0,0.0,0.0,0.0,0.0,0.0,0.0,0.0,0.0,-2.4957,-2.5631,-2.624,-2.6917,-2.6396,-2.5731,-2.5259,-2.5063,-2.4896,-2.4788,-2.3758,-2.3091,-2.2935,-2.1867,-2.0777,-1.9853,-2.1466,-2.248,-2.2483,-2.2252,-2.2259,-2.2447,-2.4874,-2.6104,-2.609,-2.6071,0.0,-2.2859,-2.3356,-2.4241,-2.5216,-2.2834,-2.1981,-2.2314,-2.2287,-2.2292,-2.2266,-2.1907,-2.181,-2.1794,-2.1777,-2.1795,-2.1868,-2.2184,-2.2295,-2.2316,-2.2295,-2.2295,-2.2476,-2.3522,-2.3987,0.0,-2.4284,-2.4737,-2.512,-2.4749,-2.4856,-2.505,-2.5061,-2.5187,-2.5322,-2.539,-2.5457,-2.5512,-2.559,-2.5658,-2.5673,-2.5585,-2.5251,-2.479,-2.4265,-2.3853,-2.3423,-2.2925,-2.3446,-2.3843,-2.3873,-2.428,-2.4712,-2.51,-2.5573,-2.6127,-2.687,-2.8679,-2.9793,-2.9976,-2.7587,-2.5398,-2.3458,-1.6041,-0.9953,-0.5294,0.2359,0.7554,1.0493,1.3435,1.0978,0.0,0.0,0.0,0.0,0.0,0.0,0.0,0.0,0.0,0.0,0.0,-2.3416,0.0,0.0,-2.5682,-2.6486,-2.7149,-2.7661,-2.7997,-2.7997,-2.7455,-2.6108,-2.5618,-2.5398,-2.5398,-2.4614,-2.3555,-2.2194,-2.2366,-2.222,-2.1511,-2.251,-2.3076,-2.3098,-2.4573,-2.472,-2.3339,-2.6188,-2.7604,-2.7599,-2.7622,-2.7534,-2.7343,-2.5823,-2.5705,-2.6637,-2.5152,-2.4925,-2.5635,-2.5667,-2.5649,-2.5596,-2.4798,-2.36,-2.2292,-2.2318,-2.2283,-2.2308,-2.2304,-2.2308,-2.2281,-2.2296,-2.2737,-2.3383,-2.4024,-2.4203,-2.419,-2.419,-2.4468,-2.4751,-2.4747,-2.487,-2.5024,-2.513,-2.5226,-2.5322,-2.5428,-2.5815,-2.6177,-2.6289,-2.668,-2.6972,-2.6915,-2.6812,-2.6212,-2.4591,-2.4235,-2.3854,-2.294,-2.3445,-2.3692,-2.333,-2.3643,-2.3949,-2.4234,-2.5051,-2.5853,-2.654,-2.7739,-2.8391,-2.8407,-2.7305,-2.5957,-2.437,-1.3253,-0.381,0.3672,0.9685,1.1629,0.9643,0.5992,0.2061,0.0,0.0,0.0,0.0,0.0,0.0,0.0,0.0,-2.2787,-2.3338,-2.3834,-2.4507,-2.56,-2.6333,-2.6991,-2.7664,-2.8446,-2.8852,-2.8728,-2.9186,-2.8936,-2.7187,-2.6515,-2.6169,-2.6083,-2.545,-2.4297,-2.2342,-2.3059,-2.3724,-2.3969,-2.3953,-2.3986,-2.396,-2.6361,-2.6572,-2.4389,-2.6513,-2.7605,-2.7609,-2.8092,-2.9331,-3.1124,-2.8691,-2.7741,-2.8058,-2.7408,-2.7861,-2.9,-2.9,-2.9011,-2.8879,-2.7635,-2.5677,-2.3566,-2.3266,-2.2785,-2.2394,-2.2946,-2.2789,-2.2308,-2.2287,-2.298,-2.3868,-2.4104,-2.4215,-2.4207,-2.4208,-2.4505,-2.4816,-2.4903,-2.5243,-2.5523,-2.5341,-2.5582,-2.5813,-2.5765,-2.6444,-2.7104,-2.7224,-2.7812,-2.8281,-2.8223,-2.8379,-2.7772,-2.5541,-2.5135,-2.4693,-2.3594,-2.3634,-2.3535,-2.2886,-2.3184,-2.3464,-2.345,-2.4522,-2.5505,-2.6277,-2.647,-2.6542,-2.655,-2.4732,-2.2752,-2.0536,-0.7323,0.3852,1.268,1.5464,1.3782,0.7803,-0.2273,-0.7737,-2.4182,-2.3745,0.0,-2.4557,-2.4047,-2.3909,0.0,0.0,-2.601,-2.6146,-2.6213,-2.6303,-2.6452,-2.7021,-2.7694,-2.8368,-2.9531,-3.0142,-2.9503,-2.9848,-2.9811,-2.8667,-2.8777,-2.8821,-2.8439,-2.7036,-2.63,-2.6722,-2.4792,-2.4616,-2.6903,-2.706,-2.7099,-2.7128,-2.744,-2.747,-2.7149,-2.7456,-2.7574,-2.7612,-2.9762,-3.094,-3.1185,-3.0854,-3.1549,-3.2834,-2.9973,-2.8838,-2.9003,-2.9003,-2.9013,-2.898,-2.881,-2.8521,-2.808,-2.6713,-2.4538,-2.2673,-2.5282,-2.4509,-2.2304,-2.2306,-2.2404,-2.2723,-2.3852,-2.4196,-2.4202,-2.4207,-2.5523,-2.6585,-2.5064,-2.6098,-2.7196,-2.5668,-2.6534,-2.7507,-2.6805,-2.7393,-2.8078,-2.8139,-2.8223,-2.8301,-2.8281,-2.8652,-2.8588,-2.7584,-2.71,-2.664,-2.6143,-2.5142,-2.452,-2.4697,-2.4009,-2.3484,-2.3326,-2.2843,-2.3513,-2.5922,-2.5863,-2.6172,-2.7085,-2.2985,-1.8392,-1.3532,0.0701,0.8612,0.9772,1.3805,1.1946,0.4362,-0.8229,-1.3989,-2.5314,0.0,0.0,0.0,-2.6552,-2.7849,-2.8094,-2.7915,-2.7829,-2.8238,-2.8648,-2.9046,-2.946,-3.0351,-3.106,0.0,-3.1706,-3.2047,-3.1339,-3.1356,-3.1146,-3.0311,-3.0369,-3.0192,-2.9565,-2.8672,-2.8043,-2.7853,-2.7052,-2.6808,-2.7431,-2.8858,-2.9038,-2.762,-2.7605,-2.8293,-2.969,-2.9687,-2.9685,-2.9744,-3.2471,-3.3774,-3.3754,-3.3037,-3.3112,-3.372,-3.2371,-3.1796,-3.1782,-3.1782,-3.1795,-3.1796,-3.1788,-3.1792,-3.1384,-2.7957,-2.5928,-2.5047,-2.629,-2.5877,-2.499,-2.5904,-2.4944,-2.3499,-2.4053,-2.5515,-2.6993,-2.6993,-2.6948,-2.6842,-2.6592,-2.6658,-2.6747,-2.6618,-2.6913,-2.7451,-2.8155,-2.9038,-2.9881,-3.0463,-3.0566,-3.0566,-3.0566,-3.0668,-3.0598,-3.0149,-2.8564,-2.7328,-2.694,-2.5887,-2.5103,-2.4872,-2.4969,-2.4563,-2.3474,-2.291,-2.2888,-2.3548,-2.2529,-2.2469,-2.3793,-2.0571,-1.6008,-1.0158,0.0729,0.804,1.1505,1.0815,0.5808,-0.333,-1.4096,-2.0404,-2.6462,0.0,0.0,-2.7652,-2.973,-3.1658,-3.0775,-3.0535,-3.0592,-3.0917,-3.0911,-3.1005,-3.1487,-3.2067,-3.2398,-3.2319,-3.2997,-3.334,-3.2875,-3.2553,-3.2114,-3.128,-3.0842,-3.0576,-3.0582,-3.0306,-2.995,-2.9482,-2.9458,-2.9293,-2.8976,-3.0635,-3.0851,-2.9229,-2.9563,-3.0653,-3.24,-3.1606,-3.162,-3.2457,-3.5169,-3.6453,-3.643,-3.5548,-3.5144,-3.5155,-3.5151,-3.5348,-3.5646,-3.5664,-3.5462,-3.5049,-3.4161,-3.3795,-3.3378,-2.9925,-2.8345,-2.8014,-2.8481,-2.8088,-2.751,-2.8657,-2.7428,-2.5523,-2.5525,-2.653,-2.7871,-2.8747,-2.8162,-2.7411,-2.8035,-2.7643,-2.7101,-2.7233,-2.7769,-2.8531,-2.9536,-3.0678,-3.1727,-3.2399,-3.2539,-3.2539,-3.2539,-3.245,-3.2342,-3.2348,-3.036,-2.865,-2.8037,-2.6901,-2.5864,-2.5228,-2.5712,-2.5477,-2.3841,-2.327,-2.2506,-2.1346,-1.9458,-1.8497,-1.887,-1.67,-1.2469,-0.6179,-0.0126,0.6511,1.3674,1.0678,0.3831,-0.6694,-1.7684,-2.4944,0.0,0.0,-2.9212,-3.2285,-3.345,-3.4058,-3.507,-3.5304,-3.5136,-3.4662,-3.2894,-3.1486,-3.1502,-3.043,-2.9966,-3.1294,-3.2702,-3.3551,-3.3488,-3.3034,-3.2303,-3.1321,-2.9939,-2.9854,0.0,-3.2039,-3.2229,-3.2816,-3.1906,-3.1755,-3.2792,-3.272,-3.2812,-3.3217,-3.4628,-3.538,-3.5493,-3.265,-3.2638,-3.5491,-3.7605,-3.86,-3.8583,-3.8584,-3.8553,-3.8552,-3.8552,-3.9227,-4.0298,-4.0293,-3.9608,-3.8215,-3.5027,-3.3795,-3.3781,-3.3629,-3.2501,-3.1296,-3.2985,-3.1534,-2.8935,-2.8981,-2.8946,-2.8858,-2.886,-2.6726,-2.5018,-2.8121,-2.8968,-2.8927,-2.897,-2.9368,-2.926,-2.7134,-2.9462,-3.1873,-3.0864,-3.2051,-3.3339,-3.3359,-3.3359,-3.3359,-3.3359,-3.3314,-3.3408,-3.3871,-3.2756,-3.1383,-3.0075,-2.8513,-2.721,-2.6348,-2.6148,-2.5699,-2.466,-2.361,-2.2055,-1.9929,-1.751,-1.5104,-1.2658,-1.0617,-0.6655,-0.0368,-0.0,0.5107,1.5146,1.5267,0.9357,-0.2371,-1.7822,-2.6539,-3.0424,0.0,-3.2584,-3.4974,-3.6438,-3.7506,-3.8104,-3.7198,-3.6045,-3.5349,-3.3159,-3.1222,-3.0705,-3.041,-3.0729,-3.2313,-3.402,-3.5197,-3.5412,-3.563,-3.4927,-3.2668,-3.2236,0.0,0.0,0.0,0.0,-3.3822,-3.3298,-3.3433,-3.4668,-3.4475,-3.4059,-3.343,-3.4829,-3.4668,-3.2697,-3.3649,-3.531,-3.7667,-3.8391,-3.8722,-3.87,-3.87,-3.8702,-3.8747,-3.9534,-4.0125,-4.0496,-4.0494,-4.1604,-4.2926,-3.9566,-3.776,-3.7065,-3.7054,-3.6681,-3.5951,-3.4329,-3.3085,-3.2165,-3.2195,-3.218,-3.2194,-3.2175,-2.9947,-2.7604,-2.8699,-2.9007,-2.8994,-2.8997,-2.9155,-2.9187,-2.8758,-2.9865,-3.1391,-3.2687,-3.3492,-3.4219,-3.498,-3.4668,-3.4258,-3.4258,-3.4244,-3.4229,-3.4202,-3.2957,-3.1544,-3.022,-2.895,-2.8097,-2.786,-2.7399,-2.6573,-2.5216,-2.4244,-2.2733,-2.0415,-1.7978,-1.5877,-1.4285,-1.2317,-0.9013,-0.4295,-0.5391,-0.1666,0.7181,0.1901,-0.7703,-2.1207,-2.5543,-2.832,-3.2784,-3.4257,-3.5347,-3.8031,-3.9488,-4.0346,-4.0641,-3.9259,-3.7557,-3.6343,-3.3748,-3.1365,-3.033,-2.9831,-3.0106,-3.1725,-3.3459,-3.499,-3.6073,-3.6559,-3.6374,-3.5104,-3.4764,-3.469,0.0,0.0,0.0,-3.503,-3.506,-3.5325,-3.5945,-3.584,-3.5437,-3.4779,-3.531,-3.5062,-3.3891,-3.577,-3.7379,-3.8711,-3.9878,-4.0413,-4.0425,-4.0421,-4.0694,-4.1205,-4.1993,-4.2316,-4.2317,-4.2336,-4.3618,-4.538,-4.3166,-4.1859,-4.1098,-4.0592,-4.0412,-3.997,-3.6673,-3.4772,-3.3972,-3.5164,-3.4758,-3.3805,-3.3795,-3.236,-3.0734,-3.0717,-3.0717,-3.0736,-3.072,-2.9855,-2.9083,-2.9382,-3.0953,-3.2831,-3.4422,-3.5171,-3.5605,-3.5937,-3.5801,-3.5527,-3.5215,-3.5135,-3.501,-3.4704,-3.3573,-3.2203,-3.0632,-2.9528,-2.8778,-2.8632,-2.8228,-2.735,-2.592,-2.5037,-2.3761,-2.1879,-1.9318,-1.7202,-1.5581,-1.34,-1.1112,-0.8466,-0.8203,-0.6883,-0.4489,-1.2788,-2.2063,-3.1882,-3.0167,-2.9626,-3.471,-3.6012,-3.7477,-4.1354,-4.2326,-4.2441,-4.2647,-4.1377,-3.9571,-3.7408,-3.4412,-3.1661,0.0,0.0,-2.817,-2.9779,-3.1447,-3.3386,-3.572,-3.6238,-3.6897,0.0,0.0,0.0,0.0,0.0,0.0,-3.6593,0.0,-3.7387,-3.6952,-3.6912,-3.6994,-3.7268,-3.6284,-3.6732,-3.8686,-3.8914,-3.9045,-3.9098,-4.2118,-4.3558,-4.3596,-4.3624,-4.4334,-4.5588,-4.5589,-4.5592,-4.5596,-4.5599,-4.5599,-4.5599,-4.5592,-4.5607,-4.543,-4.4094,-4.3559,-4.3062,-3.9997,-3.6787,-3.4553,-3.7679,-3.6591,-3.4018,-3.3844,-3.3805,-3.381,-3.3802,-3.379,-3.3809,-3.3795,-3.1575,-2.9326,-2.9336,-3.2736,-3.5974,-3.6002,-3.6884,-3.7363,-3.6289,-3.6738,-3.7051,-3.6269,-3.5997,-3.5788,-3.5445,-3.4661,-3.3382,-3.137,-3.0193,-2.9326,-2.8778,-2.865,-2.8062,-2.6664,-2.5893,-2.4953,-2.3852,-2.135,-1.8815,-1.6249,-1.3857,-1.2606,-1.2736,-0.8976,-1.0423,-1.744,-2.625,-3.167,-3.3746,-3.1574,-3.0508,-3.7534,-3.9098,-4.0299,-4.2123,-4.2922,-4.3041,-4.2534,-4.0362,-3.7859,-3.5547,-3.184,-2.8517,0.0,0.0,0.0,-3.0232,-3.3603,0.0,-3.8057,-4.0105,0.0,-3.9138,0.0,-4.0019,-3.9475,-4.0385,0.0,0.0,-3.9185,-3.9137,-3.9908,-3.9598,-3.904,-3.8343,-3.8058,-3.815,-3.8685,-4.2098,-4.3823,-4.3845,-4.4176,-4.458,-4.5044,-4.5067,-4.5246,-4.56,-4.5592,-4.5607,-4.5603,-4.5603,-4.5603,-4.5603,-4.5608,-4.5592,-4.5559,-4.5194,-4.4417,-4.3388,-4.2563,-4.0178,-3.7595,-3.8442,-3.814,-3.6974,-3.4538,-3.3816,-3.3807,-3.3781,-3.3789,-3.3787,-3.379,-3.3811,-3.3846,-3.384,-3.4764,-3.5694,-3.5942,-3.6829,-3.7441,-3.7031,-3.7148,-3.7441,-3.7851,-3.6795,-3.6016,-3.6363,-3.5277,-3.393,-3.2668,-3.1399,-3.0445,-3.0045,-2.92,-2.824,-2.7339,-2.647,-2.5396,-2.3865,-2.2576,-2.0783,-1.8557,-1.6928,-1.6805,-1.848,-1.7507,-1.4447,-0.9294,-1.7419,-2.5659,-3.3784,-3.3198,-3.2015,-3.9075,-4.0293,-4.1123,-4.2078,-4.2271,-4.1941,-4.0595,-3.8515,-3.6031,-3.3154,-3.0026,0.0,-2.5763,0.0,0.0,0.0,0.0,0.0,-3.8385,-4.0779,-4.2063,0.0,-4.2331,0.0,-4.1792,-4.2525,-4.2876,0.0,-4.1266,-4.0778,-4.1274,-4.104,-4.0526,-3.9788,-3.9335,-3.9939,-4.1694,-4.4302,-4.5588,-4.5609,-4.5238,-4.5242,-4.5594,-4.5602,-4.561,-4.561,-4.559,-4.5586,-4.5586,-4.5586,-4.5586,-4.5586,-4.5586,-4.561,-4.5609,-4.56,-4.5105,-4.432,-4.3698,-4.2333,-4.0566,-3.914,-3.8693,-3.837,-3.6503,-3.5957,-3.5944,-3.5964,-3.4907,-3.3798,-3.3794,-3.4663,-3.5873,-3.734,-3.6581,-3.594,-3.761,-3.8078,-3.8202,-3.8339,-3.8047,-3.7969,-3.8516,-3.7441,-3.6612,-3.6936,-3.5809,-3.4645,-3.3784,-3.2722,-3.1736,-3.0855,-2.9968,-2.9056,-2.8101,-2.7226,-2.6321,-2.5279,-2.4284,-2.3364,-2.2523,-2.0078,-2.0116,-2.3123,-2.3187,-2.0687,-1.5645,-2.0067,-2.5812,-3.2685,-3.3436,-3.3111,-3.9853,-4.0531,-4.0895,-4.1548,-4.1096,-4.0024,-3.8008,-3.6242,-3.4039,-3.0545,0.0,-2.7016,-2.5531,-2.4779,-2.53,-2.8072,0.0,-3.2915,-3.7996,-4.0144,-4.204,-4.4322,-4.4631,-4.4527,-4.4117,-4.4028,-4.3998,-4.4076,-4.3111,-4.2377,-4.2016,-4.2025,-4.1935,-4.1699,-4.0858,-4.2088,-4.5551,-4.5612,-4.5608,-4.5594,-4.5598,-4.5682,-4.5812,-4.5668,-4.572,-4.593,-4.5701,-4.5682,-4.5817,-4.5778,-4.5836,-4.5932,-4.5932,-4.5893,-4.5837,-4.5838,-4.5731,-4.543,-4.4204,-4.3658,-4.3044,-4.0235,-3.9127,-3.8852,-3.8749,-3.8702,-3.8707,-3.8707,-3.6636,-3.4348,-3.3904,-3.4647,-3.6348,-3.9704,-3.794,-3.6372,-3.949,-3.9588,-3.9245,-3.9761,-3.9177,-3.8652,-3.8906,-3.8125,-3.748,-3.7559,-3.6508,-3.5502,-3.4878,-3.4064,-3.2967,-3.1559,-3.1028,-3.0325,-2.9102,-2.8307,-2.771,-2.7308,-2.6306,-2.5954,-2.6454,-2.321,-2.2999,-2.6416,-2.6953,-2.748,-2.8121,-2.8126,-2.938,-3.1816,-3.2912,-3.3595,-4.0779,-4.1192,-4.1505,-4.1143,-4.0436,-3.9185,-3.6897,-3.4408,0.0,0.0,-2.6757,-2.5531,-2.4575,-2.4968,0.0,-2.9676,0.0,0.0,0.0,0.0,-4.3196,0.0,0.0,0.0,0.0,0.0,0.0,0.0,-4.4005,-4.3826,-4.4086,-4.4244,-4.4487,-4.4801,-4.4652,-4.4878,-4.5591,-4.5609,-4.5609,-4.5611,-4.5609,-4.6088,-4.6973,-4.603,-4.6373,-4.7585,-4.62,-4.6124,-4.699,-4.6778,-4.7067,-4.7663,-4.7663,-4.7395,-4.701,-4.7012,-4.6414,-4.557,-4.5323,-4.4471,-4.3423,-4.2846,-4.1394,-3.9717,-3.8951,-3.8688,-3.8682,-3.8701,-3.8272,-3.722,-3.4502,-3.4658,-3.636,-3.9692,-3.7935,-3.6032,-3.8022,-3.8989,-3.9744,-4.0597,-4.0064,-3.9746,-4.0605,-3.9434,-3.8613,-3.9336,-3.7982,-3.6782,-3.6447,-3.4847,-3.3591,-3.3141,-3.2321,-3.1626,-3.1096,-3.0316,-2.9557,-2.8956,-2.8119,-2.726,-2.6552,-2.5866,-2.5815,-2.6508,-2.9196,-3.0692,-3.0841,-3.084,-3.2185,-3.4783,-3.2644,-3.2406,-4.1789,-4.1578,-4.1268,-4.0949,-3.9904,-3.8096,-3.4924,0.0,0.0,0.0,-2.5504,-2.4943,-2.4449,0.0,0.0,0.0,0.0,0.0,0.0,0.0,0.0,0.0,0.0,0.0,0.0,0.0,0.0,-4.5442,-4.5313,-4.5098,-4.4868,-4.5129,-4.5373,-4.5589,-4.5608,-4.5601,-4.5586,-4.5603,-4.5603,-4.5586,-4.5586,-4.6201,-4.7278,-4.7026,-4.7334,-4.8008,-4.6318,-4.5914,-4.6492,-4.7567,-4.822,-4.8586,-4.8586,-4.8221,-4.7818,-4.874,-4.8721,-4.7988,-4.623,-4.5157,-4.4489,-4.3751,-4.2742,-4.1794,-4.132,-4.1181,-4.0854,-3.9171,-3.8701,-3.8329,-3.6747,-3.7235,-3.8509,-4.0111,-3.9273,-3.8151,-3.8373,-3.9296,-4.0239,-4.0793,-4.0551,-4.0469,-4.1094,-4.0137,-3.9414,-3.9844,-3.8789,-3.7864,-3.765,-3.6291,-3.5072,-3.4372,-3.3465,-3.2772,-3.2561,-3.1597,-3.0649,-2.9866,-2.9272,-2.8641,-2.782,-2.7809,-2.8889,-3.1152,-2.9707,-2.9761,-3.1518,-3.1503,-3.2892,-3.5577,-3.4144,-3.4516,-4.2117,-4.1687,-4.1087,-4.1087,-3.9421,-3.6872,-3.3306,-3.08,0.0,0.0,-2.4756,-2.4746,-2.4545,0.0,0.0,0.0,0.0,0.0,0.0,0.0,0.0,0.0,0.0,0.0,0.0,0.0,0.0,-4.6636,-4.6579,-4.6271,-4.5755,-4.588,-4.6009,-4.6123,-4.6026,-4.595,-4.5873,-4.5699,-4.5586,-4.5586,-4.5586,-4.6163,-4.724,-4.7967,-4.8237,-4.8029,-4.6722,-4.6357,-4.68,-4.8221,-4.9028,-4.9355,-4.9355,-4.9086,-4.8817,-5.0182,-5.0701,-5.0201,-4.6776,-4.5598,-4.5411,-4.4315,-4.3751,-4.3502,-4.3487,-4.3023,-4.1963,-3.9397,-3.8787,-3.8869,-3.8745,-3.9603,-4.0509,-4.0488,-4.0504,-4.0254,-3.9354,-4.0065,-4.085,-4.0793,-4.0948,-4.1094,-4.1191,-4.0625,-4.0176,-4.0176,-3.9434,-3.8848,-3.873,-3.78,-3.6825,-3.5975,-3.4818,-3.4066,-3.3927,-3.2983,-3.1935,-3.087,-3.041,-3.0163,-3.0106,-3.004,-3.1521,-3.4783,-3.0244,-2.8864,-3.096,-3.191,-3.3193,-3.4739,-3.5307,-3.67,-4.078,-4.1237,-4.1725,-4.1725,-3.8899,-3.5545,-3.3269,0.0,0.0,-2.4796,-2.4576,-2.4746,-2.4545,-2.4654,-2.5258,0.0,0.0,-3.0111,0.0,0.0,0.0,0.0,0.0,0.0,0.0,0.0,0.0,-4.7838,-4.7473,-4.7376,-4.7799,-4.7376,-4.7355,-4.785,-4.739,-4.7043,-4.6775,-4.6007,-4.5586,-4.5586,-4.5586,-4.6067,-4.699,-4.8315,-4.8623,-4.8086,-4.7952,-4.8759,-5.0106,-4.8741,-4.9125,-5.0529,-5.0529,-5.051,-5.0471,-5.0645,-5.0702,-5.0201,-4.68,-4.5589,-4.5595,-4.5452,-4.4535,-4.3491,-4.3483,-4.1449,-3.9071,-3.8771,-3.9095,-3.9405,-3.8846,-3.9596,-4.0492,-4.0501,-4.0513,-4.0476,-4.0373,-4.1239,-4.1793,-4.0889,-4.1395,-4.1816,-4.1289,-4.1133,-4.1074,-4.1074,-4.0332,-3.9785,-3.9766,-3.8885,-3.8395,-3.8777,-3.7,-3.5741,-3.5576,-3.5268,-3.4297,-3.2517,-3.1711,-3.2053,-3.3667,-3.3304,-3.2989,-3.28,-3.2282,-3.1082,-2.9265,-3.3225,-3.4014,-3.1939,-3.444,-3.6703,-4.0769,-4.1741,-4.2342,-4.2342,-3.9571,-3.6232,-3.3822,0.0,-2.74,-2.5327,-2.4998,-2.5037,-2.4831,-2.4877,-2.5045,-2.5419,-2.5925,0.0,0.0,0.0,0.0,0.0,0.0,0.0,0.0,0.0,-4.7722,-4.8568,-4.9067,-4.945,-4.9666,-4.8471,-4.774,-4.7605,-4.7413,-4.6932,-4.6127,-4.5778,-4.5586,-4.5586,-4.5586,-4.6297,-4.7625,-4.7874,-4.8586,-4.9663,-4.9663,-5.0067,-5.0644,-4.9933,-5.0067,-5.0702,-5.0702,-5.0702,-5.0702,-5.0702,-5.0683,-5.0202,-4.6781,-4.5592,-4.5609,-4.5612,-4.4643,-4.3138,-4.12,-3.9722,-3.8696,-3.8716,-3.9113,-3.9634,-3.974,-3.9608,-3.9603,-4.0325,-4.0507,-4.1053,-4.3137,-4.2313,-4.1492,-4.2544,-4.2603,-4.2344,-4.1973,-4.1914,-4.1726,-4.1166,-4.0855,-4.0644,-4.0566,-3.9824,-3.9546,-4.0203,-3.8497,-3.7355,-3.7435,-3.6347,-3.5413,-3.4988,-3.3866,-3.3253,-3.3328,-3.4861,-3.5587,-3.5202,-3.415,-3.2771,-3.1205,-3.4104,-3.4954,-3.397,-3.6948,-3.7755,-3.9937,-4.149,-4.2534,-4.2825,-3.9933,-3.6414,0.0,0.0,-2.7275,-2.5644,-2.5303,-2.5253,-2.5034,-2.5046,-2.4993,-2.4636,-2.4907,-2.5955,-2.825,0.0,0.0,0.0,0.0,0.0,0.0,0.0,-4.9298,-4.949,-5.0547,-5.0982,-5.0493,-4.9283,-4.8316,-4.7623,-4.7355,-4.6701,-4.5663,-4.5514,-4.5458,-4.5458,-4.5819,-4.6605,-4.7759,-4.7875,-4.8664,-4.9948,-5.049,-5.0987,-5.1408,-5.0891,-5.0699,-5.0692,-5.0701,-5.0702,-5.0702,-5.0702,-5.0702,-5.0279,-4.7338,-4.6012,-4.5611,-4.5608,-4.4738,-4.3232,-4.0644,-3.9552,-3.914,-3.8921,-3.9246,-3.9704,-4.0184,-3.9785,-3.9449,-4.029,-4.1276,-4.2662,-4.5095,-4.3698,-4.2376,-4.366,-4.3744,-4.3372,-4.2622,-4.2388,-4.1993,-4.1067,-4.1057,-4.1101,-4.1015,-4.0586,-4.0488,-4.0996,-3.9851,-3.905,-3.9144,-3.7564,-3.6601,-3.6659,-3.5663,-3.4516,-3.3349,-3.5514,-3.6694,-3.6583,-3.4973,-3.3938,-3.3476,-3.4259,-3.4908,-3.5579,-3.8199,-3.8254,-3.7709,-4.0126,-4.2203,-4.3076,-3.9595,-3.5526,0.0,0.0,-2.606,-2.5426,-2.5303,-2.5253,-2.5034,-2.5163,-2.5201,-2.4861,-2.5473,-2.6585,-2.8256,0.0,0.0,0.0,0.0,0.0,0.0,0.0,-5.1529,-5.0741,-5.1741,-5.1655,-4.9997,-4.9902,-4.9401,-4.8319,-4.7452,-4.6613,-4.5817,-4.5347,-4.5118,-4.5118,-4.632,-4.6913,-4.6971,-4.8625,-4.8909,-4.8219,-4.9944,-5.1644,-5.3043,-5.1369,-5.0706,-5.0697,-5.0696,-5.0702,-5.0702,-5.0702,-5.0702,-5.0452,-4.8682,-4.6991,-4.5608,-4.5587,-4.4968,-4.3988,-4.2894,-4.1473,-4.0157,-3.9472,-3.9433,-3.9644,-3.9862,-4.0196,-4.049,-4.0509,-4.3079,-4.556,-4.5596,-4.5563,-4.5124,-4.3701,-4.4703,-4.5121,-4.3058,-4.2373,-4.1821,-4.0929,-4.0912,-4.1006,-4.0991,-4.1113,-4.1191,-4.1191,-4.1055,-4.0881,-4.0684,-3.9327,-3.8086,-3.7149,-3.6693,-3.5894,-3.4508,-3.5205,-3.5585,-3.5489,-3.4528,-3.4514,-3.5474,-3.3537,-3.3638,-3.5519,-3.709,-3.7698,-3.3752,-3.5522,-3.685,-3.7155,-3.4792,-3.2185,-3.1305,-2.8555,-2.6022,-2.5426,-2.5303,-2.5274,-2.5214,-2.5264,-2.5425,-2.5761,-2.592,-2.6381,-2.745,0.0,0.0,0.0,0.0,0.0,0.0,0.0,-5.1317,-5.1817,-5.1471,-5.1001,-5.0474,-4.9762,-4.9201,-4.8861,-4.7636,-4.6873,-4.661,-4.5539,-4.5133,-4.5451,-4.5821,-4.6607,-4.7741,-4.8279,-4.9024,-4.9863,-4.9877,-4.9873,-5.0032,-5.2329,-5.2045,-5.0259,-5.1427,-5.1375,-5.0702,-5.0702,-5.0702,-5.0452,-4.8702,-4.6685,-4.4908,-4.4909,-4.4353,-4.3567,-4.2772,-4.173,-4.0625,-3.9472,-3.9848,-4.044,-4.0015,-3.9581,-4.0062,-4.3235,-4.4802,-4.5601,-4.5601,-4.5603,-4.549,-4.5105,-4.5459,-4.5426,-4.4259,-4.396,-4.3355,-4.184,-4.1711,-4.1512,-4.0879,-4.0955,-4.1055,-4.1055,-4.1113,-4.0955,-4.0519,-3.9986,-3.964,-3.9569,-3.9052,-3.8333,-3.7397,-3.8239,-3.8177,-3.7086,-3.7223,-3.7245,-3.7049,-3.5427,-3.5437,-3.711,-3.7954,-3.8589,0.0,-3.2524,-3.3727,-3.4028,-3.226,0.0,0.0,-2.7471,-2.557,-2.5187,-2.5115,-2.5115,-2.5115,-2.5115,-2.5256,-2.5735,-2.5849,-2.6352,-2.7619,0.0,0.0,0.0,0.0,0.0,0.0,-5.1663,-5.2163,-5.2201,-5.1875,-5.1308,-5.0512,-4.9846,-4.9409,-4.9248,-4.7535,-4.6289,-4.5674,-4.5081,-4.4938,-4.5217,-4.6126,-4.6972,-4.7818,-4.8702,-4.9656,-5.0651,-4.9839,-4.9497,0.0,-5.1858,-5.1833,-5.0531,-5.1427,-5.1318,-5.0702,-5.0702,-5.0702,-5.0491,-4.9086,-4.7568,-4.6156,-4.5466,-4.4541,-4.3472,-4.2304,-4.1434,-4.0609,-3.9663,-4.004,-4.0675,-4.0416,-3.9867,-4.0271,-4.3886,-4.5169,-4.5584,-4.5603,-4.5586,-4.5605,-4.5719,-4.5719,-4.5432,-4.4549,-4.4487,-4.3948,-4.2181,-4.2002,-4.1846,-4.1274,-4.1021,-4.1045,-4.1376,-4.1201,-4.0901,-4.0537,-4.0367,-4.0329,-4.0461,-4.0004,-3.9228,-3.8116,-3.8904,-3.8688,-3.7239,-3.8212,-3.8391,-3.7773,-3.7413,-3.7763,-3.8681,-3.8689,-3.8957,0.0,0.0,0.0,0.0,0.0,0.0,0.0,-2.6496,0.0,-2.4804,-2.4804,-2.4823,-2.4879,-2.4842,-2.4898,-2.519,-2.5596,-2.6592,0.0,0.0,0.0,0.0,0.0,0.0,-4.951,-5.251,-5.3741,-5.2125,-5.2626,-5.2195,-5.0255,-5.0135,-4.9867,-4.9391,-4.7163,-4.522,-4.3674,-4.428,-4.4612,-4.4688,-4.6872,-4.7779,-4.7606,-4.9721,-5.0694,-5.0651,-4.9853,-5.0244,-5.1318,-5.0373,-5.0462,-5.1179,-5.0909,-5.0741,-5.0702,-5.0702,-5.0702,-5.0567,-4.9702,-4.9202,-4.8645,-4.6727,-4.5127,-4.3615,-4.1756,-4.0812,-4.028,-4.0007,-4.0147,-4.0509,-4.0997,-4.0969,-4.1211,-4.2901,-4.4467,-4.5608,-4.5608,-4.5569,-4.5531,-4.555,-4.555,-4.5186,-4.4149,-4.4187,-4.3822,-4.2305,-4.2069,-4.2063,-4.2024,-4.1331,-4.1174,-4.1998,-4.1328,-4.0773,-4.0716,-4.055,-4.0387,-4.0192,-3.9815,-3.892,-3.7387,-3.7966,-3.7781,-3.6522,-3.7862,-3.8366,-3.7968,-3.9323,-4.0054,-4.0072,-3.9324,-3.8987,-2.5337,0.0,-2.6628,-2.6817,-2.642,-2.5933,0.0,0.0,-2.4804,0.0,0.0,0.0,0.0,-2.5223,-2.5408,-2.7308,-2.7565,-2.8241,-3.02,0.0,0.0,0.0,0.0,0.0,-5.1356,-5.2645,-5.3337,-5.2933,-5.1895,-5.1067,-5.0603,-5.0272,-4.9477,-4.809,-4.7304,-4.6365,-4.5263,-4.4613,-4.4638,-4.5365,-4.5937,-4.7491,-4.9913,-5.0471,-5.0696,-5.067,-5.0073,-4.9986,-5.0316,-5.0786,-5.0741,-5.046,-5.1293,-5.1241,-5.0702,-5.0702,-5.0702,-5.0567,-4.9702,-4.8988,-4.7987,-4.5084,-4.3918,-4.3413,-4.2338,-4.1507,-4.0749,-4.0097,-4.0572,-4.1311,-4.1449,-4.2557,-4.3554,-4.3234,-4.441,-4.5599,-4.5599,-4.5214,-4.4887,-4.5019,-4.4943,-4.4811,-4.4678,-4.4716,-4.4759,-4.4706,-4.3675,-4.2732,-4.2217,-4.1641,-4.1463,-4.1959,-4.1289,-4.0773,-4.0716,-4.0997,-4.1125,-4.1016,-4.0884,-4.0381,-3.9436,-3.9652,-3.9391,-3.8528,-4.0149,-4.0581,-3.9711,-3.9248,-3.9323,-3.986,-3.9593,-3.9534,-2.4228,-2.4357,-2.451,-2.451,-2.451,-2.451,-2.451,0.0,0.0,0.0,0.0,0.0,0.0,0.0,0.0,-2.7359,-2.8278,0.0,0.0,0.0,0.0,0.0,0.0,0.0,0.0,-5.328,-5.3626,-5.3241,-5.1991,-5.1087,-5.0721,-5.0483,-4.9997,-4.9135,-4.86,-4.7326,-4.5313,-4.4934,-4.5195,-4.6117,-4.6666,-4.7701,-4.9182,-5.0221,-5.07,-5.0687,-5.0145,-5.003,-5.0297,-5.0626,-5.0608,-5.0438,-5.1084,-5.1087,-5.0702,-5.0702,-5.0702,-5.0625,-5.0164,-4.9209,-4.7707,-4.4524,-4.3509,-4.3406,-4.2996,-4.2555,-4.2007,-4.1075,-4.107,-4.1533,-4.226,-4.3271,-4.3952,-4.3399,-4.3976,-4.4813,-4.5469,-4.5085,-4.4523,-4.4316,-4.4353,-4.4504,-4.4832,-4.4896,-4.494,-4.5136,-4.4291,-4.3355,-4.2465,-4.1632,-4.1412,-4.214,-4.1195,-4.0511,-4.0604,-4.073,-4.0722,-4.0523,-4.0502,-4.0221,-3.9657,-3.9935,-4.0073,-4.0058,-4.0388,-4.0732,-4.1073,-4.0063,-3.9662,-3.9801,-3.954,-3.9347,-2.419,-2.4281,-2.4337,-2.4169,-2.4113,-2.4113,-2.4074,0.0,0.0,0.0,0.0,0.0,0.0,0.0,0.0,0.0,0.0,0.0,0.0,0.0,0.0,0.0,0.0,0.0,-5.276,-5.3606,-5.3799,-5.3068,-5.2202,-5.1414,-5.0741,-5.0702,-5.0683,-5.0683,-4.9987,-4.8162,-4.5078,-4.5475,-4.6031,-4.6782,-4.7817,-4.8073,-4.7733,-4.9663,-5.0587,-5.0683,-5.0221,-5.0284,-5.0663,-5.0336,-5.0399,-5.0702,-5.0702,-5.0702,-5.0702,-5.0702,-5.0702,-5.07,-5.0701,-4.9744,-4.7937,-4.4587,-4.3498,-4.3495,-4.3502,-4.3502,-4.3306,-4.2415,-4.1647,-4.1464,-4.3075,-4.3509,-4.3491,-4.3491,-4.3501,-4.3847,-4.502,-4.4823,-4.425,-4.3613,-4.3828,-4.4231,-4.4616,-4.4689,-4.4444,-4.3807,-4.3697,-4.3369,-4.2412,-4.1378,-4.112,-4.2163,-4.092,-4.0138,-4.0336,-4.0157,-3.988,-3.9534,-3.9576,-3.9505,-3.9264,-3.9652,-4.0259,-4.1054,-3.9946,-4.0171,-4.1799,-4.0872,-4.019,-3.9749,-3.9333,-3.8936,-2.4113,-2.4685,-2.4976,-2.4018,-2.3774,-2.3692,-2.3414,0.0,0.0,0.0,0.0,0.0,0.0,0.0,0.0,0.0,0.0,0.0,0.0,0.0,0.0,0.0,0.0,-5.1702,-5.1144,-5.1818,-5.2241,-5.2125,-5.1337,-5.0818,-5.0702,-5.0702,-5.0356,-4.9644,-4.9722,-4.8766,-4.667,-4.6829,-4.6993,-4.714,-4.7319,-4.8044,-4.9265,-4.9616,-5.0106,-5.0702,-5.0605,-5.0605,-5.0702,-5.0624,-5.0624,-5.0702,-5.0702,-5.0702,-5.0702,-5.0702,-5.0694,-5.0684,-5.0692,-5.0518,-4.9544,-4.4995,-4.3493,-4.3493,-4.3503,-4.3481,-4.3453,-4.3311,-4.22,-4.147,-4.3094,-4.3511,-4.3508,-4.3508,-4.352,-4.3553,-4.3789,-4.3753,-4.3627,-4.3517,-4.3553,-4.3627,-4.3716,-4.3716,-4.2783,-4.0024,-4.0734,-4.1501,-4.1335,-4.0785,-4.0578,-4.1091,-4.0259,-3.9687,-3.9735,-3.969,-3.9529,-3.9205,-3.9438,-3.969,-3.9922,-4.0233,-4.0547,-4.0907,-4.0675,-4.0665,-4.0912,-4.0079,-3.9656,-3.9614,-3.9463,-3.9,-2.4113,-2.4465,-2.4681,-2.4429,-2.4649,-2.4779,-2.4211,0.0,0.0,0.0,0.0,0.0,0.0,0.0,0.0,0.0,0.0,0.0,0.0,0.0,0.0,0.0,0.0,-5.1279,-5.1337,-5.1683,-5.1914,-5.1914,-5.1144,-5.0702,-5.0702,-5.0702,-5.0548,-5.0221,-4.9876,-4.9084,-4.7826,-4.7403,-4.7466,-4.801,-4.7942,-4.8769,-5.0398,-5.0342,-5.0452,-5.0702,-5.0702,-5.0433,-5.0029,-5.051,-5.0414,-5.0029,-5.051,-5.0702,-5.0682,-5.0713,-5.0155,-4.9421,-4.9401,-4.8764,-4.7454,-4.4464,-4.4003,-4.448,-4.372,-4.3491,-4.35,-4.3493,-4.2965,-4.2561,-4.3296,-4.3497,-4.3497,-4.3497,-4.3497,-4.3497,-4.3497,-4.3497,-4.3497,-4.3497,-4.3497,-4.3222,-4.2347,-4.2451,-4.2047,-4.0269,-4.039,-4.0661,-4.0672,-4.0331,-4.0202,-4.0529,-3.9825,-3.9389,-3.9599,-3.9599,-3.9534,-3.9364,-3.9339,-3.9571,-4.0078,-4.0262,-4.0496,-4.0843,-4.0829,-4.0743,-4.0584,-4.0118,-3.9778,-3.9576,-3.8787,-3.8311,-2.3996,-2.4279,-2.4518,-2.4693,0.0,-2.5541,-2.5793,0.0,0.0,0.0,0.0,0.0,0.0,0.0,0.0,0.0,0.0,0.0,0.0,0.0,-4.7167,-4.8309,-4.9758,-5.0933,-5.1568,-5.1625,-5.1625,-5.1625,-5.1048,-5.0702,-5.0702,-5.0702,-5.0741,-5.0856,-5.024,-4.9459,-4.858,-4.7747,-4.7777,-4.8649,-4.8549,-4.9409,-5.1042,-5.0962,-5.0837,-5.0683,-5.0471,-5.001,-4.9452,-5.0048,-4.9913,-4.9394,-5.0337,-5.0682,-5.0638,-5.0288,-4.9351,-4.8303,-4.8299,-4.7099,-4.5369,-4.3958,-4.444,-4.5387,-4.4322,-4.3759,-4.3497,-4.3494,-4.3502,-4.3487,-4.3495,-4.3497,-4.3497,-4.3497,-4.3497,-4.3497,-4.3497,-4.3497,-4.3497,-4.3497,-4.2894,-4.2221,-4.1745,-4.1357,-4.1005,-4.0606,-4.0207,-3.9945,-3.9928,-3.9748,-3.9712,-3.9896,-3.9367,-3.9144,-3.9457,-3.9427,-3.9427,-3.9519,-3.9257,-3.9327,-3.9845,-3.9967,-4.0165,-4.0574,-4.0616,-4.0539,-4.0345,-4.0171,-3.9834,-3.9302,-3.835,-3.7861,-2.3631,-2.4504,-2.5126,-2.4427,-2.4062,0.0,-2.8174,-2.8441,0.0,0.0,0.0,0.0,0.0,0.0,0.0,0.0,0.0,0.0,0.0,0.0,-4.8466,-4.9297,-5.0172,-5.0721,-5.0779,-5.0779,-5.0779,-5.0779,-5.0721,-5.0702,-5.0702,-5.0702,-5.0702,-5.0702,-5.0779,-5.0141,-4.8793,-4.8113,-4.8001,-4.8502,-4.8502,-4.935,-5.0894,-5.0914,-5.0837,-5.0644,-4.9837,-4.9452,-4.9394,-4.9202,-4.9086,-4.9144,-5.026,-5.0694,-5.0536,-4.9021,-4.8401,-4.8287,-4.8309,-4.7122,-4.5358,-4.3961,-4.4439,-4.5559,-4.5488,-4.4542,-4.3498,-4.349,-4.3489,-4.348,-4.3511,-4.3497,-4.3497,-4.3497,-4.3497,-4.3497,-4.3497,-4.3497,-4.3497,-4.3497,-4.1095,-3.9938,-4.2839,-4.0873,-3.8915,-3.8879,-3.8834,-3.8821,-3.8823,-3.8799,-3.8781,-3.8799,-3.8756,-3.8844,-3.9125,-3.8913,-3.891,-3.9293,-3.9181,-3.9125,-3.9178,-3.9282,-3.9519,-3.987,-4.0065,-4.006,-3.9858,-3.9827,-3.9359,-3.8493,-3.8767,-3.8313,-2.3544,-2.4759,-2.5706,-2.5086,0.0,0.0,0.0,0.0,0.0,0.0,0.0,0.0,0.0,0.0,0.0,0.0,0.0,0.0,0.0,-4.7859,-4.9249,-4.9808,-5.0358,-5.0702,-5.0702,-5.0702,-5.0702,-5.0702,-5.0202,-4.9894,-4.9894,-4.9894,-4.9894,-4.9894,-4.9217,-4.8589,-4.8075,-4.7055,-4.6891,-4.7577,-4.7818,-4.8855,-5.0535,-5.0718,-5.0452,-4.9875,-4.9529,-4.8817,-4.7913,-4.8663,-4.8586,-4.8143,-4.9971,-5.0699,-5.0505,-4.8881,-4.8277,-4.8029,-4.6001,-4.4875,-4.4226,-4.3681,-4.3845,-4.4457,-4.5323,-4.5218,-4.4203,-4.1324,-4.1967,-4.349,-4.3502,-4.3477,-4.3493,-4.3513,-4.3497,-4.3497,-4.3497,-4.3497,-4.3497,-4.3497,-4.253,-4.1439,-4.0672,-4.0357,-3.9845,-3.8839,-3.8706,-3.87,-3.8707,-3.8707,-3.8707,-3.8707,-3.8707,-3.8851,-3.921,-3.891,-3.887,-3.9266,-3.9036,-3.8855,-3.8855,-3.9054,-3.9275,-3.9489,-3.9681,-3.9762,-3.9669,-3.9975,-3.9667,-3.884,-3.8991,-3.8803,-2.2904,-2.3997,-2.4972,0.0,0.0,0.0,0.0,0.0,0.0,0.0,0.0,0.0,0.0,0.0,0.0,0.0,0.0,0.0,-4.6264,-4.8047,-4.9475,-4.9853,-5.0272,-5.0565,-5.0683,-5.0702,-5.0702,-5.0702,-4.9894,-4.9394,-4.9394,-4.9144,-4.899,-4.899,-4.8097,-4.7647,-4.7775,-4.638,-4.61,-4.703,-4.6917,-4.7991,-5.0047,-5.0371,-5.0043,-4.9199,-4.9048,-4.8182,-4.6951,-4.7644,-4.7471,-4.7029,-4.9663,-5.0703,-5.0505,-4.8889,-4.8302,-4.7863,-4.4624,-4.3502,-4.3497,-4.3483,-4.3484,-4.3753,-4.5172,-4.5613,-4.4715,-4.0457,-4.0577,-4.2307,-4.3781,-4.3822,-4.3494,-4.3511,-4.3497,-4.3497,-4.3497,-4.3497,-4.3499,-4.3487,-4.3231,-4.2249,-4.0058,-4.0307,-4.044,-3.9345,-3.9127,-3.9001,-3.8726,-3.8707,-3.8707,-3.8707,-3.8707,-3.881,-3.9073,-3.884,-3.8608,-3.8368,-3.8582,-3.8707,-3.8707,-3.8711,-3.8762,-3.8855,-3.8943,-3.8923,-3.885,-3.9435,-3.929,-3.8499,-3.8912,-3.9001,-2.1611,-2.2114,0.0,0.0,0.0,0.0,0.0,0.0,0.0,0.0,0.0,0.0,0.0,0.0,0.0,0.0,-4.4323,-4.5883,-4.5902,-4.762,-4.9024,-4.9426,-4.9834,-5.021,-5.0644,-5.0664,-5.0664,-5.0664,-4.9875,-4.9375,-4.9375,-4.8567,-4.8086,-4.8086,-4.7771,-4.7775,-4.8155,-4.6274,-4.589,-4.7076,-4.5871,-4.6761,-4.9485,-4.9905,-4.9616,-4.8757,-4.8278,-4.7644,-4.6836,-4.5954,-4.5609,-4.5936,-4.9335,-5.0641,-5.0469,-4.8895,-4.831,-4.781,-4.4625,-4.349,-4.3479,-4.3479,-4.3504,-4.3759,-4.5164,-4.5571,-4.4843,-4.1456,-3.9671,-3.9833,-4.44,-4.4561,-4.3491,-4.349,-4.3497,-4.3497,-4.3497,-4.3497,-4.3503,-4.35,-4.2571,-4.1764,-4.1753,-4.0885,-4.0166,-4.0203,-4.0026,-3.9588,-3.8799,-3.8707,-3.8707,-3.8707,-3.8707,-3.8707,-3.8707,-3.8707,-3.8034,-3.6424,-3.7802,-3.8707,-3.8689,-3.8183,-3.7893,-3.7893,-3.7713,-3.7452,-3.721,-3.802,-3.7987,-3.7248,-3.8529,-3.885,-2.2332,0.0,0.0,0.0,0.0,0.0,0.0,0.0,0.0,0.0,0.0,0.0,0.0,0.0,0.0,-4.2359,-4.3846,-4.5259,-4.581,-4.6657,-4.7324,-4.7693,-4.8087,-4.8474,-4.8837,-4.8875,-4.8875,-4.8875,-4.8105,-4.7644,-4.7644,-4.7413,-4.7259,-4.7259,-4.6652,-4.6391,-4.6504,-4.5443,-4.507,-4.5424,-4.5604,-4.6316,-4.7386,-4.7796,-4.7631,-4.7022,-4.6904,-4.6512,-4.597,-4.572,-4.5589,-4.5705,-4.6722,-4.7125,-4.7357,-4.9281,-4.8488,-4.6122,-4.4175,-4.3506,-4.3503,-4.3503,-4.3493,-4.3567,-4.4008,-4.313,-4.18,-4.0784,-4.1971,-4.3865,-4.5237,-4.4556,-4.3502,-4.3494,-4.3497,-4.3497,-4.3497,-4.3506,-4.3503,-4.3516,-4.1926,-4.027,-3.9241,-3.9478,-3.956,-3.8707,-3.852,-3.8522,-3.8695,-3.8707,-3.8707,-3.8707,-3.8707,-3.8707,-3.8707,-3.8707,-3.8524,-3.8034,-3.842,-3.8377,-3.7594,-3.7784,-3.7893,-3.7893,-3.7524,-3.7269,-3.719,-3.8329,-3.8468,-3.7738,-3.9257,-3.9674,-2.1815,0.0,0.0,0.0,0.0,0.0,0.0,0.0,0.0,0.0,0.0,0.0,0.0,0.0,0.0,-4.28,-4.414,-4.5241,-4.5406,-4.6188,-4.6797,-4.6996,-4.7226,-4.7556,-4.8049,-4.8105,-4.8105,-4.8105,-4.7355,-4.6913,-4.6913,-4.6567,-4.6374,-4.6374,-4.5684,-4.5466,-4.5806,-4.4744,-4.4378,-4.4709,-4.4874,-4.5086,-4.5352,-4.6534,-4.6713,-4.6117,-4.6061,-4.586,-4.5586,-4.5586,-4.5605,-4.5607,-4.5607,-4.5592,-4.5851,-4.7907,-4.7367,-4.5396,-4.4002,-4.3885,-4.4345,-4.4345,-4.3952,-4.3611,-4.4159,-4.2544,-4.0787,-4.2144,-4.3998,-4.5608,-4.5605,-4.4966,-4.4204,-4.3621,-4.3494,-4.3498,-4.3495,-4.3506,-4.3237,-4.2346,-4.1054,-3.9625,-3.8148,-3.833,-3.8456,-3.7833,-3.7648,-3.7823,-3.8308,-3.835,-3.841,-3.8658,-3.8707,-3.8707,-3.8707,-3.8707,-3.8689,-3.8713,-3.8719,-3.8285,-3.7312,-3.7492,-3.7614,-3.7614,-3.6943,-3.6545,-3.6563,-3.7538,-3.7879,-3.7649,-3.8933,-3.95,0.0,0.0,0.0,0.0,0.0,0.0,0.0,0.0,0.0,0.0,0.0,0.0,0.0,-4.3406,-4.2671,-4.3479,-4.4782,-4.5443,-4.48,-4.592,-4.6757,-4.6723,-4.6759,-4.7049,-4.7761,-4.7856,-4.7875,-4.7875,-4.7201,-4.6778,-4.6778,-4.6028,-4.5586,-4.5586,-4.4988,-4.4983,-4.5685,-4.4271,-4.3899,-4.458,-4.3846,-4.3497,-4.3569,-4.5739,-4.6364,-4.5727,-4.5648,-4.5586,-4.5586,-4.5586,-4.5586,-4.5586,-4.5586,-4.5587,-4.5608,-4.5605,-4.5592,-4.5418,-4.4141,-4.4537,-4.5581,-4.5439,-4.4531,-4.369,-4.4808,-4.3187,-4.1608,-4.4739,-4.5599,-4.5607,-4.5606,-4.56,-4.5274,-4.4008,-4.3606,-4.3491,-4.3487,-4.3123,-4.2243,-4.044,-4.0103,-3.962,-3.8098,-3.7445,-3.7182,-3.7455,-3.7343,-3.7417,-3.7835,-3.7838,-3.799,-3.8559,-3.8658,-3.8707,-3.8707,-3.8707,-3.8701,-3.8681,-3.8713,-3.8377,-3.7624,-3.7395,-3.7248,-3.719,-3.6207,-3.5667,-3.5622,-3.6139,-3.6643,-3.7135,-3.7969,-3.8564,0.0,0.0,0.0,0.0,0.0,0.0,0.0,0.0,0.0,0.0,0.0,0.0,0.0,-4.3479,-4.3497,-4.4305,-4.4195,-4.4176,-4.4654,-4.4452,-4.4365,-4.4617,-4.4927,-4.5287,-4.5696,-4.5975,-4.6144,-4.6144,-4.597,-4.5874,-4.5874,-4.5701,-4.5586,-4.5586,-4.5201,-4.4948,-4.4863,-4.4229,-4.3832,-4.3754,-4.3571,-4.3497,-4.3532,-4.4296,-4.4888,-4.5255,-4.5496,-4.5586,-4.5586,-4.5586,-4.5586,-4.5586,-4.5586,-4.5605,-4.5605,-4.5605,-4.5592,-4.5559,-4.5247,-4.5337,-4.5432,-4.4317,-4.3754,-4.3252,-4.1979,-4.2947,-4.4666,-4.5387,-4.5599,-4.5605,-4.5609,-4.5609,-4.5515,-4.523,-4.4299,-4.3509,-4.3503,-4.0239,-3.7848,-3.9743,-4.0095,-3.9486,-3.761,-3.7188,-3.7132,-3.7251,-3.754,-3.7807,-3.7887,-3.8259,-3.8328,-3.7938,-3.8378,-3.8707,-3.8707,-3.8707,-3.8689,-3.8701,-3.8689,-3.8615,-3.845,-3.7993,-3.7578,-3.7228,-3.6563,-3.6028,-3.5622,-3.6139,-3.6457,-3.6603,-3.7417,-3.8041,0.0,0.0,0.0,0.0,0.0,0.0,0.0,0.0,0.0,0.0,0.0,0.0,0.0,-4.3497,-4.3626,-4.4066,-4.4103,-4.4085,-4.4121,-4.4103,-4.4122,-4.426,-4.4474,-4.4781,-4.5283,-4.5495,-4.5586,-4.5586,-4.5586,-4.5586,-4.5586,-4.5586,-4.5586,-4.5586,-4.5263,-4.4943,-4.4606,-4.4204,-4.3632,-4.2928,-4.2928,-4.2824,-4.2612,-4.3571,-4.4318,-4.4853,-4.482,-4.5017,-4.5323,-4.4937,-4.5105,-4.5586,-4.5586,-4.5586,-4.5586,-4.5586,-4.5591,-4.5592,-4.5608,-4.5592,-4.5483,-4.4734,-4.4516,-4.4001,-4.1301,-4.2891,-4.5599,-4.5596,-4.5601,-4.5587,-4.5611,-4.5611,-4.5035,-4.2825,-4.2923,-4.3071,-4.1539,-3.9625,-3.8333,-3.8634,-3.9469,-3.9431,-3.7285,-3.6842,-3.6783,-3.6811,-3.702,-3.7268,-3.7542,-3.7363,-3.7453,-3.8098,-3.8507,-3.8694,-3.8678,-3.8711,-3.8483,-3.7961,-3.8046,-3.812,-3.812,-3.7849,-3.7533,-3.721,-3.6399,-3.5898,-3.5622,-3.5537,-3.5664,-3.5934,-3.6004,-3.6478,0.0,0.0,0.0,0.0,0.0,0.0,0.0,0.0,0.0,0.0,0.0,0.0,-4.3497,-4.3497,-4.3497,-4.3497,-4.4066,-4.4268,-4.3589,-4.4066,-4.4502,-4.4495,-4.4553,-4.483,-4.5457,-4.5568,-4.5586,-4.5586,-4.5586,-4.5586,-4.5586,-4.5451,-4.5374,-4.5374,-4.4958,-4.457,-4.419,-4.3849,-4.315,-4.2165,-4.2165,-4.1939,-4.1545,-4.2902,-4.3735,-4.4153,-4.3814,-4.4097,-4.4748,-4.3982,-4.4364,-4.5438,-4.5438,-4.5495,-4.559,-4.559,-4.5589,-4.5586,-4.5586,-4.5592,-4.551,-4.4913,-4.4723,-4.419,-4.1374,-4.2393,-4.461,-4.4898,-4.5283,-4.5515,-4.5105,-4.4698,-4.3469,-3.9731,-4.1003,-4.2318,-3.9651,-3.9935,-4.0149,-3.8187,-3.8866,-3.9145,-3.7189,-3.6572,-3.6406,-3.6609,-3.6441,-3.6527,-3.7117,-3.6484,-3.6539,-3.8026,-3.8503,-3.851,-3.8072,-3.8192,-3.7903,-3.7026,-3.7165,-3.7276,-3.7276,-3.7198,-3.708,-3.6914,-3.6219,-3.5783,-3.5622,-3.4941,-3.4828,-3.5268,-3.4537,-3.4751,0.0,0.0,0.0,0.0,0.0,0.0,0.0,0.0,0.0,0.0,0.0,0.0,-4.3497,-4.3497,-4.3497,-4.3497,-4.3589,-4.3608,-4.3516,-4.3589,-4.3775,-4.4065,-4.4392,-4.4732,-4.5118,-4.5419,-4.5586,-4.5586,-4.5586,-4.5586,-4.5586,-4.4874,-4.447,-4.447,-4.3744,-4.3062,-4.2429,-4.2379,-4.2133,-4.1694,-4.1694,-4.1526,-4.1158,-4.1379,-4.1842,-4.2459,-4.2659,-4.308,-4.351,-4.298,-4.3553,-4.4732,-4.4732,-4.509,-4.5602,-4.5602,-4.5611,-4.5586,-4.5586,-4.5605,-4.5109,-4.2142,-4.1185,-4.1109,-4.0643,-4.0465,-4.0696,-4.2101,-4.3995,-4.5147,-4.3094,-4.1095,-3.9595,-3.9496,-4.0382,-4.1135,-4.0691,-3.9871,-3.9416,-4.0087,-3.9317,-3.8286,-3.7532,-3.6601,-3.6358,-3.7524,-3.6718,-3.6264,-3.7084,-3.7332,-3.7048,-3.611,-3.7626,-3.7769,-3.5429,-3.6069,-3.657,-3.6431,-3.6431,-3.645,-3.645,-3.5999,-3.5746,-3.5723,-3.6556,-3.6522,-3.5622,-3.4941,-3.4624,-3.4703,-3.4005,-3.4006,0.0,0.0,0.0,0.0,0.0,0.0,0.0,0.0,0.0,0.0,0.0,-4.2965,-4.3406,-4.3497,-4.3497,-4.3497,-4.3497,-4.3497,-4.3497,-4.3497,-4.3612,-4.3955,-4.4364,-4.4732,-4.5074,-4.54,-4.5586,-4.5586,-4.5586,-4.5374,-4.4893,-4.4509,-4.4085,-4.3643,-4.3278,-4.2851,-4.2329,-4.187,-4.1141,-4.0198,-4.0188,-4.0055,-3.9772,-3.9772,-4.0413,-4.1547,-4.137,-4.1702,-4.2329,-4.1851,-4.2265,-4.3228,-4.37,-4.4064,-4.4317,-4.4317,-4.4315,-4.4312,-4.4296,-4.4874,-4.5029,-4.1608,-4.0041,-3.9488,-3.9486,-3.992,-4.041,-4.0481,-4.2697,-4.4297,-4.1027,-3.9952,-3.9661,-3.9489,-4.0071,-4.0507,-3.9859,-3.9835,-3.9973,-4.0005,-3.9122,-3.8295,-3.8016,-3.7423,-3.7237,-3.7805,-3.7148,-3.6783,-3.7137,-3.6811,-3.6301,-3.5659,-3.6399,-3.6573,-3.5545,-3.5115,-3.5078,-3.554,-3.5587,-3.5587,-3.5587,-3.536,-3.5314,-3.5497,-3.549,-3.5422,-3.5377,-3.4447,-3.3989,-3.4037,-3.3339,-3.3151,0.0,0.0,0.0,0.0,0.0,0.0,0.0,0.0,0.0,0.0,0.0,-4.1937,-4.2727,-4.3222,-4.3497,-4.3497,-4.3497,-4.3497,-4.3497,-4.3497,-4.3612,-4.3955,-4.4364,-4.4732,-4.5074,-4.54,-4.5586,-4.5586,-4.5393,-4.4989,-4.4335,-4.3682,-4.3066,-4.245,-4.2027,-4.1622,-4.1225,-4.0634,-3.9712,-3.8478,-3.8562,-3.8507,-3.8395,-3.8395,-3.9166,-4.0469,-4.0078,-4.0391,-4.1155,-4.0798,-4.1241,-4.2198,-4.2592,-4.2927,-4.3156,-4.2949,-4.2907,-4.3007,-4.3018,-4.362,-4.4028,-4.1674,-3.9914,-3.8694,-3.8715,-3.9483,-4.0321,-3.9877,-4.1386,-4.2502,-3.9927,-3.9743,-4.0139,-3.9633,-3.9791,-3.9853,-3.9088,-3.9656,-4.0026,-3.9187,-3.8773,-3.8491,-3.8256,-3.7989,-3.7863,-3.8062,-3.7523,-3.7109,-3.7193,-3.6271,-3.5681,-3.5861,-3.5946,-3.5962,-3.5954,-3.4891,-3.4371,-3.4697,-3.4706,-3.4706,-3.4706,-3.4706,-3.4822,-3.5059,-3.4287,-3.4379,-3.5374,-3.424,-3.3804,-3.4038,-3.3077,-3.2586,0.0,0.0,0.0,0.0,0.0,0.0,0.0,0.0,0.0,0.0,-3.8927,-4.0267,-4.1093,-4.247,-4.3497,-4.3497,-4.3497,-4.3497,-4.3497,-4.3497,-4.3612,-4.3955,-4.4364,-4.4732,-4.5074,-4.54,-4.5586,-4.5586,-4.4836,-4.4355,-4.4297,-4.2008,-4.0681,-4.0642,-3.9084,-3.8092,-3.7756,-3.7718,-3.7385,-3.6838,-3.7084,-3.7324,-3.7551,-3.7551,-3.801,-3.8817,-3.8811,-3.9234,-3.9987,-3.9963,-4.0864,-4.2224,-4.1507,-4.1872,-4.2733,-4.1969,-4.1897,-4.2157,-4.2157,-4.176,-4.134,-4.186,-4.0512,-3.871,-3.8693,-3.8768,-3.913,-4.0572,-4.0025,-3.9264,-4.0495,-4.0234,-3.9727,-3.9977,-3.9452,-3.8974,-3.9215,-3.9082,-3.8683,-3.7872,-3.8431,-3.883,-3.8065,-3.7699,-3.7778,-3.8548,-3.7548,-3.6859,-3.7159,-3.6237,-3.587,-3.6589,-3.6952,-3.6683,-3.563,-3.5466,-3.4971,-3.3935,-3.3862,-3.3862,-3.3862,-3.3862,-3.388,-3.389,-3.3459,-3.4106,-3.5858,-3.4727,-3.456,-3.5251,-3.3431,-3.2586,0.0,0.0,0.0,0.0,0.0,0.0,0.0,0.0,0.0,0.0,-3.6431,-3.7991,-3.9331,-4.0873,-4.1974,-4.1974,-4.1974,-4.1974,-4.1974,-4.2396,-4.2776,-4.2904,-4.3905,-4.465,-4.4776,-4.4766,-4.4759,-4.4759,-4.3989,-4.3047,-4.1912,-4.0989,-4.0008,-3.8931,-3.8315,-3.7655,-3.6983,-3.7539,-3.7279,-3.6216,-3.7325,-3.7736,-3.7514,-3.8028,-3.8432,-3.8707,-3.8707,-3.8854,-3.9129,-3.9129,-3.9478,-4.001,-4.0249,-4.0565,-4.0905,-4.0628,-4.057,-4.0595,-4.0094,-3.9723,-3.9574,-3.983,-3.9353,-3.8704,-3.8701,-3.8707,-3.8817,-3.9399,-3.9142,-3.8811,-3.9349,-3.9016,-3.8614,-3.8722,-3.8095,-3.7428,-3.7395,-3.8274,-3.8915,-3.8192,-3.8502,-3.8692,-3.8026,-3.7574,-3.7502,-3.8096,-3.7539,-3.7148,-3.7613,-3.7031,-3.6724,-3.6974,-3.6355,-3.5794,-3.5519,-3.4503,-3.3876,-3.378,-3.3807,-3.3807,-3.3807,-3.3807,-3.3807,-3.3807,-3.3652,-3.4002,-3.486,-3.4672,-3.4352,-3.3862,-3.4233,-3.3448,0.0,0.0,0.0,0.0,0.0,0.0,0.0,0.0,0.0,0.0,-3.3917,-3.555,-3.7165,-3.8579,-3.9845,-4.0928,-4.1111,-4.1111,-4.1111,-4.157,-4.1901,-4.1901,-4.2899,-4.3646,-4.375,-4.3745,-4.3785,-4.3893,-4.2854,-4.172,-4.0546,-3.9681,-3.845,-3.6776,-3.643,-3.6142,-3.5853,-3.643,-3.6361,-3.5646,-3.6621,-3.713,-3.7247,-3.7684,-3.8193,-3.8707,-3.8707,-3.8707,-3.8707,-3.8707,-3.8854,-3.9129,-3.9386,-3.9662,-3.9863,-3.9588,-3.9496,-3.9423,-3.8891,-3.8707,-3.8707,-3.8707,-3.8707,-3.8707,-3.8707,-3.8707,-3.8707,-3.8707,-3.87,-3.8726,-3.8862,-3.8499,-3.8007,-3.7551,-3.6913,-3.6298,-3.5873,-3.7099,-3.8206,-3.7815,-3.8033,-3.8169,-3.7938,-3.7506,-3.736,-3.7825,-3.7649,-3.7542,-3.7859,-3.7381,-3.7075,-3.7193,-3.6147,-3.5492,-3.561,-3.4519,-3.387,-3.397,-3.3854,-3.3807,-3.3807,-3.3807,-3.3807,-3.3807,-3.3807,-3.3908,-3.4129,-3.4461,-3.434,-3.3861,-3.4363,-3.3456,0.0,0.0,0.0,0.0,0.0,0.0,0.0,0.0,0.0,0.0,-3.1384,-3.2973,-3.4587,-3.5605,-3.7221,-4.0377,-4.0946,-4.0983,-4.1001,-4.102,-4.1056,-4.1075,-4.1378,-4.1725,-4.2084,-4.2354,-4.268,-4.303,-4.1412,-4.0431,-4.0431,-3.8007,-3.5872,-3.4237,-3.3372,-3.3333,-3.418,-3.4218,-3.4525,-3.5088,-3.4851,-3.5428,-3.6682,-3.6454,-3.7202,-3.8707,-3.8707,-3.8707,-3.8707,-3.8707,-3.9166,-3.979,-3.9001,-3.9184,-3.9772,-3.9001,-3.8707,-3.8707,-3.8707,-3.8707,-3.8707,-3.8707,-3.8707,-3.8707,-3.8707,-3.8676,-3.8676,-3.8707,-3.8701,-3.8786,-3.9107,-3.8739,-3.7929,-3.6595,-3.6046,-3.5618,-3.4843,-3.5458,-3.6292,-3.6584,-3.6934,-3.7308,-3.7747,-3.7452,-3.7323,-3.779,-3.7859,-3.7859,-3.7911,-3.721,-3.6841,-3.7177,-3.641,-3.5895,-3.5895,-3.5611,-3.5105,-3.4317,-3.396,-3.3762,-3.3762,-3.3788,-3.3807,-3.3807,-3.3807,-3.3807,-3.3807,-3.4147,-3.4722,-3.5393,-3.3753,-3.2431,-2.6264,0.0,0.0,0.0,0.0,0.0,0.0,0.0,0.0,-2.7346,-2.8888,-3.0503,-3.21,-3.3073,-3.4119,-3.5587,-3.6835,-3.7826,-3.8395,-3.9001,-3.9588,-4.0157,-4.1056,-4.1725,-4.2084,-4.1307,-4.117,-4.2088,-4.0008,-3.8681,-3.8681,-3.6276,-3.468,-3.4199,-3.3968,-3.3949,-3.4199,-3.4834,-3.5025,-3.4812,-3.5318,-3.5857,-3.6426,-3.6948,-3.7716,-3.8707,-3.8707,-3.8707,-3.8707,-3.8707,-3.8836,-3.9019,-3.8799,-3.8836,-3.9019,-3.8781,-3.8707,-3.8707,-3.8707,-3.8707,-3.8707,-3.8707,-3.8707,-3.8707,-3.8707,-3.8423,-3.8192,-3.8583,-3.8687,-3.8475,-3.74,-3.6323,-3.5446,-3.5206,-3.4837,-3.4423,-3.3975,-3.3862,-3.4152,-3.5137,-3.5737,-3.6078,-3.6028,-3.6035,-3.6207,-3.6746,-3.6825,-3.7097,-3.779,-3.7435,-3.7238,-3.7667,-3.6335,-3.5574,-3.5895,-3.455,-3.3741,-3.3788,-3.3538,-3.3361,-3.3361,-3.3652,-3.3807,-3.3807,-3.3807,-3.3807,-3.3807,-3.4485,-3.4484,-3.3803,-3.3051,-3.2844,0.0,0.0,0.0,0.0,0.0,0.0,-2.5786,-2.5642,-2.5531,0.0,-2.7108,-2.8393,-2.9659,-3.0834,-3.1751,-3.2228,-3.3403,-3.4761,-3.6248,-3.7459,-3.8248,-3.8377,-3.928,-3.9918,-4.0005,-3.9302,-3.9223,-4.015,-3.8507,-3.7315,-3.6969,-3.5199,-3.4199,-3.4199,-3.3526,-3.3487,-3.418,-3.4232,-3.4448,-3.487,-3.5103,-3.5464,-3.5992,-3.6683,-3.7422,-3.8193,-3.8193,-3.8193,-3.8175,-3.7845,-3.8083,-3.8621,-3.8099,-3.8222,-3.8658,-3.8465,-3.8496,-3.8707,-3.8707,-3.8707,-3.8652,-3.8303,-3.8432,-3.8548,-3.7661,-3.7428,-3.741,-3.7163,-3.7268,-3.7067,-3.5628,-3.4952,-3.4624,-3.4532,-3.4054,-3.364,-3.3478,-3.2913,-3.2798,-3.4081,-3.4458,-3.4736,-3.5213,-3.5215,-3.5409,-3.6281,-3.6374,-3.6684,-3.7488,-3.6772,-3.6342,-3.6789,-3.5332,-3.448,-3.4814,-3.3717,-3.3097,-3.3317,-3.3075,-3.2921,-3.2921,-3.3332,-3.355,-3.355,-3.3707,-3.3807,-3.3807,-3.4284,-3.4053,-3.3184,-3.2885,-3.2843,0.0,0.0,0.0,0.0,0.0,0.0,-2.6778,-2.6172,-2.5623,0.0,-2.597,-2.6686,-2.7402,-2.8778,-2.9806,-2.9806,-3.054,-3.2008,-3.4495,-3.6156,-3.6872,-3.6358,-3.6927,-3.7313,-3.7122,-3.7014,-3.7242,-3.7959,-3.7199,-3.6353,-3.5532,-3.4661,-3.4199,-3.4153,-3.2744,-3.2628,-3.3999,-3.32,-3.3489,-3.4901,-3.4433,-3.4697,-3.5597,-3.5966,-3.6652,-3.7507,-3.7404,-3.7349,-3.7323,-3.6486,-3.7055,-3.8328,-3.7207,-3.7521,-3.853,-3.8147,-3.8245,-3.8579,-3.8579,-3.8505,-3.8322,-3.7588,-3.7845,-3.8096,-3.6191,-3.6056,-3.6303,-3.5083,-3.5057,-3.5084,-3.386,-3.4154,-3.4679,-3.4148,-3.3615,-3.3184,-3.3136,-3.2433,-3.2124,-3.323,-3.3138,-3.3394,-3.4829,-3.4829,-3.4985,-3.6146,-3.6333,-3.6563,-3.7076,-3.5823,-3.5039,-3.5387,-3.4159,-3.3373,-3.3516,-3.3311,-3.3118,-3.2945,-3.2704,-3.2506,-3.2417,-3.2872,-3.3154,-3.3214,-3.355,-3.3734,-3.3734,-3.368,-3.3494,-3.3214,-3.3015,-3.2681,0.0,0.0,0.0,0.0,0.0,0.0,-2.786,-2.7438,-2.6943,0.0,-2.5531,-2.5697,-2.5844,-2.6649,-2.731,-2.731,-2.8521,-3.054,-3.3605,-3.4321,-3.4963,-3.6156,-3.6431,-3.6684,-3.7065,-3.6524,-3.6653,-3.7901,-3.7199,-3.6353,-3.5532,-3.4661,-3.4093,-3.3872,-3.3786,-3.344,-3.2844,-3.3996,-3.4296,-3.3733,-3.4042,-3.489,-3.6122,-3.5542,-3.6083,-3.7441,-3.6817,-3.6523,-3.6468,-3.5624,-3.5862,-3.6817,-3.7186,-3.7509,-3.7808,-3.8339,-3.8206,-3.7716,-3.7716,-3.7312,-3.6743,-3.6578,-3.6633,-3.663,-3.5833,-3.5408,-3.4995,-3.4001,-3.3864,-3.3737,-3.2252,-3.2708,-3.3455,-3.2999,-3.3076,-3.3105,-3.2713,-3.2196,-3.1768,-3.1713,-3.2088,-3.2706,-3.3624,-3.4528,-3.5287,-3.5708,-3.6139,-3.6416,-3.6539,-3.5907,-3.5617,-3.6132,-3.5531,-3.4847,-3.432,-3.4219,-3.3709,-3.2502,-3.2714,-3.263,-3.195,-3.2366,-3.2809,-3.3184,-3.3273,-3.3302,-3.3302,-3.2934,-3.2903,-3.3184,-3.2791,-3.2657,0.0,0.0,0.0,-3.1201,0.0,0.0,0.0,-2.8374,-2.7567,-2.6759,-2.5972,-2.5531,-2.5915,-2.6337,-2.6612,-2.6612,-2.7622,-2.9108,-3.1127,-3.21,-3.2908,-3.3752,-3.3844,-3.3998,-3.4427,-3.4092,-3.4433,-3.5802,-3.5128,-3.4712,-3.4853,-3.4182,-3.3805,-3.3808,-3.3808,-3.3741,-3.3599,-3.4036,-3.4092,-3.3805,-3.4083,-3.4513,-3.5055,-3.5009,-3.5477,-3.6229,-3.5844,-3.5661,-3.5605,-3.4761,-3.4669,-3.51,-3.5666,-3.6309,-3.6916,-3.7033,-3.7004,-3.689,-3.689,-3.6633,-3.6229,-3.5789,-3.5954,-3.6033,-3.4515,-3.3564,-3.2919,-3.2429,-3.252,-3.237,-3.0663,-3.1502,-3.2786,-3.2437,-3.2606,-3.284,-3.284,-3.2484,-3.2109,-3.1896,-3.2171,-3.272,-3.3619,-3.4318,-3.5139,-3.6225,-3.6255,-3.6151,-3.6151,-3.5583,-3.5215,-3.525,-3.5063,-3.4635,-3.4024,-3.3947,-3.3474,-3.2381,-3.2537,-3.2312,-3.1542,-3.1897,-3.2366,-3.284,-3.2598,-3.2616,-3.284,-3.2196,-3.2196,-3.284,-3.2477,-3.2384,0.0,0.0,0.0,0.0,0.0,-3.1286,0.0,0.0,0.0,0.0,0.0,0.0,0.0,0.0,0.0,0.0,0.0,0.0,0.0,-2.9567,0.0,-3.1109,-3.1164,-3.1347,-3.1759,-3.1846,-3.2333,-3.3396,-3.288,-3.2902,-3.3777,-3.3403,-3.3318,-3.3634,-3.3507,-3.3711,-3.4367,-3.3838,-3.3693,-3.3953,-3.4073,-3.4086,-3.4045,-3.4559,-3.4844,-3.499,-3.4825,-3.4752,-3.4715,-3.4082,-3.3807,-3.3853,-3.428,-3.5114,-3.6036,-3.575,-3.5806,-3.6046,-3.6046,-3.5954,-3.5697,-3.5018,-3.5125,-3.5193,-3.3137,-3.1773,-3.1004,-3.1175,-3.1142,-3.0794,-2.935,-3.0519,-3.1976,-3.1781,-3.2117,-3.2616,-3.2983,-3.2777,-3.2484,-3.2484,-3.2548,-3.2891,-3.3888,-3.4349,-3.5062,-3.6556,-3.6434,-3.6043,-3.5776,-3.5332,-3.4851,-3.4509,-3.4532,-3.4318,-3.3615,-3.3567,-3.3169,-3.2138,-3.2205,-3.1952,-3.1224,-3.1603,-3.1986,-3.235,-3.1986,-3.2004,-3.2366,-3.1582,-3.1582,-3.2366,-3.2072,-3.19,0.0,0.0,0.0,0.0,-3.3907,-3.5255,-2.9834,0.0,-3.0023,-2.8182,0.0,0.0,0.0,0.0,0.0,0.0,0.0,0.0,-2.5897,-2.6576,-2.7952,-3.0081,-3.0338,-3.072,-3.1685,-3.2012,-3.2222,-3.2372,-3.2296,-3.2295,-3.2408,-3.2372,-3.2561,-3.3063,-3.3294,-3.333,-3.3175,-3.3794,-3.3794,-3.3148,-3.3622,-3.4201,-3.4825,-3.4229,-3.4339,-3.4954,-3.4266,-3.3935,-3.3935,-3.3844,-3.3807,-3.388,-3.4632,-3.5017,-3.5229,-3.5952,-3.575,-3.5137,-3.5137,-3.4688,-3.4064,-3.3972,-3.3484,-3.2879,-3.2603,-3.1424,-3.0359,-3.1007,-2.9939,-2.8685,-2.8935,-2.9632,-3.0332,-3.0388,-3.1487,-3.2517,-3.2583,-3.255,-3.2484,-3.2484,-3.2684,-3.3024,-3.358,-3.492,-3.5763,-3.5382,-3.6331,-3.6589,-3.5364,-3.5545,-3.5754,-3.568,-3.5963,-3.5578,-3.4246,-3.426,-3.3491,-3.1444,-3.1918,-3.1952,-3.1224,-3.1603,-3.1825,-3.1897,-3.1825,-3.1825,-3.1897,-3.1411,-3.1449,-3.1861,-3.149,-3.1076,0.0,0.0,0.0,0.0,0.0,-3.319,-3.158,-3.0658,-3.0035,-2.9624,0.0,0.0,0.0,0.0,0.0,0.0,-2.6374,-2.6319,0.0,0.0,-2.6098,-2.8521,-2.8393,-2.8456,-2.9385,-3.0143,-3.0396,-2.9927,-2.9852,-3.0114,-3.0767,-3.0525,-3.0732,-3.1592,-3.2035,-3.2405,-3.2754,-3.3268,-3.3491,-3.3456,-3.3845,-3.412,-3.4302,-3.3954,-3.399,-3.4284,-3.3954,-3.3807,-3.3807,-3.3807,-3.3807,-3.3825,-3.4174,-3.4302,-3.4357,-3.4706,-3.4614,-3.4302,-3.4302,-3.4082,-3.3807,-3.3807,-3.339,-3.2769,-3.2065,-3.1009,-2.9895,-2.9088,-2.8349,-2.7522,-2.6726,-2.7774,-2.9131,-2.9385,-3.0525,-3.1828,-3.2727,-3.3279,-3.3741,-3.4144,-3.4715,-3.5063,-3.4942,-3.5695,-3.6311,-3.6284,-3.6756,-3.6777,-3.5699,-3.5615,-3.5733,-3.5901,-3.5881,-3.5702,-3.5232,-3.4826,-3.405,-3.2698,-3.2248,-3.1773,-3.1207,-3.1351,-3.1449,-3.1449,-3.1696,-3.1789,-3.1789,-3.1427,-3.1342,-3.1496,-3.1077,-3.0611,-3.2075,-3.25,-3.2971,-3.3454,-3.2661,-3.1881,-3.229,-3.1189,-3.0163,-3.0521,-2.9822,0.0,0.0,0.0,-2.8191,-2.7402,0.0,-2.6906,0.0,-2.5419,0.0,0.0,-2.7346,-2.7402,-2.775,-2.8498,-2.8623,-2.7828,-2.7714,-2.8146,-2.9194,-2.8894,-2.9218,-3.0457,-3.0862,-3.1568,-3.2596,-3.2785,-3.3216,-3.3788,-3.4012,-3.3986,-3.3807,-3.3807,-3.3807,-3.3807,-3.3807,-3.3807,-3.3807,-3.3807,-3.3807,-3.3807,-3.3807,-3.3807,-3.3807,-3.3807,-3.3807,-3.3807,-3.3807,-3.3807,-3.3807,-3.3807,-3.3522,-3.2961,-3.1805,-3.0612,-2.9309,-2.7467,-2.6796,-2.6291,-2.4748,-2.5893,-2.7588,-2.8053,-2.9471,-3.1159,-3.276,-3.3687,-3.4443,-3.5342,-3.6216,-3.6663,-3.6154,-3.6503,-3.6754,-3.6585,-3.6742,-3.6592,-3.5777,-3.5638,-3.5647,-3.5782,-3.5793,-3.5714,-3.5492,-3.496,-3.4235,-3.3351,-3.2477,-3.1861,-3.1562,-3.1562,-3.1459,-3.1216,-3.1513,-3.1586,-3.1427,-3.1161,-3.0991,-3.085,-3.0627,-3.0325,-3.104,-3.258,-3.3395,-3.1888,-3.2903,-3.3579,-3.0907,-3.08,-3.1034,-3.0296,-3.0684,-3.1107,-3.0797,-3.0399,-2.9861,-2.903,-2.892,0.0,0.0,0.0,0.0,-2.6722,-2.8007,-2.8631,-2.786,-2.7827,-2.7515,-2.6725,-2.6649,-2.7001,-2.7831,-2.7846,-2.8558,-3.0178,-3.0228,-3.0999,-3.2596,-3.2614,-3.2999,-3.3807,-3.3807,-3.3807,-3.3807,-3.3807,-3.3807,-3.3807,-3.3807,-3.3807,-3.3807,-3.3807,-3.3807,-3.3807,-3.3807,-3.3807,-3.3807,-3.3807,-3.3807,-3.3807,-3.3807,-3.3807,-3.3807,-3.3807,-3.3522,-3.2979,-3.184,-3.0317,-2.8543,-2.6741,-2.5536,-2.4594,-2.3658,-2.4252,-2.5318,-2.6174,-2.8399,-3.0799,-3.2441,-3.3284,-3.4082,-3.5288,-3.6354,-3.6967,-3.6632,-3.7126,-3.7011,-3.5412,-3.5829,-3.6039,-3.5221,-3.5571,-3.5788,-3.5546,-3.6131,-3.5981,-3.4568,-3.4416,-3.3878,-3.2623,-3.2502,-3.2484,-3.2451,-3.2451,-3.2097,-3.1288,-3.132,-3.1036,-3.0424,-3.0435,-3.0207,-2.9765,-3.0188,-3.0216,-3.0401,-3.1298,-3.2009,-3.1742,-3.1776,-3.1651,-3.0746,-3.1115,-3.1255,-2.995,-3.0314,-3.0744,-3.0419,-3.0052,-2.9541,-2.8667,-2.8815,-2.8425,0.0,-2.7291,-2.7695,-2.742,0.0,0.0,0.0,-2.7493,-2.7016,-2.5144,-2.5493,-2.6153,-2.6961,-2.7016,-2.775,-2.9365,-2.9934,-3.0723,-3.1806,-3.1806,-3.2485,-3.3788,-3.3256,-3.3293,-3.3807,-3.3807,-3.3807,-3.3807,-3.3807,-3.3807,-3.3807,-3.3807,-3.3807,-3.3807,-3.3807,-3.3807,-3.3807,-3.3807,-3.3807,-3.3807,-3.3807,-3.3807,-3.3807,-3.3807,-3.3707,-3.3239,-3.1291,-2.9795,-2.8219,-2.5605,-2.4155,-2.3259,-2.2824,-2.3384,-2.4431,-2.597,-2.7671,-2.9452,-3.1185,-3.2668,-3.4163,-3.5734,-3.7492,-3.8525,-3.7843,-3.7296,-3.6578,-3.5515,-3.5911,-3.6071,-3.545,-3.521,-3.5337,-3.5966,-3.5487,-3.5226,-3.5435,-3.4117,-3.279,-3.1636,-3.1572,-3.1423,-3.1124,-3.1094,-3.107,-3.0956,-3.1281,-3.1327,-3.114,-3.0853,-3.0639,-3.0484,-2.9682,-2.9175,-3.004,-3.0446,-3.0968,-3.1627,-3.12,-3.0681,-3.1011,-3.1477,-3.1472,-3.0329,-3.0592,-3.0959,-3.0744,-3.0237,-2.9709,-2.926,-2.9207,-2.8803,0.0,-2.7897,-2.8227,-2.8227,0.0,0.0,0.0,-2.7387,-2.6761,-2.4777,-2.5226,-2.5902,-2.6554,-2.6869,-2.764,-2.8957,-2.9512,-3.0301,-3.1384,-3.1384,-3.221,-3.3788,-3.3275,-3.3311,-3.3807,-3.3807,-3.3807,-3.3807,-3.3807,-3.3807,-3.3807,-3.3807,-3.3807,-3.3807,-3.3807,-3.3807,-3.3807,-3.3807,-3.3807,-3.3807,-3.3807,-3.3807,-3.3807,-3.3807,-3.3807,-3.3305,-3.0666,-2.9321,-2.8113,-2.5334,-2.3353,-2.2193,-2.2359,-2.325,-2.4323,-2.5116,-2.6946,-2.8923,-3.0662,-3.2664,-3.473,-3.6759,-3.8305,-3.8989,-3.8055,-3.7055,-3.6177,-3.5461,-3.5577,-3.5677,-3.5523,-3.5122,-3.5097,-3.5737,-3.5191,-3.4586,-3.4051,-3.3071,-3.2197,-3.1506,-3.1464,-3.1334,-3.1023,-3.0998,-3.1097,-3.1293,-3.1291,-3.1175,-3.0977,-3.0411,-3.0037,-2.9798,-2.8897,-2.8232]}]]